<?xml version="1.0" encoding="UTF-8" standalone="no" ?>
<gpx xmlns="http://www.topografix.com/GPX/1/1" xmlns:xsi="http://www.w3.org/2001/XMLSchema-instance" xsi:schemaLocation="http://www.topografix.com/GPX/1/1 http://www.topografix.com/GPX/1/1/gpx.xsd" version="1.1" creator="VisuGPX - https://www.visugpx.com">
  <metadata>
    <name>07/10/2022</name>
    <desc><![CDATA[boucle au pic de Jer montée par le sentier et descente piste bleue]]></desc>
  </metadata>
  <trk>
    <name><![CDATA[07/10/2022_1]]></name>
    <trkseg>
      <trkpt lat="43.09445" lon="-0.03506">
        <ele>409.4</ele>
        <time>2022-10-07T06:54:17Z</time>
      </trkpt>
      <trkpt lat="43.09445" lon="-0.03503">
        <ele>411</ele>
        <time>2022-10-07T06:54:19Z</time>
      </trkpt>
      <trkpt lat="43.09438" lon="-0.03495">
        <ele>410.8</ele>
        <time>2022-10-07T06:54:27Z</time>
      </trkpt>
      <trkpt lat="43.09437" lon="-0.03483">
        <ele>410.8</ele>
        <time>2022-10-07T06:54:33Z</time>
      </trkpt>
      <trkpt lat="43.09436" lon="-0.03482">
        <ele>410.8</ele>
        <time>2022-10-07T06:54:34Z</time>
      </trkpt>
      <trkpt lat="43.09433" lon="-0.03481">
        <ele>410.8</ele>
        <time>2022-10-07T06:54:36Z</time>
      </trkpt>
      <trkpt lat="43.0943" lon="-0.03482">
        <ele>410.8</ele>
        <time>2022-10-07T06:54:39Z</time>
      </trkpt>
      <trkpt lat="43.09429" lon="-0.03486">
        <ele>411</ele>
        <time>2022-10-07T06:54:43Z</time>
      </trkpt>
      <trkpt lat="43.0943" lon="-0.0349">
        <ele>411</ele>
        <time>2022-10-07T06:54:45Z</time>
      </trkpt>
      <trkpt lat="43.09428" lon="-0.03501">
        <ele>411.2</ele>
        <time>2022-10-07T06:54:50Z</time>
      </trkpt>
      <trkpt lat="43.09427" lon="-0.03505">
        <ele>411</ele>
        <time>2022-10-07T06:54:52Z</time>
      </trkpt>
      <trkpt lat="43.09427" lon="-0.0351">
        <ele>411</ele>
        <time>2022-10-07T06:54:54Z</time>
      </trkpt>
      <trkpt lat="43.09428" lon="-0.03522">
        <ele>411</ele>
        <time>2022-10-07T06:55:00Z</time>
      </trkpt>
      <trkpt lat="43.09428" lon="-0.03536">
        <ele>410.8</ele>
        <time>2022-10-07T06:55:07Z</time>
      </trkpt>
      <trkpt lat="43.09428" lon="-0.0354">
        <ele>411</ele>
        <time>2022-10-07T06:55:09Z</time>
      </trkpt>
      <trkpt lat="43.09426" lon="-0.03546">
        <ele>410.8</ele>
        <time>2022-10-07T06:55:12Z</time>
      </trkpt>
      <trkpt lat="43.09421" lon="-0.03549">
        <ele>410.8</ele>
        <time>2022-10-07T06:55:14Z</time>
      </trkpt>
      <trkpt lat="43.09418" lon="-0.03548">
        <ele>410.8</ele>
        <time>2022-10-07T06:55:15Z</time>
      </trkpt>
      <trkpt lat="43.09416" lon="-0.03545">
        <ele>410.8</ele>
        <time>2022-10-07T06:55:16Z</time>
      </trkpt>
      <trkpt lat="43.09415" lon="-0.03537">
        <ele>411</ele>
        <time>2022-10-07T06:55:18Z</time>
      </trkpt>
      <trkpt lat="43.09414" lon="-0.03508">
        <ele>411.4</ele>
        <time>2022-10-07T06:55:25Z</time>
      </trkpt>
      <trkpt lat="43.09413" lon="-0.03495">
        <ele>411.4</ele>
        <time>2022-10-07T06:55:28Z</time>
      </trkpt>
      <trkpt lat="43.09412" lon="-0.03479">
        <ele>411.4</ele>
        <time>2022-10-07T06:55:31Z</time>
      </trkpt>
      <trkpt lat="43.09411" lon="-0.03456">
        <ele>411.8</ele>
        <time>2022-10-07T06:55:35Z</time>
      </trkpt>
      <trkpt lat="43.09412" lon="-0.0345">
        <ele>411.8</ele>
        <time>2022-10-07T06:55:36Z</time>
      </trkpt>
      <trkpt lat="43.09414" lon="-0.03443">
        <ele>412</ele>
        <time>2022-10-07T06:55:37Z</time>
      </trkpt>
      <trkpt lat="43.09413" lon="-0.0342">
        <ele>412.4</ele>
        <time>2022-10-07T06:55:41Z</time>
      </trkpt>
      <trkpt lat="43.09414" lon="-0.03396">
        <ele>413.2</ele>
        <time>2022-10-07T06:55:45Z</time>
      </trkpt>
      <trkpt lat="43.09415" lon="-0.03379">
        <ele>413.4</ele>
        <time>2022-10-07T06:55:48Z</time>
      </trkpt>
      <trkpt lat="43.09424" lon="-0.03331">
        <ele>414</ele>
        <time>2022-10-07T06:56:05Z</time>
      </trkpt>
      <trkpt lat="43.09426" lon="-0.03326">
        <ele>414.2</ele>
        <time>2022-10-07T06:56:06Z</time>
      </trkpt>
      <trkpt lat="43.09431" lon="-0.0331">
        <ele>414.2</ele>
        <time>2022-10-07T06:56:09Z</time>
      </trkpt>
      <trkpt lat="43.09432" lon="-0.03305">
        <ele>414.4</ele>
        <time>2022-10-07T06:56:10Z</time>
      </trkpt>
      <trkpt lat="43.09436" lon="-0.03295">
        <ele>414.6</ele>
        <time>2022-10-07T06:56:12Z</time>
      </trkpt>
      <trkpt lat="43.09441" lon="-0.03279">
        <ele>415</ele>
        <time>2022-10-07T06:56:15Z</time>
      </trkpt>
      <trkpt lat="43.09456" lon="-0.03246">
        <ele>415.6</ele>
        <time>2022-10-07T06:56:22Z</time>
      </trkpt>
      <trkpt lat="43.09461" lon="-0.03228">
        <ele>415.8</ele>
        <time>2022-10-07T06:56:26Z</time>
      </trkpt>
      <trkpt lat="43.09466" lon="-0.0321">
        <ele>416</ele>
        <time>2022-10-07T06:56:30Z</time>
      </trkpt>
      <trkpt lat="43.0947" lon="-0.03186">
        <ele>416.8</ele>
        <time>2022-10-07T06:56:36Z</time>
      </trkpt>
      <trkpt lat="43.0947" lon="-0.03178">
        <ele>417.2</ele>
        <time>2022-10-07T06:56:38Z</time>
      </trkpt>
      <trkpt lat="43.09471" lon="-0.03167">
        <ele>417.8</ele>
        <time>2022-10-07T06:56:41Z</time>
      </trkpt>
      <trkpt lat="43.09473" lon="-0.03155">
        <ele>418.4</ele>
        <time>2022-10-07T06:56:44Z</time>
      </trkpt>
      <trkpt lat="43.09473" lon="-0.03144">
        <ele>418.8</ele>
        <time>2022-10-07T06:56:47Z</time>
      </trkpt>
      <trkpt lat="43.09472" lon="-0.03137">
        <ele>419.4</ele>
        <time>2022-10-07T06:56:49Z</time>
      </trkpt>
      <trkpt lat="43.09469" lon="-0.03126">
        <ele>420</ele>
        <time>2022-10-07T06:56:52Z</time>
      </trkpt>
      <trkpt lat="43.09467" lon="-0.03122">
        <ele>420.4</ele>
        <time>2022-10-07T06:56:53Z</time>
      </trkpt>
      <trkpt lat="43.09459" lon="-0.03107">
        <ele>421.8</ele>
        <time>2022-10-07T06:56:58Z</time>
      </trkpt>
      <trkpt lat="43.0945" lon="-0.03087">
        <ele>422.8</ele>
        <time>2022-10-07T06:57:04Z</time>
      </trkpt>
      <trkpt lat="43.09449" lon="-0.03078">
        <ele>423.2</ele>
        <time>2022-10-07T06:57:06Z</time>
      </trkpt>
      <trkpt lat="43.0945" lon="-0.0307">
        <ele>423.8</ele>
        <time>2022-10-07T06:57:08Z</time>
      </trkpt>
      <trkpt lat="43.09453" lon="-0.03048">
        <ele>424.4</ele>
        <time>2022-10-07T06:57:12Z</time>
      </trkpt>
      <trkpt lat="43.09459" lon="-0.03017">
        <ele>424.8</ele>
        <time>2022-10-07T06:57:17Z</time>
      </trkpt>
      <trkpt lat="43.09461" lon="-0.03004">
        <ele>425</ele>
        <time>2022-10-07T06:57:19Z</time>
      </trkpt>
      <trkpt lat="43.09467" lon="-0.02966">
        <ele>424.6</ele>
        <time>2022-10-07T06:57:24Z</time>
      </trkpt>
      <trkpt lat="43.09467" lon="-0.02958">
        <ele>424.6</ele>
        <time>2022-10-07T06:57:25Z</time>
      </trkpt>
      <trkpt lat="43.09464" lon="-0.02928">
        <ele>424</ele>
        <time>2022-10-07T06:57:29Z</time>
      </trkpt>
      <trkpt lat="43.09461" lon="-0.02907">
        <ele>423.8</ele>
        <time>2022-10-07T06:57:32Z</time>
      </trkpt>
      <trkpt lat="43.0946" lon="-0.02889">
        <ele>423.6</ele>
        <time>2022-10-07T06:57:34Z</time>
      </trkpt>
      <trkpt lat="43.09461" lon="-0.02872">
        <ele>423.4</ele>
        <time>2022-10-07T06:57:36Z</time>
      </trkpt>
      <trkpt lat="43.09461" lon="-0.02855">
        <ele>423.2</ele>
        <time>2022-10-07T06:57:38Z</time>
      </trkpt>
      <trkpt lat="43.09461" lon="-0.02847">
        <ele>423.2</ele>
        <time>2022-10-07T06:57:39Z</time>
      </trkpt>
      <trkpt lat="43.0946" lon="-0.02823">
        <ele>423</ele>
        <time>2022-10-07T06:57:42Z</time>
      </trkpt>
      <trkpt lat="43.09458" lon="-0.02807">
        <ele>422.8</ele>
        <time>2022-10-07T06:57:44Z</time>
      </trkpt>
      <trkpt lat="43.09452" lon="-0.02776">
        <ele>422.8</ele>
        <time>2022-10-07T06:57:48Z</time>
      </trkpt>
      <trkpt lat="43.09446" lon="-0.0276">
        <ele>422.8</ele>
        <time>2022-10-07T06:57:50Z</time>
      </trkpt>
      <trkpt lat="43.09444" lon="-0.02755">
        <ele>423</ele>
        <time>2022-10-07T06:57:51Z</time>
      </trkpt>
      <trkpt lat="43.09441" lon="-0.02749">
        <ele>423</ele>
        <time>2022-10-07T06:57:52Z</time>
      </trkpt>
      <trkpt lat="43.09431" lon="-0.02732">
        <ele>423</ele>
        <time>2022-10-07T06:57:55Z</time>
      </trkpt>
      <trkpt lat="43.09421" lon="-0.0272">
        <ele>423</ele>
        <time>2022-10-07T06:57:59Z</time>
      </trkpt>
      <trkpt lat="43.09414" lon="-0.02705">
        <ele>424.2</ele>
        <time>2022-10-07T06:58:04Z</time>
      </trkpt>
      <trkpt lat="43.09414" lon="-0.02702">
        <ele>424.4</ele>
        <time>2022-10-07T06:58:05Z</time>
      </trkpt>
      <trkpt lat="43.09413" lon="-0.02697">
        <ele>425.4</ele>
        <time>2022-10-07T06:58:07Z</time>
      </trkpt>
      <trkpt lat="43.09412" lon="-0.02694">
        <ele>425.4</ele>
        <time>2022-10-07T06:58:08Z</time>
      </trkpt>
      <trkpt lat="43.09411" lon="-0.02691">
        <ele>426</ele>
        <time>2022-10-07T06:58:09Z</time>
      </trkpt>
      <trkpt lat="43.09409" lon="-0.02686">
        <ele>426.6</ele>
        <time>2022-10-07T06:58:11Z</time>
      </trkpt>
      <trkpt lat="43.09407" lon="-0.02676">
        <ele>427.8</ele>
        <time>2022-10-07T06:58:15Z</time>
      </trkpt>
      <trkpt lat="43.09406" lon="-0.02673">
        <ele>428</ele>
        <time>2022-10-07T06:58:16Z</time>
      </trkpt>
      <trkpt lat="43.09404" lon="-0.02665">
        <ele>428.8</ele>
        <time>2022-10-07T06:58:20Z</time>
      </trkpt>
      <trkpt lat="43.09402" lon="-0.02659">
        <ele>429.8</ele>
        <time>2022-10-07T06:58:23Z</time>
      </trkpt>
      <trkpt lat="43.09401" lon="-0.02657">
        <ele>430.2</ele>
        <time>2022-10-07T06:58:24Z</time>
      </trkpt>
      <trkpt lat="43.094" lon="-0.02652">
        <ele>430.8</ele>
        <time>2022-10-07T06:58:26Z</time>
      </trkpt>
      <trkpt lat="43.09399" lon="-0.0265">
        <ele>431</ele>
        <time>2022-10-07T06:58:27Z</time>
      </trkpt>
      <trkpt lat="43.09398" lon="-0.02648">
        <ele>431.2</ele>
        <time>2022-10-07T06:58:28Z</time>
      </trkpt>
      <trkpt lat="43.09397" lon="-0.02648">
        <ele>431.4</ele>
        <time>2022-10-07T06:58:29Z</time>
      </trkpt>
      <trkpt lat="43.09396" lon="-0.02649">
        <ele>431.8</ele>
        <time>2022-10-07T06:58:30Z</time>
      </trkpt>
      <trkpt lat="43.09394" lon="-0.0265">
        <ele>432</ele>
        <time>2022-10-07T06:58:31Z</time>
      </trkpt>
      <trkpt lat="43.09393" lon="-0.02654">
        <ele>432.2</ele>
        <time>2022-10-07T06:58:33Z</time>
      </trkpt>
      <trkpt lat="43.09394" lon="-0.02663">
        <ele>433.2</ele>
        <time>2022-10-07T06:58:37Z</time>
      </trkpt>
      <trkpt lat="43.09395" lon="-0.02667">
        <ele>433.4</ele>
        <time>2022-10-07T06:58:39Z</time>
      </trkpt>
      <trkpt lat="43.09395" lon="-0.02678">
        <ele>434.4</ele>
        <time>2022-10-07T06:58:45Z</time>
      </trkpt>
      <trkpt lat="43.09395" lon="-0.0268">
        <ele>434.6</ele>
        <time>2022-10-07T06:58:46Z</time>
      </trkpt>
      <trkpt lat="43.09395" lon="-0.02683">
        <ele>434.8</ele>
        <time>2022-10-07T06:58:48Z</time>
      </trkpt>
      <trkpt lat="43.09396" lon="-0.02686">
        <ele>435.8</ele>
        <time>2022-10-07T06:58:52Z</time>
      </trkpt>
      <trkpt lat="43.09396" lon="-0.02689">
        <ele>436.4</ele>
        <time>2022-10-07T06:58:54Z</time>
      </trkpt>
      <trkpt lat="43.09396" lon="-0.0269">
        <ele>437</ele>
        <time>2022-10-07T06:58:56Z</time>
      </trkpt>
      <trkpt lat="43.09396" lon="-0.02692">
        <ele>437.2</ele>
        <time>2022-10-07T06:58:57Z</time>
      </trkpt>
      <trkpt lat="43.09397" lon="-0.02698">
        <ele>438</ele>
        <time>2022-10-07T06:59:00Z</time>
      </trkpt>
      <trkpt lat="43.09397" lon="-0.02701">
        <ele>438.2</ele>
        <time>2022-10-07T06:59:01Z</time>
      </trkpt>
      <trkpt lat="43.09396" lon="-0.02707">
        <ele>438.8</ele>
        <time>2022-10-07T06:59:04Z</time>
      </trkpt>
      <trkpt lat="43.09395" lon="-0.0271">
        <ele>439.2</ele>
        <time>2022-10-07T06:59:06Z</time>
      </trkpt>
      <trkpt lat="43.09395" lon="-0.02714">
        <ele>439.8</ele>
        <time>2022-10-07T06:59:08Z</time>
      </trkpt>
      <trkpt lat="43.09393" lon="-0.02717">
        <ele>440.4</ele>
        <time>2022-10-07T06:59:10Z</time>
      </trkpt>
      <trkpt lat="43.09392" lon="-0.02723">
        <ele>441.6</ele>
        <time>2022-10-07T06:59:13Z</time>
      </trkpt>
      <trkpt lat="43.0939" lon="-0.02726">
        <ele>441.8</ele>
        <time>2022-10-07T06:59:15Z</time>
      </trkpt>
      <trkpt lat="43.09391" lon="-0.02735">
        <ele>442.8</ele>
        <time>2022-10-07T06:59:19Z</time>
      </trkpt>
      <trkpt lat="43.09392" lon="-0.02738">
        <ele>443</ele>
        <time>2022-10-07T06:59:20Z</time>
      </trkpt>
      <trkpt lat="43.09393" lon="-0.02745">
        <ele>443.8</ele>
        <time>2022-10-07T06:59:23Z</time>
      </trkpt>
      <trkpt lat="43.09393" lon="-0.02752">
        <ele>445.2</ele>
        <time>2022-10-07T06:59:26Z</time>
      </trkpt>
      <trkpt lat="43.09392" lon="-0.02755">
        <ele>445.4</ele>
        <time>2022-10-07T06:59:27Z</time>
      </trkpt>
      <trkpt lat="43.09391" lon="-0.0276">
        <ele>446.2</ele>
        <time>2022-10-07T06:59:30Z</time>
      </trkpt>
      <trkpt lat="43.0939" lon="-0.02762">
        <ele>446.6</ele>
        <time>2022-10-07T06:59:32Z</time>
      </trkpt>
      <trkpt lat="43.0939" lon="-0.02764">
        <ele>446.8</ele>
        <time>2022-10-07T06:59:33Z</time>
      </trkpt>
      <trkpt lat="43.0939" lon="-0.02767">
        <ele>447.2</ele>
        <time>2022-10-07T06:59:35Z</time>
      </trkpt>
      <trkpt lat="43.0939" lon="-0.02772">
        <ele>448.6</ele>
        <time>2022-10-07T06:59:39Z</time>
      </trkpt>
      <trkpt lat="43.0939" lon="-0.02773">
        <ele>448.8</ele>
        <time>2022-10-07T06:59:40Z</time>
      </trkpt>
      <trkpt lat="43.0939" lon="-0.02777">
        <ele>449.6</ele>
        <time>2022-10-07T06:59:43Z</time>
      </trkpt>
      <trkpt lat="43.09391" lon="-0.02781">
        <ele>450.2</ele>
        <time>2022-10-07T06:59:46Z</time>
      </trkpt>
      <trkpt lat="43.09392" lon="-0.02784">
        <ele>450.6</ele>
        <time>2022-10-07T06:59:47Z</time>
      </trkpt>
      <trkpt lat="43.09392" lon="-0.02789">
        <ele>451.6</ele>
        <time>2022-10-07T06:59:50Z</time>
      </trkpt>
      <trkpt lat="43.09392" lon="-0.02789">
        <ele>452.2</ele>
        <time>2022-10-07T06:59:51Z</time>
      </trkpt>
      <trkpt lat="43.09393" lon="-0.02793">
        <ele>453</ele>
        <time>2022-10-07T06:59:56Z</time>
      </trkpt>
      <trkpt lat="43.09393" lon="-0.02796">
        <ele>454.2</ele>
        <time>2022-10-07T07:00:00Z</time>
      </trkpt>
      <trkpt lat="43.09393" lon="-0.02799">
        <ele>454.8</ele>
        <time>2022-10-07T07:00:02Z</time>
      </trkpt>
      <trkpt lat="43.09392" lon="-0.02802">
        <ele>455.4</ele>
        <time>2022-10-07T07:00:04Z</time>
      </trkpt>
      <trkpt lat="43.09391" lon="-0.02806">
        <ele>456.6</ele>
        <time>2022-10-07T07:00:08Z</time>
      </trkpt>
      <trkpt lat="43.09391" lon="-0.02809">
        <ele>456.8</ele>
        <time>2022-10-07T07:00:09Z</time>
      </trkpt>
      <trkpt lat="43.09391" lon="-0.02815">
        <ele>457.8</ele>
        <time>2022-10-07T07:00:12Z</time>
      </trkpt>
      <trkpt lat="43.09388" lon="-0.02826">
        <ele>458.6</ele>
        <time>2022-10-07T07:00:16Z</time>
      </trkpt>
      <trkpt lat="43.09387" lon="-0.02828">
        <ele>459</ele>
        <time>2022-10-07T07:00:17Z</time>
      </trkpt>
      <trkpt lat="43.09385" lon="-0.02834">
        <ele>460</ele>
        <time>2022-10-07T07:00:21Z</time>
      </trkpt>
      <trkpt lat="43.09384" lon="-0.0284">
        <ele>461</ele>
        <time>2022-10-07T07:00:26Z</time>
      </trkpt>
      <trkpt lat="43.09383" lon="-0.02842">
        <ele>461.4</ele>
        <time>2022-10-07T07:00:27Z</time>
      </trkpt>
      <trkpt lat="43.0938" lon="-0.02857">
        <ele>462.6</ele>
        <time>2022-10-07T07:00:33Z</time>
      </trkpt>
      <trkpt lat="43.09377" lon="-0.02866">
        <ele>463.8</ele>
        <time>2022-10-07T07:00:38Z</time>
      </trkpt>
      <trkpt lat="43.09377" lon="-0.0287">
        <ele>464.2</ele>
        <time>2022-10-07T07:00:40Z</time>
      </trkpt>
      <trkpt lat="43.09375" lon="-0.02879">
        <ele>464.6</ele>
        <time>2022-10-07T07:00:44Z</time>
      </trkpt>
      <trkpt lat="43.09373" lon="-0.02885">
        <ele>465</ele>
        <time>2022-10-07T07:00:48Z</time>
      </trkpt>
      <trkpt lat="43.09372" lon="-0.02892">
        <ele>465.8</ele>
        <time>2022-10-07T07:00:52Z</time>
      </trkpt>
      <trkpt lat="43.09372" lon="-0.02896">
        <ele>466</ele>
        <time>2022-10-07T07:00:54Z</time>
      </trkpt>
      <trkpt lat="43.09371" lon="-0.02908">
        <ele>466.8</ele>
        <time>2022-10-07T07:00:59Z</time>
      </trkpt>
      <trkpt lat="43.09371" lon="-0.02911">
        <ele>466.8</ele>
        <time>2022-10-07T07:01:00Z</time>
      </trkpt>
      <trkpt lat="43.0937" lon="-0.0292">
        <ele>467.4</ele>
        <time>2022-10-07T07:01:06Z</time>
      </trkpt>
      <trkpt lat="43.09368" lon="-0.02923">
        <ele>468</ele>
        <time>2022-10-07T07:01:09Z</time>
      </trkpt>
      <trkpt lat="43.09368" lon="-0.02924">
        <ele>468</ele>
        <time>2022-10-07T07:01:10Z</time>
      </trkpt>
      <trkpt lat="43.09367" lon="-0.02927">
        <ele>468.6</ele>
        <time>2022-10-07T07:01:12Z</time>
      </trkpt>
      <trkpt lat="43.09366" lon="-0.02929">
        <ele>468.8</ele>
        <time>2022-10-07T07:01:13Z</time>
      </trkpt>
      <trkpt lat="43.09367" lon="-0.02932">
        <ele>469</ele>
        <time>2022-10-07T07:01:15Z</time>
      </trkpt>
      <trkpt lat="43.09367" lon="-0.02936">
        <ele>469.4</ele>
        <time>2022-10-07T07:01:19Z</time>
      </trkpt>
      <trkpt lat="43.09367" lon="-0.02936">
        <ele>469.8</ele>
        <time>2022-10-07T07:01:20Z</time>
      </trkpt>
      <trkpt lat="43.09366" lon="-0.02943">
        <ele>471</ele>
        <time>2022-10-07T07:01:26Z</time>
      </trkpt>
      <trkpt lat="43.09366" lon="-0.02944">
        <ele>471.2</ele>
        <time>2022-10-07T07:01:27Z</time>
      </trkpt>
      <trkpt lat="43.09363" lon="-0.02946">
        <ele>472</ele>
        <time>2022-10-07T07:01:30Z</time>
      </trkpt>
      <trkpt lat="43.09359" lon="-0.02945">
        <ele>472.8</ele>
        <time>2022-10-07T07:01:33Z</time>
      </trkpt>
      <trkpt lat="43.09355" lon="-0.02944">
        <ele>473.2</ele>
        <time>2022-10-07T07:01:36Z</time>
      </trkpt>
      <trkpt lat="43.0935" lon="-0.02942">
        <ele>473.8</ele>
        <time>2022-10-07T07:01:41Z</time>
      </trkpt>
      <trkpt lat="43.09344" lon="-0.02923">
        <ele>474.2</ele>
        <time>2022-10-07T07:01:47Z</time>
      </trkpt>
      <trkpt lat="43.09343" lon="-0.02918">
        <ele>474.2</ele>
        <time>2022-10-07T07:01:49Z</time>
      </trkpt>
      <trkpt lat="43.09342" lon="-0.02911">
        <ele>474.2</ele>
        <time>2022-10-07T07:01:51Z</time>
      </trkpt>
      <trkpt lat="43.09341" lon="-0.02908">
        <ele>474.2</ele>
        <time>2022-10-07T07:01:53Z</time>
      </trkpt>
      <trkpt lat="43.09342" lon="-0.02901">
        <ele>474.6</ele>
        <time>2022-10-07T07:01:57Z</time>
      </trkpt>
      <trkpt lat="43.09342" lon="-0.029">
        <ele>475</ele>
        <time>2022-10-07T07:01:58Z</time>
      </trkpt>
      <trkpt lat="43.09342" lon="-0.02898">
        <ele>475</ele>
        <time>2022-10-07T07:01:59Z</time>
      </trkpt>
      <trkpt lat="43.09344" lon="-0.02895">
        <ele>475.4</ele>
        <time>2022-10-07T07:02:00Z</time>
      </trkpt>
      <trkpt lat="43.09347" lon="-0.02883">
        <ele>476</ele>
        <time>2022-10-07T07:02:05Z</time>
      </trkpt>
      <trkpt lat="43.09346" lon="-0.02881">
        <ele>476.4</ele>
        <time>2022-10-07T07:02:06Z</time>
      </trkpt>
      <trkpt lat="43.09349" lon="-0.02865">
        <ele>477.2</ele>
        <time>2022-10-07T07:02:11Z</time>
      </trkpt>
      <trkpt lat="43.09349" lon="-0.02857">
        <ele>477.4</ele>
        <time>2022-10-07T07:02:13Z</time>
      </trkpt>
      <trkpt lat="43.09346" lon="-0.02849">
        <ele>477.8</ele>
        <time>2022-10-07T07:02:16Z</time>
      </trkpt>
      <trkpt lat="43.09345" lon="-0.02843">
        <ele>478</ele>
        <time>2022-10-07T07:02:18Z</time>
      </trkpt>
      <trkpt lat="43.09343" lon="-0.0284">
        <ele>478</ele>
        <time>2022-10-07T07:02:19Z</time>
      </trkpt>
      <trkpt lat="43.0934" lon="-0.02828">
        <ele>478.6</ele>
        <time>2022-10-07T07:02:23Z</time>
      </trkpt>
      <trkpt lat="43.09338" lon="-0.02822">
        <ele>478.8</ele>
        <time>2022-10-07T07:02:25Z</time>
      </trkpt>
      <trkpt lat="43.09336" lon="-0.02819">
        <ele>478.8</ele>
        <time>2022-10-07T07:02:26Z</time>
      </trkpt>
      <trkpt lat="43.09335" lon="-0.0281">
        <ele>479.2</ele>
        <time>2022-10-07T07:02:29Z</time>
      </trkpt>
      <trkpt lat="43.09336" lon="-0.02807">
        <ele>479.4</ele>
        <time>2022-10-07T07:02:30Z</time>
      </trkpt>
      <trkpt lat="43.09335" lon="-0.02804">
        <ele>479.4</ele>
        <time>2022-10-07T07:02:31Z</time>
      </trkpt>
      <trkpt lat="43.09334" lon="-0.02796">
        <ele>479.8</ele>
        <time>2022-10-07T07:02:34Z</time>
      </trkpt>
      <trkpt lat="43.09332" lon="-0.02793">
        <ele>480</ele>
        <time>2022-10-07T07:02:35Z</time>
      </trkpt>
      <trkpt lat="43.09331" lon="-0.0279">
        <ele>480.4</ele>
        <time>2022-10-07T07:02:36Z</time>
      </trkpt>
      <trkpt lat="43.09327" lon="-0.02785">
        <ele>480.6</ele>
        <time>2022-10-07T07:02:38Z</time>
      </trkpt>
      <trkpt lat="43.09327" lon="-0.02783">
        <ele>480.8</ele>
        <time>2022-10-07T07:02:40Z</time>
      </trkpt>
      <trkpt lat="43.09324" lon="-0.02782">
        <ele>481.2</ele>
        <time>2022-10-07T07:02:42Z</time>
      </trkpt>
      <trkpt lat="43.09322" lon="-0.02782">
        <ele>481.4</ele>
        <time>2022-10-07T07:02:43Z</time>
      </trkpt>
      <trkpt lat="43.09314" lon="-0.02787">
        <ele>482.4</ele>
        <time>2022-10-07T07:02:48Z</time>
      </trkpt>
      <trkpt lat="43.09314" lon="-0.02789">
        <ele>482.8</ele>
        <time>2022-10-07T07:02:49Z</time>
      </trkpt>
      <trkpt lat="43.0931" lon="-0.02797">
        <ele>483.6</ele>
        <time>2022-10-07T07:02:55Z</time>
      </trkpt>
      <trkpt lat="43.09308" lon="-0.02804">
        <ele>484.4</ele>
        <time>2022-10-07T07:03:00Z</time>
      </trkpt>
      <trkpt lat="43.09308" lon="-0.02806">
        <ele>484.8</ele>
        <time>2022-10-07T07:03:01Z</time>
      </trkpt>
      <trkpt lat="43.09308" lon="-0.02815">
        <ele>486.2</ele>
        <time>2022-10-07T07:03:06Z</time>
      </trkpt>
      <trkpt lat="43.09309" lon="-0.02816">
        <ele>486.6</ele>
        <time>2022-10-07T07:03:08Z</time>
      </trkpt>
      <trkpt lat="43.0931" lon="-0.02821">
        <ele>486.8</ele>
        <time>2022-10-07T07:03:09Z</time>
      </trkpt>
      <trkpt lat="43.09313" lon="-0.02828">
        <ele>487.4</ele>
        <time>2022-10-07T07:03:12Z</time>
      </trkpt>
      <trkpt lat="43.09315" lon="-0.02833">
        <ele>487.8</ele>
        <time>2022-10-07T07:03:14Z</time>
      </trkpt>
      <trkpt lat="43.09315" lon="-0.02836">
        <ele>487.8</ele>
        <time>2022-10-07T07:03:15Z</time>
      </trkpt>
      <trkpt lat="43.09314" lon="-0.02846">
        <ele>488.6</ele>
        <time>2022-10-07T07:03:18Z</time>
      </trkpt>
      <trkpt lat="43.09313" lon="-0.0285">
        <ele>488.8</ele>
        <time>2022-10-07T07:03:19Z</time>
      </trkpt>
      <trkpt lat="43.09303" lon="-0.02852">
        <ele>489.6</ele>
        <time>2022-10-07T07:03:24Z</time>
      </trkpt>
      <trkpt lat="43.09301" lon="-0.02851">
        <ele>489.8</ele>
        <time>2022-10-07T07:03:25Z</time>
      </trkpt>
      <trkpt lat="43.09295" lon="-0.02841">
        <ele>490</ele>
        <time>2022-10-07T07:03:29Z</time>
      </trkpt>
      <trkpt lat="43.09286" lon="-0.02832">
        <ele>490.6</ele>
        <time>2022-10-07T07:03:35Z</time>
      </trkpt>
      <trkpt lat="43.09284" lon="-0.0283">
        <ele>490.6</ele>
        <time>2022-10-07T07:03:36Z</time>
      </trkpt>
      <trkpt lat="43.09283" lon="-0.02828">
        <ele>490.8</ele>
        <time>2022-10-07T07:03:37Z</time>
      </trkpt>
      <trkpt lat="43.09278" lon="-0.02822">
        <ele>491.6</ele>
        <time>2022-10-07T07:03:41Z</time>
      </trkpt>
      <trkpt lat="43.09277" lon="-0.0282">
        <ele>492</ele>
        <time>2022-10-07T07:03:42Z</time>
      </trkpt>
      <trkpt lat="43.09277" lon="-0.02817">
        <ele>492.4</ele>
        <time>2022-10-07T07:03:44Z</time>
      </trkpt>
      <trkpt lat="43.09274" lon="-0.02809">
        <ele>493.4</ele>
        <time>2022-10-07T07:03:48Z</time>
      </trkpt>
      <trkpt lat="43.09274" lon="-0.02806">
        <ele>493.6</ele>
        <time>2022-10-07T07:03:49Z</time>
      </trkpt>
      <trkpt lat="43.09273" lon="-0.02799">
        <ele>494.4</ele>
        <time>2022-10-07T07:03:52Z</time>
      </trkpt>
      <trkpt lat="43.09273" lon="-0.02797">
        <ele>494.4</ele>
        <time>2022-10-07T07:03:53Z</time>
      </trkpt>
      <trkpt lat="43.09269" lon="-0.02784">
        <ele>494.8</ele>
        <time>2022-10-07T07:03:57Z</time>
      </trkpt>
      <trkpt lat="43.09267" lon="-0.0278">
        <ele>495.2</ele>
        <time>2022-10-07T07:03:59Z</time>
      </trkpt>
      <trkpt lat="43.09268" lon="-0.02778">
        <ele>495.6</ele>
        <time>2022-10-07T07:04:00Z</time>
      </trkpt>
      <trkpt lat="43.09264" lon="-0.02767">
        <ele>496.6</ele>
        <time>2022-10-07T07:04:04Z</time>
      </trkpt>
      <trkpt lat="43.09263" lon="-0.02765">
        <ele>497</ele>
        <time>2022-10-07T07:04:05Z</time>
      </trkpt>
      <trkpt lat="43.09264" lon="-0.02759">
        <ele>497.6</ele>
        <time>2022-10-07T07:04:08Z</time>
      </trkpt>
      <trkpt lat="43.09262" lon="-0.02752">
        <ele>498.4</ele>
        <time>2022-10-07T07:04:11Z</time>
      </trkpt>
      <trkpt lat="43.09259" lon="-0.02747">
        <ele>498.6</ele>
        <time>2022-10-07T07:04:13Z</time>
      </trkpt>
      <trkpt lat="43.09253" lon="-0.02733">
        <ele>499.8</ele>
        <time>2022-10-07T07:04:19Z</time>
      </trkpt>
      <trkpt lat="43.09251" lon="-0.02726">
        <ele>500.6</ele>
        <time>2022-10-07T07:04:23Z</time>
      </trkpt>
      <trkpt lat="43.0925" lon="-0.02724">
        <ele>500.8</ele>
        <time>2022-10-07T07:04:24Z</time>
      </trkpt>
      <trkpt lat="43.09249" lon="-0.02722">
        <ele>501</ele>
        <time>2022-10-07T07:04:26Z</time>
      </trkpt>
      <trkpt lat="43.09245" lon="-0.02715">
        <ele>502</ele>
        <time>2022-10-07T07:04:31Z</time>
      </trkpt>
      <trkpt lat="43.09245" lon="-0.02714">
        <ele>502.4</ele>
        <time>2022-10-07T07:04:32Z</time>
      </trkpt>
      <trkpt lat="43.09244" lon="-0.02711">
        <ele>503</ele>
        <time>2022-10-07T07:04:34Z</time>
      </trkpt>
      <trkpt lat="43.09245" lon="-0.0271">
        <ele>503.2</ele>
        <time>2022-10-07T07:04:35Z</time>
      </trkpt>
      <trkpt lat="43.09244" lon="-0.02706">
        <ele>504.4</ele>
        <time>2022-10-07T07:04:39Z</time>
      </trkpt>
      <trkpt lat="43.09243" lon="-0.02704">
        <ele>504.4</ele>
        <time>2022-10-07T07:04:40Z</time>
      </trkpt>
      <trkpt lat="43.09241" lon="-0.02698">
        <ele>505.4</ele>
        <time>2022-10-07T07:04:43Z</time>
      </trkpt>
      <trkpt lat="43.09238" lon="-0.02694">
        <ele>506.4</ele>
        <time>2022-10-07T07:04:47Z</time>
      </trkpt>
      <trkpt lat="43.09238" lon="-0.02692">
        <ele>506.6</ele>
        <time>2022-10-07T07:04:48Z</time>
      </trkpt>
      <trkpt lat="43.09233" lon="-0.02684">
        <ele>507.8</ele>
        <time>2022-10-07T07:04:53Z</time>
      </trkpt>
      <trkpt lat="43.09232" lon="-0.02682">
        <ele>508</ele>
        <time>2022-10-07T07:04:54Z</time>
      </trkpt>
      <trkpt lat="43.09231" lon="-0.0268">
        <ele>508.4</ele>
        <time>2022-10-07T07:04:56Z</time>
      </trkpt>
      <trkpt lat="43.0923" lon="-0.02678">
        <ele>508.6</ele>
        <time>2022-10-07T07:04:57Z</time>
      </trkpt>
      <trkpt lat="43.09226" lon="-0.02671">
        <ele>509.2</ele>
        <time>2022-10-07T07:05:00Z</time>
      </trkpt>
      <trkpt lat="43.09222" lon="-0.02665">
        <ele>509.6</ele>
        <time>2022-10-07T07:05:03Z</time>
      </trkpt>
      <trkpt lat="43.0922" lon="-0.02664">
        <ele>510</ele>
        <time>2022-10-07T07:05:05Z</time>
      </trkpt>
      <trkpt lat="43.09218" lon="-0.0266">
        <ele>510.4</ele>
        <time>2022-10-07T07:05:07Z</time>
      </trkpt>
      <trkpt lat="43.09217" lon="-0.02659">
        <ele>510.8</ele>
        <time>2022-10-07T07:05:08Z</time>
      </trkpt>
      <trkpt lat="43.09211" lon="-0.02646">
        <ele>511.8</ele>
        <time>2022-10-07T07:05:13Z</time>
      </trkpt>
      <trkpt lat="43.09207" lon="-0.02642">
        <ele>512.2</ele>
        <time>2022-10-07T07:05:15Z</time>
      </trkpt>
      <trkpt lat="43.09205" lon="-0.02638">
        <ele>512.8</ele>
        <time>2022-10-07T07:05:17Z</time>
      </trkpt>
      <trkpt lat="43.09204" lon="-0.02636">
        <ele>513</ele>
        <time>2022-10-07T07:05:18Z</time>
      </trkpt>
      <trkpt lat="43.09202" lon="-0.02633">
        <ele>513.4</ele>
        <time>2022-10-07T07:05:20Z</time>
      </trkpt>
      <trkpt lat="43.09202" lon="-0.02632">
        <ele>513.8</ele>
        <time>2022-10-07T07:05:22Z</time>
      </trkpt>
      <trkpt lat="43.09201" lon="-0.02632">
        <ele>514.2</ele>
        <time>2022-10-07T07:05:23Z</time>
      </trkpt>
      <trkpt lat="43.09195" lon="-0.02625">
        <ele>515.2</ele>
        <time>2022-10-07T07:05:29Z</time>
      </trkpt>
      <trkpt lat="43.0919" lon="-0.02623">
        <ele>516.2</ele>
        <time>2022-10-07T07:05:33Z</time>
      </trkpt>
      <trkpt lat="43.09189" lon="-0.02623">
        <ele>516.4</ele>
        <time>2022-10-07T07:05:34Z</time>
      </trkpt>
      <trkpt lat="43.09183" lon="-0.02622">
        <ele>517.4</ele>
        <time>2022-10-07T07:05:38Z</time>
      </trkpt>
      <trkpt lat="43.09178" lon="-0.02623">
        <ele>518.2</ele>
        <time>2022-10-07T07:05:42Z</time>
      </trkpt>
      <trkpt lat="43.09175" lon="-0.02624">
        <ele>518.4</ele>
        <time>2022-10-07T07:05:45Z</time>
      </trkpt>
      <trkpt lat="43.09173" lon="-0.02625">
        <ele>518.6</ele>
        <time>2022-10-07T07:05:46Z</time>
      </trkpt>
      <trkpt lat="43.0917" lon="-0.02628">
        <ele>519</ele>
        <time>2022-10-07T07:05:49Z</time>
      </trkpt>
      <trkpt lat="43.09163" lon="-0.02633">
        <ele>519.8</ele>
        <time>2022-10-07T07:05:54Z</time>
      </trkpt>
      <trkpt lat="43.09158" lon="-0.02635">
        <ele>520.8</ele>
        <time>2022-10-07T07:05:58Z</time>
      </trkpt>
      <trkpt lat="43.09156" lon="-0.02635">
        <ele>520.8</ele>
        <time>2022-10-07T07:05:59Z</time>
      </trkpt>
      <trkpt lat="43.09148" lon="-0.0264">
        <ele>522.2</ele>
        <time>2022-10-07T07:06:05Z</time>
      </trkpt>
      <trkpt lat="43.09147" lon="-0.0264">
        <ele>522.4</ele>
        <time>2022-10-07T07:06:06Z</time>
      </trkpt>
      <trkpt lat="43.09139" lon="-0.02645">
        <ele>523.4</ele>
        <time>2022-10-07T07:06:13Z</time>
      </trkpt>
      <trkpt lat="43.09138" lon="-0.02645">
        <ele>523.4</ele>
        <time>2022-10-07T07:06:14Z</time>
      </trkpt>
      <trkpt lat="43.09137" lon="-0.02646">
        <ele>523.8</ele>
        <time>2022-10-07T07:06:15Z</time>
      </trkpt>
      <trkpt lat="43.09134" lon="-0.02646">
        <ele>524.2</ele>
        <time>2022-10-07T07:06:17Z</time>
      </trkpt>
      <trkpt lat="43.09133" lon="-0.02646">
        <ele>524.4</ele>
        <time>2022-10-07T07:06:18Z</time>
      </trkpt>
      <trkpt lat="43.09132" lon="-0.02647">
        <ele>524.4</ele>
        <time>2022-10-07T07:06:19Z</time>
      </trkpt>
      <trkpt lat="43.09127" lon="-0.02649">
        <ele>525.4</ele>
        <time>2022-10-07T07:06:23Z</time>
      </trkpt>
      <trkpt lat="43.09123" lon="-0.02652">
        <ele>526.4</ele>
        <time>2022-10-07T07:06:27Z</time>
      </trkpt>
      <trkpt lat="43.09122" lon="-0.02652">
        <ele>526.6</ele>
        <time>2022-10-07T07:06:28Z</time>
      </trkpt>
      <trkpt lat="43.09115" lon="-0.02655">
        <ele>527.4</ele>
        <time>2022-10-07T07:06:33Z</time>
      </trkpt>
      <trkpt lat="43.09114" lon="-0.02655">
        <ele>527.6</ele>
        <time>2022-10-07T07:06:34Z</time>
      </trkpt>
      <trkpt lat="43.09112" lon="-0.02656">
        <ele>528</ele>
        <time>2022-10-07T07:06:35Z</time>
      </trkpt>
      <trkpt lat="43.09109" lon="-0.02658">
        <ele>528.6</ele>
        <time>2022-10-07T07:06:37Z</time>
      </trkpt>
      <trkpt lat="43.09108" lon="-0.02658">
        <ele>528.6</ele>
        <time>2022-10-07T07:06:38Z</time>
      </trkpt>
      <trkpt lat="43.09103" lon="-0.0266">
        <ele>529.2</ele>
        <time>2022-10-07T07:06:41Z</time>
      </trkpt>
      <trkpt lat="43.09102" lon="-0.02662">
        <ele>529.4</ele>
        <time>2022-10-07T07:06:42Z</time>
      </trkpt>
      <trkpt lat="43.09101" lon="-0.02662">
        <ele>529.6</ele>
        <time>2022-10-07T07:06:43Z</time>
      </trkpt>
      <trkpt lat="43.09096" lon="-0.02661">
        <ele>530.2</ele>
        <time>2022-10-07T07:06:45Z</time>
      </trkpt>
      <trkpt lat="43.09094" lon="-0.02662">
        <ele>530.4</ele>
        <time>2022-10-07T07:06:46Z</time>
      </trkpt>
      <trkpt lat="43.09091" lon="-0.02663">
        <ele>530.8</ele>
        <time>2022-10-07T07:06:48Z</time>
      </trkpt>
      <trkpt lat="43.09088" lon="-0.02658">
        <ele>531</ele>
        <time>2022-10-07T07:06:50Z</time>
      </trkpt>
      <trkpt lat="43.09088" lon="-0.02658">
        <ele>531.2</ele>
        <time>2022-10-07T07:06:51Z</time>
      </trkpt>
      <trkpt lat="43.09082" lon="-0.0266">
        <ele>532</ele>
        <time>2022-10-07T07:06:56Z</time>
      </trkpt>
      <trkpt lat="43.0908" lon="-0.0266">
        <ele>532.6</ele>
        <time>2022-10-07T07:06:58Z</time>
      </trkpt>
      <trkpt lat="43.09074" lon="-0.02661">
        <ele>533</ele>
        <time>2022-10-07T07:07:02Z</time>
      </trkpt>
      <trkpt lat="43.09072" lon="-0.02661">
        <ele>533.2</ele>
        <time>2022-10-07T07:07:03Z</time>
      </trkpt>
      <trkpt lat="43.09063" lon="-0.02659">
        <ele>534</ele>
        <time>2022-10-07T07:07:09Z</time>
      </trkpt>
      <trkpt lat="43.09062" lon="-0.0266">
        <ele>534.2</ele>
        <time>2022-10-07T07:07:10Z</time>
      </trkpt>
      <trkpt lat="43.09061" lon="-0.0266">
        <ele>534.4</ele>
        <time>2022-10-07T07:07:11Z</time>
      </trkpt>
      <trkpt lat="43.09059" lon="-0.02658">
        <ele>535</ele>
        <time>2022-10-07T07:07:13Z</time>
      </trkpt>
      <trkpt lat="43.09057" lon="-0.02654">
        <ele>535.2</ele>
        <time>2022-10-07T07:07:15Z</time>
      </trkpt>
      <trkpt lat="43.09055" lon="-0.02648">
        <ele>535.6</ele>
        <time>2022-10-07T07:07:18Z</time>
      </trkpt>
      <trkpt lat="43.09052" lon="-0.02643">
        <ele>536</ele>
        <time>2022-10-07T07:07:21Z</time>
      </trkpt>
      <trkpt lat="43.0905" lon="-0.02639">
        <ele>536.4</ele>
        <time>2022-10-07T07:07:24Z</time>
      </trkpt>
      <trkpt lat="43.09047" lon="-0.02633">
        <ele>536.6</ele>
        <time>2022-10-07T07:07:27Z</time>
      </trkpt>
      <trkpt lat="43.09045" lon="-0.02626">
        <ele>537.2</ele>
        <time>2022-10-07T07:07:31Z</time>
      </trkpt>
      <trkpt lat="43.09044" lon="-0.02623">
        <ele>537.2</ele>
        <time>2022-10-07T07:07:32Z</time>
      </trkpt>
      <trkpt lat="43.09043" lon="-0.02619">
        <ele>537.4</ele>
        <time>2022-10-07T07:07:34Z</time>
      </trkpt>
      <trkpt lat="43.09038" lon="-0.0261">
        <ele>537.6</ele>
        <time>2022-10-07T07:07:38Z</time>
      </trkpt>
      <trkpt lat="43.09035" lon="-0.02607">
        <ele>537.8</ele>
        <time>2022-10-07T07:07:40Z</time>
      </trkpt>
      <trkpt lat="43.09026" lon="-0.02601">
        <ele>538.2</ele>
        <time>2022-10-07T07:07:44Z</time>
      </trkpt>
      <trkpt lat="43.09021" lon="-0.02595">
        <ele>538.4</ele>
        <time>2022-10-07T07:07:47Z</time>
      </trkpt>
      <trkpt lat="43.09004" lon="-0.02582">
        <ele>539</ele>
        <time>2022-10-07T07:07:55Z</time>
      </trkpt>
      <trkpt lat="43.09003" lon="-0.02583">
        <ele>539</ele>
        <time>2022-10-07T07:07:56Z</time>
      </trkpt>
      <trkpt lat="43.08988" lon="-0.02587">
        <ele>539.4</ele>
        <time>2022-10-07T07:08:03Z</time>
      </trkpt>
      <trkpt lat="43.08967" lon="-0.02591">
        <ele>539.8</ele>
        <time>2022-10-07T07:08:11Z</time>
      </trkpt>
      <trkpt lat="43.08959" lon="-0.02592">
        <ele>540.2</ele>
        <time>2022-10-07T07:08:15Z</time>
      </trkpt>
      <trkpt lat="43.08949" lon="-0.02596">
        <ele>540.8</ele>
        <time>2022-10-07T07:08:21Z</time>
      </trkpt>
      <trkpt lat="43.08945" lon="-0.02597">
        <ele>541</ele>
        <time>2022-10-07T07:08:23Z</time>
      </trkpt>
      <trkpt lat="43.08938" lon="-0.02599">
        <ele>541.6</ele>
        <time>2022-10-07T07:08:27Z</time>
      </trkpt>
      <trkpt lat="43.08936" lon="-0.02599">
        <ele>542</ele>
        <time>2022-10-07T07:08:29Z</time>
      </trkpt>
      <trkpt lat="43.08929" lon="-0.026">
        <ele>543.2</ele>
        <time>2022-10-07T07:08:33Z</time>
      </trkpt>
      <trkpt lat="43.08927" lon="-0.02601">
        <ele>543.2</ele>
        <time>2022-10-07T07:08:34Z</time>
      </trkpt>
      <trkpt lat="43.08924" lon="-0.02602">
        <ele>543.4</ele>
        <time>2022-10-07T07:08:36Z</time>
      </trkpt>
      <trkpt lat="43.08918" lon="-0.02605">
        <ele>544.2</ele>
        <time>2022-10-07T07:08:39Z</time>
      </trkpt>
      <trkpt lat="43.08914" lon="-0.02606">
        <ele>544.4</ele>
        <time>2022-10-07T07:08:41Z</time>
      </trkpt>
      <trkpt lat="43.08904" lon="-0.0261">
        <ele>545.4</ele>
        <time>2022-10-07T07:08:46Z</time>
      </trkpt>
      <trkpt lat="43.08899" lon="-0.02611">
        <ele>546.2</ele>
        <time>2022-10-07T07:08:49Z</time>
      </trkpt>
      <trkpt lat="43.08898" lon="-0.02612">
        <ele>546.4</ele>
        <time>2022-10-07T07:08:50Z</time>
      </trkpt>
      <trkpt lat="43.08887" lon="-0.02614">
        <ele>547.6</ele>
        <time>2022-10-07T07:08:56Z</time>
      </trkpt>
      <trkpt lat="43.08885" lon="-0.02614">
        <ele>547.8</ele>
        <time>2022-10-07T07:08:57Z</time>
      </trkpt>
      <trkpt lat="43.08879" lon="-0.02616">
        <ele>548.6</ele>
        <time>2022-10-07T07:09:01Z</time>
      </trkpt>
      <trkpt lat="43.08873" lon="-0.02618">
        <ele>549.6</ele>
        <time>2022-10-07T07:09:06Z</time>
      </trkpt>
      <trkpt lat="43.08867" lon="-0.0262">
        <ele>550.8</ele>
        <time>2022-10-07T07:09:11Z</time>
      </trkpt>
      <trkpt lat="43.08864" lon="-0.02621">
        <ele>551.4</ele>
        <time>2022-10-07T07:09:13Z</time>
      </trkpt>
      <trkpt lat="43.08861" lon="-0.02622">
        <ele>552.2</ele>
        <time>2022-10-07T07:09:15Z</time>
      </trkpt>
      <trkpt lat="43.08858" lon="-0.02625">
        <ele>552.8</ele>
        <time>2022-10-07T07:09:18Z</time>
      </trkpt>
      <trkpt lat="43.08855" lon="-0.02626">
        <ele>553.4</ele>
        <time>2022-10-07T07:09:20Z</time>
      </trkpt>
      <trkpt lat="43.08847" lon="-0.02628">
        <ele>554.4</ele>
        <time>2022-10-07T07:09:25Z</time>
      </trkpt>
      <trkpt lat="43.08841" lon="-0.0263">
        <ele>555</ele>
        <time>2022-10-07T07:09:28Z</time>
      </trkpt>
      <trkpt lat="43.08832" lon="-0.02633">
        <ele>555.6</ele>
        <time>2022-10-07T07:09:33Z</time>
      </trkpt>
      <trkpt lat="43.08827" lon="-0.02633">
        <ele>555.6</ele>
        <time>2022-10-07T07:09:35Z</time>
      </trkpt>
      <trkpt lat="43.08817" lon="-0.02631">
        <ele>556.6</ele>
        <time>2022-10-07T07:09:40Z</time>
      </trkpt>
      <trkpt lat="43.08814" lon="-0.02625">
        <ele>556.8</ele>
        <time>2022-10-07T07:09:42Z</time>
      </trkpt>
      <trkpt lat="43.08812" lon="-0.02622">
        <ele>557</ele>
        <time>2022-10-07T07:09:43Z</time>
      </trkpt>
      <trkpt lat="43.08806" lon="-0.02617">
        <ele>557.6</ele>
        <time>2022-10-07T07:09:47Z</time>
      </trkpt>
      <trkpt lat="43.08799" lon="-0.02614">
        <ele>558.8</ele>
        <time>2022-10-07T07:09:52Z</time>
      </trkpt>
      <trkpt lat="43.08797" lon="-0.02613">
        <ele>559.2</ele>
        <time>2022-10-07T07:09:53Z</time>
      </trkpt>
      <trkpt lat="43.0879" lon="-0.0261">
        <ele>559.8</ele>
        <time>2022-10-07T07:09:57Z</time>
      </trkpt>
      <trkpt lat="43.08788" lon="-0.0261">
        <ele>560</ele>
        <time>2022-10-07T07:09:58Z</time>
      </trkpt>
      <trkpt lat="43.08782" lon="-0.02611">
        <ele>560.4</ele>
        <time>2022-10-07T07:10:02Z</time>
      </trkpt>
      <trkpt lat="43.0878" lon="-0.02612">
        <ele>560.4</ele>
        <time>2022-10-07T07:10:04Z</time>
      </trkpt>
      <trkpt lat="43.08779" lon="-0.02613">
        <ele>560.6</ele>
        <time>2022-10-07T07:10:05Z</time>
      </trkpt>
      <trkpt lat="43.08779" lon="-0.02614">
        <ele>561</ele>
        <time>2022-10-07T07:10:07Z</time>
      </trkpt>
      <trkpt lat="43.08778" lon="-0.02616">
        <ele>561.4</ele>
        <time>2022-10-07T07:10:09Z</time>
      </trkpt>
      <trkpt lat="43.08779" lon="-0.02619">
        <ele>561.6</ele>
        <time>2022-10-07T07:10:12Z</time>
      </trkpt>
      <trkpt lat="43.0878" lon="-0.02623">
        <ele>562</ele>
        <time>2022-10-07T07:10:14Z</time>
      </trkpt>
      <trkpt lat="43.08781" lon="-0.02625">
        <ele>562</ele>
        <time>2022-10-07T07:10:15Z</time>
      </trkpt>
      <trkpt lat="43.08781" lon="-0.02626">
        <ele>562.2</ele>
        <time>2022-10-07T07:10:16Z</time>
      </trkpt>
      <trkpt lat="43.08784" lon="-0.02631">
        <ele>563.2</ele>
        <time>2022-10-07T07:10:20Z</time>
      </trkpt>
      <trkpt lat="43.08786" lon="-0.02634">
        <ele>563.6</ele>
        <time>2022-10-07T07:10:22Z</time>
      </trkpt>
      <trkpt lat="43.08788" lon="-0.02636">
        <ele>563.8</ele>
        <time>2022-10-07T07:10:23Z</time>
      </trkpt>
      <trkpt lat="43.08791" lon="-0.02638">
        <ele>564.2</ele>
        <time>2022-10-07T07:10:25Z</time>
      </trkpt>
      <trkpt lat="43.08793" lon="-0.02638">
        <ele>564.4</ele>
        <time>2022-10-07T07:10:26Z</time>
      </trkpt>
      <trkpt lat="43.08794" lon="-0.02639">
        <ele>564.4</ele>
        <time>2022-10-07T07:10:27Z</time>
      </trkpt>
      <trkpt lat="43.08801" lon="-0.02645">
        <ele>565.4</ele>
        <time>2022-10-07T07:10:32Z</time>
      </trkpt>
      <trkpt lat="43.08802" lon="-0.02647">
        <ele>565.6</ele>
        <time>2022-10-07T07:10:33Z</time>
      </trkpt>
      <trkpt lat="43.08807" lon="-0.02649">
        <ele>565.8</ele>
        <time>2022-10-07T07:10:35Z</time>
      </trkpt>
      <trkpt lat="43.0881" lon="-0.02652">
        <ele>565.8</ele>
        <time>2022-10-07T07:10:36Z</time>
      </trkpt>
      <trkpt lat="43.08821" lon="-0.02667">
        <ele>566.2</ele>
        <time>2022-10-07T07:10:41Z</time>
      </trkpt>
      <trkpt lat="43.08823" lon="-0.0267">
        <ele>566.6</ele>
        <time>2022-10-07T07:10:42Z</time>
      </trkpt>
      <trkpt lat="43.08839" lon="-0.02683">
        <ele>567</ele>
        <time>2022-10-07T07:10:48Z</time>
      </trkpt>
      <trkpt lat="43.08848" lon="-0.02695">
        <ele>567.4</ele>
        <time>2022-10-07T07:10:52Z</time>
      </trkpt>
      <trkpt lat="43.0885" lon="-0.02699">
        <ele>567.6</ele>
        <time>2022-10-07T07:10:54Z</time>
      </trkpt>
      <trkpt lat="43.0885" lon="-0.02705">
        <ele>568</ele>
        <time>2022-10-07T07:10:56Z</time>
      </trkpt>
      <trkpt lat="43.08852" lon="-0.0271">
        <ele>568.4</ele>
        <time>2022-10-07T07:10:58Z</time>
      </trkpt>
      <trkpt lat="43.08852" lon="-0.02712">
        <ele>568.4</ele>
        <time>2022-10-07T07:10:59Z</time>
      </trkpt>
      <trkpt lat="43.08852" lon="-0.0273">
        <ele>569.4</ele>
        <time>2022-10-07T07:11:06Z</time>
      </trkpt>
      <trkpt lat="43.08851" lon="-0.02734">
        <ele>569.6</ele>
        <time>2022-10-07T07:11:08Z</time>
      </trkpt>
      <trkpt lat="43.08852" lon="-0.02742">
        <ele>570.4</ele>
        <time>2022-10-07T07:11:11Z</time>
      </trkpt>
      <trkpt lat="43.08853" lon="-0.02751">
        <ele>571.4</ele>
        <time>2022-10-07T07:11:15Z</time>
      </trkpt>
      <trkpt lat="43.08854" lon="-0.02753">
        <ele>571.4</ele>
        <time>2022-10-07T07:11:16Z</time>
      </trkpt>
      <trkpt lat="43.08854" lon="-0.02756">
        <ele>571.8</ele>
        <time>2022-10-07T07:11:17Z</time>
      </trkpt>
      <trkpt lat="43.08852" lon="-0.02763">
        <ele>572.6</ele>
        <time>2022-10-07T07:11:20Z</time>
      </trkpt>
      <trkpt lat="43.08851" lon="-0.02767">
        <ele>572.8</ele>
        <time>2022-10-07T07:11:22Z</time>
      </trkpt>
      <trkpt lat="43.08849" lon="-0.02775">
        <ele>573.6</ele>
        <time>2022-10-07T07:11:26Z</time>
      </trkpt>
      <trkpt lat="43.08848" lon="-0.02779">
        <ele>574</ele>
        <time>2022-10-07T07:11:28Z</time>
      </trkpt>
      <trkpt lat="43.08846" lon="-0.02786">
        <ele>574.6</ele>
        <time>2022-10-07T07:11:32Z</time>
      </trkpt>
      <trkpt lat="43.08846" lon="-0.02789">
        <ele>575</ele>
        <time>2022-10-07T07:11:34Z</time>
      </trkpt>
      <trkpt lat="43.08845" lon="-0.02791">
        <ele>575.2</ele>
        <time>2022-10-07T07:11:35Z</time>
      </trkpt>
      <trkpt lat="43.08844" lon="-0.02798">
        <ele>575.6</ele>
        <time>2022-10-07T07:11:37Z</time>
      </trkpt>
      <trkpt lat="43.08843" lon="-0.02802">
        <ele>576</ele>
        <time>2022-10-07T07:11:39Z</time>
      </trkpt>
      <trkpt lat="43.08842" lon="-0.02812">
        <ele>576.4</ele>
        <time>2022-10-07T07:11:43Z</time>
      </trkpt>
      <trkpt lat="43.0884" lon="-0.0282">
        <ele>576.6</ele>
        <time>2022-10-07T07:11:45Z</time>
      </trkpt>
      <trkpt lat="43.08839" lon="-0.02823">
        <ele>576.8</ele>
        <time>2022-10-07T07:11:46Z</time>
      </trkpt>
      <trkpt lat="43.08839" lon="-0.02826">
        <ele>577</ele>
        <time>2022-10-07T07:11:47Z</time>
      </trkpt>
      <trkpt lat="43.08839" lon="-0.02838">
        <ele>577.4</ele>
        <time>2022-10-07T07:11:50Z</time>
      </trkpt>
      <trkpt lat="43.0884" lon="-0.02845">
        <ele>578</ele>
        <time>2022-10-07T07:11:53Z</time>
      </trkpt>
      <trkpt lat="43.08841" lon="-0.02852">
        <ele>578.2</ele>
        <time>2022-10-07T07:11:56Z</time>
      </trkpt>
      <trkpt lat="43.0884" lon="-0.02854">
        <ele>578.2</ele>
        <time>2022-10-07T07:11:57Z</time>
      </trkpt>
      <trkpt lat="43.08843" lon="-0.02873">
        <ele>579</ele>
        <time>2022-10-07T07:12:02Z</time>
      </trkpt>
      <trkpt lat="43.0884" lon="-0.02895">
        <ele>579.2</ele>
        <time>2022-10-07T07:12:08Z</time>
      </trkpt>
      <trkpt lat="43.0884" lon="-0.02924">
        <ele>579.4</ele>
        <time>2022-10-07T07:12:16Z</time>
      </trkpt>
      <trkpt lat="43.08837" lon="-0.02934">
        <ele>579.8</ele>
        <time>2022-10-07T07:12:21Z</time>
      </trkpt>
      <trkpt lat="43.08828" lon="-0.02942">
        <ele>580.2</ele>
        <time>2022-10-07T07:12:27Z</time>
      </trkpt>
      <trkpt lat="43.08825" lon="-0.02942">
        <ele>580.6</ele>
        <time>2022-10-07T07:12:29Z</time>
      </trkpt>
      <trkpt lat="43.08822" lon="-0.02941">
        <ele>580.8</ele>
        <time>2022-10-07T07:12:31Z</time>
      </trkpt>
      <trkpt lat="43.08821" lon="-0.02937">
        <ele>581.2</ele>
        <time>2022-10-07T07:12:33Z</time>
      </trkpt>
      <trkpt lat="43.08817" lon="-0.02928">
        <ele>581.6</ele>
        <time>2022-10-07T07:12:37Z</time>
      </trkpt>
      <trkpt lat="43.08817" lon="-0.02911">
        <ele>582.6</ele>
        <time>2022-10-07T07:12:43Z</time>
      </trkpt>
      <trkpt lat="43.08817" lon="-0.0291">
        <ele>582.8</ele>
        <time>2022-10-07T07:12:44Z</time>
      </trkpt>
      <trkpt lat="43.08816" lon="-0.02902">
        <ele>583.2</ele>
        <time>2022-10-07T07:12:48Z</time>
      </trkpt>
      <trkpt lat="43.08814" lon="-0.02897">
        <ele>583.6</ele>
        <time>2022-10-07T07:12:50Z</time>
      </trkpt>
      <trkpt lat="43.08814" lon="-0.02894">
        <ele>583.6</ele>
        <time>2022-10-07T07:12:51Z</time>
      </trkpt>
      <trkpt lat="43.08811" lon="-0.02884">
        <ele>583.8</ele>
        <time>2022-10-07T07:12:54Z</time>
      </trkpt>
      <trkpt lat="43.08808" lon="-0.02866">
        <ele>584.8</ele>
        <time>2022-10-07T07:12:59Z</time>
      </trkpt>
      <trkpt lat="43.08805" lon="-0.02858">
        <ele>584.8</ele>
        <time>2022-10-07T07:13:00Z</time>
      </trkpt>
      <trkpt lat="43.08807" lon="-0.02837">
        <ele>585.6</ele>
        <time>2022-10-07T07:13:05Z</time>
      </trkpt>
      <trkpt lat="43.08809" lon="-0.02833">
        <ele>585.6</ele>
        <time>2022-10-07T07:13:06Z</time>
      </trkpt>
      <trkpt lat="43.0881" lon="-0.02829">
        <ele>585.8</ele>
        <time>2022-10-07T07:13:08Z</time>
      </trkpt>
      <trkpt lat="43.0881" lon="-0.02826">
        <ele>586</ele>
        <time>2022-10-07T07:13:09Z</time>
      </trkpt>
      <trkpt lat="43.08811" lon="-0.02825">
        <ele>586</ele>
        <time>2022-10-07T07:13:10Z</time>
      </trkpt>
      <trkpt lat="43.0881" lon="-0.02819">
        <ele>586.8</ele>
        <time>2022-10-07T07:13:13Z</time>
      </trkpt>
      <trkpt lat="43.08809" lon="-0.02817">
        <ele>586.8</ele>
        <time>2022-10-07T07:13:14Z</time>
      </trkpt>
      <trkpt lat="43.08806" lon="-0.02815">
        <ele>586.8</ele>
        <time>2022-10-07T07:13:15Z</time>
      </trkpt>
      <trkpt lat="43.08804" lon="-0.02808">
        <ele>587.2</ele>
        <time>2022-10-07T07:13:17Z</time>
      </trkpt>
      <trkpt lat="43.08803" lon="-0.02806">
        <ele>587.4</ele>
        <time>2022-10-07T07:13:18Z</time>
      </trkpt>
      <trkpt lat="43.08805" lon="-0.02804">
        <ele>587.6</ele>
        <time>2022-10-07T07:13:19Z</time>
      </trkpt>
      <trkpt lat="43.08805" lon="-0.02802">
        <ele>588</ele>
        <time>2022-10-07T07:13:20Z</time>
      </trkpt>
      <trkpt lat="43.088" lon="-0.02791">
        <ele>589</ele>
        <time>2022-10-07T07:13:24Z</time>
      </trkpt>
      <trkpt lat="43.088" lon="-0.02787">
        <ele>589</ele>
        <time>2022-10-07T07:13:25Z</time>
      </trkpt>
      <trkpt lat="43.08794" lon="-0.02781">
        <ele>589.8</ele>
        <time>2022-10-07T07:13:30Z</time>
      </trkpt>
      <trkpt lat="43.08792" lon="-0.02781">
        <ele>590</ele>
        <time>2022-10-07T07:13:31Z</time>
      </trkpt>
      <trkpt lat="43.08788" lon="-0.02782">
        <ele>590.4</ele>
        <time>2022-10-07T07:13:33Z</time>
      </trkpt>
      <trkpt lat="43.0878" lon="-0.02776">
        <ele>591.4</ele>
        <time>2022-10-07T07:13:39Z</time>
      </trkpt>
      <trkpt lat="43.08776" lon="-0.02774">
        <ele>591.4</ele>
        <time>2022-10-07T07:13:40Z</time>
      </trkpt>
      <trkpt lat="43.08772" lon="-0.02771">
        <ele>591.8</ele>
        <time>2022-10-07T07:13:43Z</time>
      </trkpt>
      <trkpt lat="43.08771" lon="-0.02769">
        <ele>592.2</ele>
        <time>2022-10-07T07:13:44Z</time>
      </trkpt>
      <trkpt lat="43.0877" lon="-0.02767">
        <ele>592.6</ele>
        <time>2022-10-07T07:13:45Z</time>
      </trkpt>
      <trkpt lat="43.08766" lon="-0.02764">
        <ele>593</ele>
        <time>2022-10-07T07:13:48Z</time>
      </trkpt>
      <trkpt lat="43.08765" lon="-0.02762">
        <ele>593.2</ele>
        <time>2022-10-07T07:13:49Z</time>
      </trkpt>
      <trkpt lat="43.08761" lon="-0.02759">
        <ele>593.6</ele>
        <time>2022-10-07T07:13:51Z</time>
      </trkpt>
      <trkpt lat="43.08757" lon="-0.0275">
        <ele>594.6</ele>
        <time>2022-10-07T07:13:55Z</time>
      </trkpt>
      <trkpt lat="43.08755" lon="-0.02748">
        <ele>594.8</ele>
        <time>2022-10-07T07:13:56Z</time>
      </trkpt>
      <trkpt lat="43.08754" lon="-0.02747">
        <ele>594.8</ele>
        <time>2022-10-07T07:13:57Z</time>
      </trkpt>
      <trkpt lat="43.08745" lon="-0.02738">
        <ele>595.4</ele>
        <time>2022-10-07T07:14:01Z</time>
      </trkpt>
      <trkpt lat="43.08742" lon="-0.02738">
        <ele>595.8</ele>
        <time>2022-10-07T07:14:02Z</time>
      </trkpt>
      <trkpt lat="43.08741" lon="-0.02738">
        <ele>596</ele>
        <time>2022-10-07T07:14:03Z</time>
      </trkpt>
      <trkpt lat="43.0874" lon="-0.0274">
        <ele>596.2</ele>
        <time>2022-10-07T07:14:05Z</time>
      </trkpt>
      <trkpt lat="43.0874" lon="-0.02741">
        <ele>596.4</ele>
        <time>2022-10-07T07:14:06Z</time>
      </trkpt>
      <trkpt lat="43.08741" lon="-0.02743">
        <ele>596.8</ele>
        <time>2022-10-07T07:14:08Z</time>
      </trkpt>
      <trkpt lat="43.08742" lon="-0.02744">
        <ele>596.8</ele>
        <time>2022-10-07T07:14:09Z</time>
      </trkpt>
      <trkpt lat="43.08745" lon="-0.02746">
        <ele>597.2</ele>
        <time>2022-10-07T07:14:11Z</time>
      </trkpt>
      <trkpt lat="43.08745" lon="-0.02747">
        <ele>597.4</ele>
        <time>2022-10-07T07:14:12Z</time>
      </trkpt>
      <trkpt lat="43.08748" lon="-0.02752">
        <ele>597.6</ele>
        <time>2022-10-07T07:14:16Z</time>
      </trkpt>
      <trkpt lat="43.0875" lon="-0.02756">
        <ele>598.2</ele>
        <time>2022-10-07T07:14:18Z</time>
      </trkpt>
      <trkpt lat="43.08752" lon="-0.02761">
        <ele>598.8</ele>
        <time>2022-10-07T07:14:21Z</time>
      </trkpt>
      <trkpt lat="43.08755" lon="-0.02772">
        <ele>599.8</ele>
        <time>2022-10-07T07:14:26Z</time>
      </trkpt>
      <trkpt lat="43.08756" lon="-0.02774">
        <ele>600</ele>
        <time>2022-10-07T07:14:27Z</time>
      </trkpt>
      <trkpt lat="43.08758" lon="-0.02779">
        <ele>600.2</ele>
        <time>2022-10-07T07:14:29Z</time>
      </trkpt>
      <trkpt lat="43.0876" lon="-0.02787">
        <ele>600.8</ele>
        <time>2022-10-07T07:14:32Z</time>
      </trkpt>
      <trkpt lat="43.08761" lon="-0.02792">
        <ele>601</ele>
        <time>2022-10-07T07:14:34Z</time>
      </trkpt>
      <trkpt lat="43.08764" lon="-0.02802">
        <ele>601.4</ele>
        <time>2022-10-07T07:14:38Z</time>
      </trkpt>
      <trkpt lat="43.08766" lon="-0.02811">
        <ele>602</ele>
        <time>2022-10-07T07:14:41Z</time>
      </trkpt>
      <trkpt lat="43.08765" lon="-0.02813">
        <ele>602.4</ele>
        <time>2022-10-07T07:14:42Z</time>
      </trkpt>
      <trkpt lat="43.08766" lon="-0.02816">
        <ele>602.6</ele>
        <time>2022-10-07T07:14:43Z</time>
      </trkpt>
      <trkpt lat="43.08767" lon="-0.0282">
        <ele>603</ele>
        <time>2022-10-07T07:14:45Z</time>
      </trkpt>
      <trkpt lat="43.08769" lon="-0.02825">
        <ele>603.4</ele>
        <time>2022-10-07T07:14:47Z</time>
      </trkpt>
      <trkpt lat="43.08769" lon="-0.02837">
        <ele>604</ele>
        <time>2022-10-07T07:14:51Z</time>
      </trkpt>
      <trkpt lat="43.08769" lon="-0.02841">
        <ele>604</ele>
        <time>2022-10-07T07:14:52Z</time>
      </trkpt>
      <trkpt lat="43.08769" lon="-0.02846">
        <ele>604.6</ele>
        <time>2022-10-07T07:14:54Z</time>
      </trkpt>
      <trkpt lat="43.08769" lon="-0.02852">
        <ele>605.4</ele>
        <time>2022-10-07T07:14:57Z</time>
      </trkpt>
      <trkpt lat="43.08766" lon="-0.02859">
        <ele>605.6</ele>
        <time>2022-10-07T07:14:59Z</time>
      </trkpt>
      <trkpt lat="43.08765" lon="-0.02861">
        <ele>605.8</ele>
        <time>2022-10-07T07:15:00Z</time>
      </trkpt>
      <trkpt lat="43.08762" lon="-0.0287">
        <ele>607</ele>
        <time>2022-10-07T07:15:05Z</time>
      </trkpt>
      <trkpt lat="43.08763" lon="-0.02879">
        <ele>608.2</ele>
        <time>2022-10-07T07:15:10Z</time>
      </trkpt>
      <trkpt lat="43.08762" lon="-0.02882">
        <ele>608.2</ele>
        <time>2022-10-07T07:15:11Z</time>
      </trkpt>
      <trkpt lat="43.08762" lon="-0.02884">
        <ele>608.6</ele>
        <time>2022-10-07T07:15:12Z</time>
      </trkpt>
      <trkpt lat="43.08762" lon="-0.02887">
        <ele>609</ele>
        <time>2022-10-07T07:15:14Z</time>
      </trkpt>
      <trkpt lat="43.08762" lon="-0.02889">
        <ele>609.4</ele>
        <time>2022-10-07T07:15:16Z</time>
      </trkpt>
      <trkpt lat="43.08765" lon="-0.02896">
        <ele>610</ele>
        <time>2022-10-07T07:15:19Z</time>
      </trkpt>
      <trkpt lat="43.08765" lon="-0.02906">
        <ele>610.8</ele>
        <time>2022-10-07T07:15:22Z</time>
      </trkpt>
      <trkpt lat="43.08766" lon="-0.02912">
        <ele>611.2</ele>
        <time>2022-10-07T07:15:24Z</time>
      </trkpt>
      <trkpt lat="43.08764" lon="-0.02918">
        <ele>612</ele>
        <time>2022-10-07T07:15:27Z</time>
      </trkpt>
      <trkpt lat="43.08763" lon="-0.02921">
        <ele>612.2</ele>
        <time>2022-10-07T07:15:28Z</time>
      </trkpt>
      <trkpt lat="43.08762" lon="-0.02923">
        <ele>612.6</ele>
        <time>2022-10-07T07:15:29Z</time>
      </trkpt>
      <trkpt lat="43.08761" lon="-0.0293">
        <ele>613</ele>
        <time>2022-10-07T07:15:31Z</time>
      </trkpt>
      <trkpt lat="43.08762" lon="-0.02932">
        <ele>613</ele>
        <time>2022-10-07T07:15:32Z</time>
      </trkpt>
      <trkpt lat="43.0876" lon="-0.02935">
        <ele>613.4</ele>
        <time>2022-10-07T07:15:33Z</time>
      </trkpt>
      <trkpt lat="43.08759" lon="-0.02941">
        <ele>613.8</ele>
        <time>2022-10-07T07:15:36Z</time>
      </trkpt>
      <trkpt lat="43.08759" lon="-0.02943">
        <ele>614.2</ele>
        <time>2022-10-07T07:15:38Z</time>
      </trkpt>
      <trkpt lat="43.08759" lon="-0.02944">
        <ele>614.6</ele>
        <time>2022-10-07T07:15:39Z</time>
      </trkpt>
      <trkpt lat="43.08758" lon="-0.02951">
        <ele>615.4</ele>
        <time>2022-10-07T07:15:43Z</time>
      </trkpt>
      <trkpt lat="43.08757" lon="-0.02953">
        <ele>615.6</ele>
        <time>2022-10-07T07:15:44Z</time>
      </trkpt>
      <trkpt lat="43.08758" lon="-0.02955">
        <ele>616</ele>
        <time>2022-10-07T07:15:45Z</time>
      </trkpt>
      <trkpt lat="43.08759" lon="-0.0296">
        <ele>616.8</ele>
        <time>2022-10-07T07:15:49Z</time>
      </trkpt>
      <trkpt lat="43.0876" lon="-0.02961">
        <ele>617</ele>
        <time>2022-10-07T07:15:50Z</time>
      </trkpt>
      <trkpt lat="43.0876" lon="-0.02963">
        <ele>617.4</ele>
        <time>2022-10-07T07:15:52Z</time>
      </trkpt>
      <trkpt lat="43.08761" lon="-0.02967">
        <ele>618</ele>
        <time>2022-10-07T07:15:54Z</time>
      </trkpt>
      <trkpt lat="43.08761" lon="-0.02969">
        <ele>618.2</ele>
        <time>2022-10-07T07:15:55Z</time>
      </trkpt>
      <trkpt lat="43.08763" lon="-0.02973">
        <ele>618.6</ele>
        <time>2022-10-07T07:15:57Z</time>
      </trkpt>
      <trkpt lat="43.08766" lon="-0.02979">
        <ele>619</ele>
        <time>2022-10-07T07:15:59Z</time>
      </trkpt>
      <trkpt lat="43.08767" lon="-0.02981">
        <ele>619.2</ele>
        <time>2022-10-07T07:16:00Z</time>
      </trkpt>
      <trkpt lat="43.08771" lon="-0.0299">
        <ele>620.2</ele>
        <time>2022-10-07T07:16:04Z</time>
      </trkpt>
      <trkpt lat="43.08776" lon="-0.02999">
        <ele>620.8</ele>
        <time>2022-10-07T07:16:07Z</time>
      </trkpt>
      <trkpt lat="43.08777" lon="-0.03001">
        <ele>621</ele>
        <time>2022-10-07T07:16:08Z</time>
      </trkpt>
      <trkpt lat="43.08779" lon="-0.03007">
        <ele>621.6</ele>
        <time>2022-10-07T07:16:11Z</time>
      </trkpt>
      <trkpt lat="43.08779" lon="-0.03009">
        <ele>621.8</ele>
        <time>2022-10-07T07:16:12Z</time>
      </trkpt>
      <trkpt lat="43.08781" lon="-0.03021">
        <ele>622.8</ele>
        <time>2022-10-07T07:16:17Z</time>
      </trkpt>
      <trkpt lat="43.08781" lon="-0.03024">
        <ele>623.2</ele>
        <time>2022-10-07T07:16:19Z</time>
      </trkpt>
      <trkpt lat="43.08781" lon="-0.0303">
        <ele>624.2</ele>
        <time>2022-10-07T07:16:23Z</time>
      </trkpt>
      <trkpt lat="43.08781" lon="-0.03034">
        <ele>624.8</ele>
        <time>2022-10-07T07:16:26Z</time>
      </trkpt>
      <trkpt lat="43.08782" lon="-0.03038">
        <ele>625.2</ele>
        <time>2022-10-07T07:16:28Z</time>
      </trkpt>
      <trkpt lat="43.08782" lon="-0.0304">
        <ele>625.6</ele>
        <time>2022-10-07T07:16:30Z</time>
      </trkpt>
      <trkpt lat="43.08781" lon="-0.03043">
        <ele>626.2</ele>
        <time>2022-10-07T07:16:32Z</time>
      </trkpt>
      <trkpt lat="43.08781" lon="-0.03045">
        <ele>626.2</ele>
        <time>2022-10-07T07:16:33Z</time>
      </trkpt>
      <trkpt lat="43.08779" lon="-0.03055">
        <ele>627.2</ele>
        <time>2022-10-07T07:16:37Z</time>
      </trkpt>
      <trkpt lat="43.08779" lon="-0.03059">
        <ele>627.4</ele>
        <time>2022-10-07T07:16:38Z</time>
      </trkpt>
      <trkpt lat="43.08779" lon="-0.03066">
        <ele>628.2</ele>
        <time>2022-10-07T07:16:42Z</time>
      </trkpt>
      <trkpt lat="43.0878" lon="-0.03068">
        <ele>628.4</ele>
        <time>2022-10-07T07:16:43Z</time>
      </trkpt>
      <trkpt lat="43.08784" lon="-0.0308">
        <ele>629.6</ele>
        <time>2022-10-07T07:16:47Z</time>
      </trkpt>
      <trkpt lat="43.08786" lon="-0.03083">
        <ele>629.8</ele>
        <time>2022-10-07T07:16:48Z</time>
      </trkpt>
      <trkpt lat="43.08789" lon="-0.03086">
        <ele>630.2</ele>
        <time>2022-10-07T07:16:50Z</time>
      </trkpt>
      <trkpt lat="43.08791" lon="-0.0309">
        <ele>630.4</ele>
        <time>2022-10-07T07:16:53Z</time>
      </trkpt>
      <trkpt lat="43.08793" lon="-0.03091">
        <ele>630.6</ele>
        <time>2022-10-07T07:16:54Z</time>
      </trkpt>
      <trkpt lat="43.08796" lon="-0.0309">
        <ele>630.8</ele>
        <time>2022-10-07T07:16:56Z</time>
      </trkpt>
      <trkpt lat="43.08797" lon="-0.0309">
        <ele>631.2</ele>
        <time>2022-10-07T07:16:57Z</time>
      </trkpt>
      <trkpt lat="43.088" lon="-0.03088">
        <ele>631.6</ele>
        <time>2022-10-07T07:16:59Z</time>
      </trkpt>
      <trkpt lat="43.08804" lon="-0.03084">
        <ele>632.4</ele>
        <time>2022-10-07T07:17:02Z</time>
      </trkpt>
      <trkpt lat="43.08807" lon="-0.03084">
        <ele>633</ele>
        <time>2022-10-07T07:17:04Z</time>
      </trkpt>
      <trkpt lat="43.0882" lon="-0.03081">
        <ele>634</ele>
        <time>2022-10-07T07:17:11Z</time>
      </trkpt>
      <trkpt lat="43.08823" lon="-0.03082">
        <ele>634</ele>
        <time>2022-10-07T07:17:12Z</time>
      </trkpt>
      <trkpt lat="43.08833" lon="-0.03087">
        <ele>635.4</ele>
        <time>2022-10-07T07:17:18Z</time>
      </trkpt>
      <trkpt lat="43.08835" lon="-0.03088">
        <ele>635.4</ele>
        <time>2022-10-07T07:17:19Z</time>
      </trkpt>
      <trkpt lat="43.08845" lon="-0.03093">
        <ele>636.2</ele>
        <time>2022-10-07T07:17:25Z</time>
      </trkpt>
      <trkpt lat="43.08847" lon="-0.03095">
        <ele>636.4</ele>
        <time>2022-10-07T07:17:27Z</time>
      </trkpt>
      <trkpt lat="43.08853" lon="-0.03097">
        <ele>637.2</ele>
        <time>2022-10-07T07:17:31Z</time>
      </trkpt>
      <trkpt lat="43.08859" lon="-0.03102">
        <ele>637.8</ele>
        <time>2022-10-07T07:17:35Z</time>
      </trkpt>
      <trkpt lat="43.08862" lon="-0.03105">
        <ele>638.4</ele>
        <time>2022-10-07T07:17:37Z</time>
      </trkpt>
      <trkpt lat="43.08865" lon="-0.03112">
        <ele>639.4</ele>
        <time>2022-10-07T07:17:41Z</time>
      </trkpt>
      <trkpt lat="43.08866" lon="-0.03113">
        <ele>639.6</ele>
        <time>2022-10-07T07:17:42Z</time>
      </trkpt>
      <trkpt lat="43.08867" lon="-0.03123">
        <ele>640.6</ele>
        <time>2022-10-07T07:17:47Z</time>
      </trkpt>
      <trkpt lat="43.08868" lon="-0.0313">
        <ele>641.4</ele>
        <time>2022-10-07T07:17:51Z</time>
      </trkpt>
      <trkpt lat="43.08868" lon="-0.03132">
        <ele>641.6</ele>
        <time>2022-10-07T07:17:52Z</time>
      </trkpt>
      <trkpt lat="43.08869" lon="-0.03139">
        <ele>642.8</ele>
        <time>2022-10-07T07:17:56Z</time>
      </trkpt>
      <trkpt lat="43.08869" lon="-0.03143">
        <ele>643.4</ele>
        <time>2022-10-07T07:17:58Z</time>
      </trkpt>
      <trkpt lat="43.08869" lon="-0.03148">
        <ele>643.8</ele>
        <time>2022-10-07T07:18:00Z</time>
      </trkpt>
      <trkpt lat="43.08869" lon="-0.03153">
        <ele>644.2</ele>
        <time>2022-10-07T07:18:02Z</time>
      </trkpt>
      <trkpt lat="43.08868" lon="-0.03157">
        <ele>645</ele>
        <time>2022-10-07T07:18:05Z</time>
      </trkpt>
      <trkpt lat="43.08867" lon="-0.0317">
        <ele>646.2</ele>
        <time>2022-10-07T07:18:11Z</time>
      </trkpt>
      <trkpt lat="43.08868" lon="-0.03172">
        <ele>646.4</ele>
        <time>2022-10-07T07:18:12Z</time>
      </trkpt>
      <trkpt lat="43.08868" lon="-0.03176">
        <ele>647</ele>
        <time>2022-10-07T07:18:14Z</time>
      </trkpt>
      <trkpt lat="43.08868" lon="-0.03178">
        <ele>647.2</ele>
        <time>2022-10-07T07:18:15Z</time>
      </trkpt>
      <trkpt lat="43.08869" lon="-0.03184">
        <ele>647.6</ele>
        <time>2022-10-07T07:18:18Z</time>
      </trkpt>
      <trkpt lat="43.0887" lon="-0.03189">
        <ele>648.4</ele>
        <time>2022-10-07T07:18:20Z</time>
      </trkpt>
      <trkpt lat="43.08869" lon="-0.03194">
        <ele>648.8</ele>
        <time>2022-10-07T07:18:22Z</time>
      </trkpt>
      <trkpt lat="43.08869" lon="-0.03198">
        <ele>649.2</ele>
        <time>2022-10-07T07:18:24Z</time>
      </trkpt>
      <trkpt lat="43.08868" lon="-0.03203">
        <ele>649.8</ele>
        <time>2022-10-07T07:18:26Z</time>
      </trkpt>
      <trkpt lat="43.08868" lon="-0.03208">
        <ele>650.2</ele>
        <time>2022-10-07T07:18:29Z</time>
      </trkpt>
      <trkpt lat="43.08868" lon="-0.03209">
        <ele>650.4</ele>
        <time>2022-10-07T07:18:30Z</time>
      </trkpt>
      <trkpt lat="43.08868" lon="-0.03211">
        <ele>650.6</ele>
        <time>2022-10-07T07:18:31Z</time>
      </trkpt>
      <trkpt lat="43.08867" lon="-0.03213">
        <ele>651</ele>
        <time>2022-10-07T07:18:32Z</time>
      </trkpt>
      <trkpt lat="43.08867" lon="-0.03217">
        <ele>651.4</ele>
        <time>2022-10-07T07:18:34Z</time>
      </trkpt>
      <trkpt lat="43.08867" lon="-0.03219">
        <ele>651.6</ele>
        <time>2022-10-07T07:18:35Z</time>
      </trkpt>
      <trkpt lat="43.08868" lon="-0.03223">
        <ele>652</ele>
        <time>2022-10-07T07:18:37Z</time>
      </trkpt>
      <trkpt lat="43.08867" lon="-0.03231">
        <ele>653</ele>
        <time>2022-10-07T07:18:41Z</time>
      </trkpt>
      <trkpt lat="43.08867" lon="-0.03233">
        <ele>653.2</ele>
        <time>2022-10-07T07:18:42Z</time>
      </trkpt>
      <trkpt lat="43.08868" lon="-0.0324">
        <ele>653.8</ele>
        <time>2022-10-07T07:18:46Z</time>
      </trkpt>
      <trkpt lat="43.08868" lon="-0.03243">
        <ele>654.2</ele>
        <time>2022-10-07T07:18:47Z</time>
      </trkpt>
      <trkpt lat="43.08867" lon="-0.03245">
        <ele>654.2</ele>
        <time>2022-10-07T07:18:48Z</time>
      </trkpt>
      <trkpt lat="43.08867" lon="-0.0325">
        <ele>654.6</ele>
        <time>2022-10-07T07:18:50Z</time>
      </trkpt>
      <trkpt lat="43.08866" lon="-0.03256">
        <ele>655</ele>
        <time>2022-10-07T07:18:52Z</time>
      </trkpt>
      <trkpt lat="43.08866" lon="-0.03258">
        <ele>655</ele>
        <time>2022-10-07T07:18:53Z</time>
      </trkpt>
      <trkpt lat="43.08866" lon="-0.03263">
        <ele>655.6</ele>
        <time>2022-10-07T07:18:55Z</time>
      </trkpt>
      <trkpt lat="43.08862" lon="-0.03272">
        <ele>656.6</ele>
        <time>2022-10-07T07:19:00Z</time>
      </trkpt>
      <trkpt lat="43.08861" lon="-0.03274">
        <ele>656.8</ele>
        <time>2022-10-07T07:19:01Z</time>
      </trkpt>
      <trkpt lat="43.08861" lon="-0.03278">
        <ele>657.8</ele>
        <time>2022-10-07T07:19:03Z</time>
      </trkpt>
      <trkpt lat="43.0886" lon="-0.03282">
        <ele>658.8</ele>
        <time>2022-10-07T07:19:07Z</time>
      </trkpt>
      <trkpt lat="43.08859" lon="-0.03285">
        <ele>659.2</ele>
        <time>2022-10-07T07:19:08Z</time>
      </trkpt>
      <trkpt lat="43.08854" lon="-0.03293">
        <ele>660</ele>
        <time>2022-10-07T07:19:14Z</time>
      </trkpt>
      <trkpt lat="43.08853" lon="-0.03295">
        <ele>660.6</ele>
        <time>2022-10-07T07:19:16Z</time>
      </trkpt>
      <trkpt lat="43.08853" lon="-0.03297">
        <ele>661</ele>
        <time>2022-10-07T07:19:17Z</time>
      </trkpt>
      <trkpt lat="43.08848" lon="-0.03302">
        <ele>661.8</ele>
        <time>2022-10-07T07:19:21Z</time>
      </trkpt>
      <trkpt lat="43.08847" lon="-0.03304">
        <ele>662</ele>
        <time>2022-10-07T07:19:23Z</time>
      </trkpt>
      <trkpt lat="43.08838" lon="-0.03317">
        <ele>663</ele>
        <time>2022-10-07T07:19:29Z</time>
      </trkpt>
      <trkpt lat="43.08838" lon="-0.03317">
        <ele>663.2</ele>
        <time>2022-10-07T07:19:38Z</time>
      </trkpt>
      <trkpt lat="43.08837" lon="-0.03317">
        <ele>663</ele>
        <time>2022-10-07T07:23:13Z</time>
      </trkpt>
      <trkpt lat="43.08835" lon="-0.03316">
        <ele>663.4</ele>
        <time>2022-10-07T07:23:18Z</time>
      </trkpt>
      <trkpt lat="43.0883" lon="-0.03313">
        <ele>663.4</ele>
        <time>2022-10-07T07:23:21Z</time>
      </trkpt>
      <trkpt lat="43.08828" lon="-0.03312">
        <ele>663.4</ele>
        <time>2022-10-07T07:23:22Z</time>
      </trkpt>
      <trkpt lat="43.0882" lon="-0.03307">
        <ele>663.8</ele>
        <time>2022-10-07T07:23:27Z</time>
      </trkpt>
      <trkpt lat="43.08808" lon="-0.03308">
        <ele>664.6</ele>
        <time>2022-10-07T07:23:34Z</time>
      </trkpt>
      <trkpt lat="43.08806" lon="-0.03308">
        <ele>664.6</ele>
        <time>2022-10-07T07:23:35Z</time>
      </trkpt>
      <trkpt lat="43.08798" lon="-0.03308">
        <ele>665.6</ele>
        <time>2022-10-07T07:23:40Z</time>
      </trkpt>
      <trkpt lat="43.08794" lon="-0.03307">
        <ele>666</ele>
        <time>2022-10-07T07:23:42Z</time>
      </trkpt>
      <trkpt lat="43.08787" lon="-0.03303">
        <ele>666.4</ele>
        <time>2022-10-07T07:23:47Z</time>
      </trkpt>
      <trkpt lat="43.08785" lon="-0.03302">
        <ele>667</ele>
        <time>2022-10-07T07:23:49Z</time>
      </trkpt>
      <trkpt lat="43.08782" lon="-0.03301">
        <ele>667.4</ele>
        <time>2022-10-07T07:23:51Z</time>
      </trkpt>
      <trkpt lat="43.0878" lon="-0.033">
        <ele>667.8</ele>
        <time>2022-10-07T07:23:53Z</time>
      </trkpt>
      <trkpt lat="43.0877" lon="-0.03297">
        <ele>669.2</ele>
        <time>2022-10-07T07:23:59Z</time>
      </trkpt>
      <trkpt lat="43.08769" lon="-0.03296">
        <ele>669.4</ele>
        <time>2022-10-07T07:24:00Z</time>
      </trkpt>
      <trkpt lat="43.08767" lon="-0.03296">
        <ele>669.4</ele>
        <time>2022-10-07T07:24:01Z</time>
      </trkpt>
      <trkpt lat="43.08763" lon="-0.03294">
        <ele>670.2</ele>
        <time>2022-10-07T07:24:04Z</time>
      </trkpt>
      <trkpt lat="43.08761" lon="-0.03293">
        <ele>670.4</ele>
        <time>2022-10-07T07:24:05Z</time>
      </trkpt>
      <trkpt lat="43.08754" lon="-0.03293">
        <ele>671.2</ele>
        <time>2022-10-07T07:24:09Z</time>
      </trkpt>
      <trkpt lat="43.08747" lon="-0.03293">
        <ele>671.8</ele>
        <time>2022-10-07T07:24:13Z</time>
      </trkpt>
      <trkpt lat="43.08743" lon="-0.03292">
        <ele>672.4</ele>
        <time>2022-10-07T07:24:15Z</time>
      </trkpt>
      <trkpt lat="43.08735" lon="-0.03291">
        <ele>680.2</ele>
        <time>2022-10-07T07:24:20Z</time>
      </trkpt>
      <trkpt lat="43.08733" lon="-0.03291">
        <ele>673.6</ele>
        <time>2022-10-07T07:24:22Z</time>
      </trkpt>
      <trkpt lat="43.08725" lon="-0.03291">
        <ele>674.6</ele>
        <time>2022-10-07T07:24:27Z</time>
      </trkpt>
      <trkpt lat="43.08723" lon="-0.03292">
        <ele>674.8</ele>
        <time>2022-10-07T07:24:28Z</time>
      </trkpt>
      <trkpt lat="43.08722" lon="-0.03292">
        <ele>675</ele>
        <time>2022-10-07T07:24:29Z</time>
      </trkpt>
      <trkpt lat="43.08713" lon="-0.03293">
        <ele>675.6</ele>
        <time>2022-10-07T07:24:36Z</time>
      </trkpt>
      <trkpt lat="43.08711" lon="-0.03293">
        <ele>676.2</ele>
        <time>2022-10-07T07:24:38Z</time>
      </trkpt>
      <trkpt lat="43.08706" lon="-0.03294">
        <ele>676.8</ele>
        <time>2022-10-07T07:24:41Z</time>
      </trkpt>
      <trkpt lat="43.08699" lon="-0.03296">
        <ele>678.2</ele>
        <time>2022-10-07T07:24:46Z</time>
      </trkpt>
      <trkpt lat="43.08698" lon="-0.03296">
        <ele>678.4</ele>
        <time>2022-10-07T07:24:47Z</time>
      </trkpt>
      <trkpt lat="43.0869" lon="-0.03298">
        <ele>679.4</ele>
        <time>2022-10-07T07:24:52Z</time>
      </trkpt>
      <trkpt lat="43.0868" lon="-0.03302">
        <ele>680.6</ele>
        <time>2022-10-07T07:24:58Z</time>
      </trkpt>
      <trkpt lat="43.08674" lon="-0.03303">
        <ele>681.4</ele>
        <time>2022-10-07T07:25:02Z</time>
      </trkpt>
      <trkpt lat="43.0867" lon="-0.03304">
        <ele>682</ele>
        <time>2022-10-07T07:25:05Z</time>
      </trkpt>
      <trkpt lat="43.08669" lon="-0.03305">
        <ele>682.6</ele>
        <time>2022-10-07T07:25:08Z</time>
      </trkpt>
      <trkpt lat="43.08666" lon="-0.03302">
        <ele>683</ele>
        <time>2022-10-07T07:25:11Z</time>
      </trkpt>
      <trkpt lat="43.08666" lon="-0.03295">
        <ele>683.6</ele>
        <time>2022-10-07T07:25:15Z</time>
      </trkpt>
      <trkpt lat="43.08669" lon="-0.03291">
        <ele>684.2</ele>
        <time>2022-10-07T07:25:18Z</time>
      </trkpt>
      <trkpt lat="43.0867" lon="-0.03289">
        <ele>684.2</ele>
        <time>2022-10-07T07:25:19Z</time>
      </trkpt>
      <trkpt lat="43.08673" lon="-0.03285">
        <ele>684.6</ele>
        <time>2022-10-07T07:25:23Z</time>
      </trkpt>
      <trkpt lat="43.08674" lon="-0.03282">
        <ele>685.2</ele>
        <time>2022-10-07T07:25:24Z</time>
      </trkpt>
      <trkpt lat="43.08676" lon="-0.0328">
        <ele>685.4</ele>
        <time>2022-10-07T07:25:25Z</time>
      </trkpt>
      <trkpt lat="43.08681" lon="-0.03267">
        <ele>686.4</ele>
        <time>2022-10-07T07:25:30Z</time>
      </trkpt>
      <trkpt lat="43.08684" lon="-0.0326">
        <ele>686.6</ele>
        <time>2022-10-07T07:25:33Z</time>
      </trkpt>
      <trkpt lat="43.08685" lon="-0.03259">
        <ele>686.6</ele>
        <time>2022-10-07T07:25:34Z</time>
      </trkpt>
      <trkpt lat="43.08684" lon="-0.03253">
        <ele>687.4</ele>
        <time>2022-10-07T07:25:38Z</time>
      </trkpt>
      <trkpt lat="43.08684" lon="-0.0325">
        <ele>687.8</ele>
        <time>2022-10-07T07:25:39Z</time>
      </trkpt>
      <trkpt lat="43.08687" lon="-0.03232">
        <ele>688.8</ele>
        <time>2022-10-07T07:25:45Z</time>
      </trkpt>
      <trkpt lat="43.08687" lon="-0.0323">
        <ele>688.8</ele>
        <time>2022-10-07T07:25:46Z</time>
      </trkpt>
      <trkpt lat="43.08686" lon="-0.03218">
        <ele>689.8</ele>
        <time>2022-10-07T07:25:51Z</time>
      </trkpt>
      <trkpt lat="43.08685" lon="-0.03217">
        <ele>689.8</ele>
        <time>2022-10-07T07:25:52Z</time>
      </trkpt>
      <trkpt lat="43.08686" lon="-0.03211">
        <ele>690.2</ele>
        <time>2022-10-07T07:25:54Z</time>
      </trkpt>
      <trkpt lat="43.08686" lon="-0.03209">
        <ele>690.2</ele>
        <time>2022-10-07T07:25:55Z</time>
      </trkpt>
      <trkpt lat="43.08685" lon="-0.03202">
        <ele>691</ele>
        <time>2022-10-07T07:25:59Z</time>
      </trkpt>
      <trkpt lat="43.08685" lon="-0.03197">
        <ele>691.4</ele>
        <time>2022-10-07T07:26:01Z</time>
      </trkpt>
      <trkpt lat="43.08683" lon="-0.0319">
        <ele>692.2</ele>
        <time>2022-10-07T07:26:05Z</time>
      </trkpt>
      <trkpt lat="43.0868" lon="-0.03185">
        <ele>692.8</ele>
        <time>2022-10-07T07:26:08Z</time>
      </trkpt>
      <trkpt lat="43.08679" lon="-0.03179">
        <ele>693.2</ele>
        <time>2022-10-07T07:26:11Z</time>
      </trkpt>
      <trkpt lat="43.08677" lon="-0.03168">
        <ele>694.2</ele>
        <time>2022-10-07T07:26:16Z</time>
      </trkpt>
      <trkpt lat="43.08676" lon="-0.03166">
        <ele>694.6</ele>
        <time>2022-10-07T07:26:17Z</time>
      </trkpt>
      <trkpt lat="43.08675" lon="-0.03162">
        <ele>694.8</ele>
        <time>2022-10-07T07:26:19Z</time>
      </trkpt>
      <trkpt lat="43.08674" lon="-0.03158">
        <ele>695.2</ele>
        <time>2022-10-07T07:26:21Z</time>
      </trkpt>
      <trkpt lat="43.08674" lon="-0.03157">
        <ele>695.4</ele>
        <time>2022-10-07T07:26:22Z</time>
      </trkpt>
      <trkpt lat="43.08674" lon="-0.03148">
        <ele>696.4</ele>
        <time>2022-10-07T07:26:27Z</time>
      </trkpt>
      <trkpt lat="43.08673" lon="-0.03146">
        <ele>696.6</ele>
        <time>2022-10-07T07:26:28Z</time>
      </trkpt>
      <trkpt lat="43.08671" lon="-0.03138">
        <ele>697.6</ele>
        <time>2022-10-07T07:26:33Z</time>
      </trkpt>
      <trkpt lat="43.0867" lon="-0.03134">
        <ele>698.2</ele>
        <time>2022-10-07T07:26:35Z</time>
      </trkpt>
      <trkpt lat="43.08669" lon="-0.03132">
        <ele>698.4</ele>
        <time>2022-10-07T07:26:36Z</time>
      </trkpt>
      <trkpt lat="43.08669" lon="-0.0313">
        <ele>698.6</ele>
        <time>2022-10-07T07:26:37Z</time>
      </trkpt>
      <trkpt lat="43.08667" lon="-0.03125">
        <ele>699.4</ele>
        <time>2022-10-07T07:26:40Z</time>
      </trkpt>
      <trkpt lat="43.08666" lon="-0.03121">
        <ele>699.8</ele>
        <time>2022-10-07T07:26:42Z</time>
      </trkpt>
      <trkpt lat="43.08663" lon="-0.03114">
        <ele>700.4</ele>
        <time>2022-10-07T07:26:47Z</time>
      </trkpt>
      <trkpt lat="43.08661" lon="-0.03108">
        <ele>701</ele>
        <time>2022-10-07T07:26:50Z</time>
      </trkpt>
      <trkpt lat="43.08658" lon="-0.03101">
        <ele>701.8</ele>
        <time>2022-10-07T07:26:54Z</time>
      </trkpt>
      <trkpt lat="43.08656" lon="-0.03098">
        <ele>702.2</ele>
        <time>2022-10-07T07:26:56Z</time>
      </trkpt>
      <trkpt lat="43.08649" lon="-0.03089">
        <ele>703.4</ele>
        <time>2022-10-07T07:27:02Z</time>
      </trkpt>
      <trkpt lat="43.08648" lon="-0.03088">
        <ele>703.8</ele>
        <time>2022-10-07T07:27:03Z</time>
      </trkpt>
      <trkpt lat="43.08642" lon="-0.03082">
        <ele>704.4</ele>
        <time>2022-10-07T07:27:07Z</time>
      </trkpt>
      <trkpt lat="43.08637" lon="-0.03078">
        <ele>705</ele>
        <time>2022-10-07T07:27:11Z</time>
      </trkpt>
      <trkpt lat="43.0863" lon="-0.03071">
        <ele>705.6</ele>
        <time>2022-10-07T07:27:16Z</time>
      </trkpt>
      <trkpt lat="43.08629" lon="-0.03067">
        <ele>705.8</ele>
        <time>2022-10-07T07:27:18Z</time>
      </trkpt>
      <trkpt lat="43.08625" lon="-0.03062">
        <ele>706.6</ele>
        <time>2022-10-07T07:27:22Z</time>
      </trkpt>
      <trkpt lat="43.08621" lon="-0.03055">
        <ele>707.2</ele>
        <time>2022-10-07T07:27:25Z</time>
      </trkpt>
      <trkpt lat="43.0862" lon="-0.03053">
        <ele>707.6</ele>
        <time>2022-10-07T07:27:26Z</time>
      </trkpt>
      <trkpt lat="43.08613" lon="-0.03043">
        <ele>708.8</ele>
        <time>2022-10-07T07:27:31Z</time>
      </trkpt>
      <trkpt lat="43.0861" lon="-0.03035">
        <ele>710</ele>
        <time>2022-10-07T07:27:35Z</time>
      </trkpt>
      <trkpt lat="43.08608" lon="-0.03034">
        <ele>710</ele>
        <time>2022-10-07T07:27:36Z</time>
      </trkpt>
      <trkpt lat="43.08603" lon="-0.03029">
        <ele>711</ele>
        <time>2022-10-07T07:27:40Z</time>
      </trkpt>
      <trkpt lat="43.08599" lon="-0.03025">
        <ele>711.8</ele>
        <time>2022-10-07T07:27:43Z</time>
      </trkpt>
      <trkpt lat="43.08596" lon="-0.03024">
        <ele>712</ele>
        <time>2022-10-07T07:27:45Z</time>
      </trkpt>
      <trkpt lat="43.08593" lon="-0.03019">
        <ele>712.6</ele>
        <time>2022-10-07T07:27:49Z</time>
      </trkpt>
      <trkpt lat="43.0859" lon="-0.03016">
        <ele>713.2</ele>
        <time>2022-10-07T07:27:51Z</time>
      </trkpt>
      <trkpt lat="43.08589" lon="-0.03014">
        <ele>713.4</ele>
        <time>2022-10-07T07:27:52Z</time>
      </trkpt>
      <trkpt lat="43.08585" lon="-0.03009">
        <ele>713.8</ele>
        <time>2022-10-07T07:27:55Z</time>
      </trkpt>
      <trkpt lat="43.08583" lon="-0.03007">
        <ele>714.4</ele>
        <time>2022-10-07T07:27:57Z</time>
      </trkpt>
      <trkpt lat="43.08578" lon="-0.03">
        <ele>715</ele>
        <time>2022-10-07T07:28:02Z</time>
      </trkpt>
      <trkpt lat="43.08576" lon="-0.02998">
        <ele>715.4</ele>
        <time>2022-10-07T07:28:03Z</time>
      </trkpt>
      <trkpt lat="43.08571" lon="-0.02989">
        <ele>716.4</ele>
        <time>2022-10-07T07:28:08Z</time>
      </trkpt>
      <trkpt lat="43.08568" lon="-0.02985">
        <ele>716.6</ele>
        <time>2022-10-07T07:28:10Z</time>
      </trkpt>
      <trkpt lat="43.08566" lon="-0.02981">
        <ele>716.8</ele>
        <time>2022-10-07T07:28:12Z</time>
      </trkpt>
      <trkpt lat="43.08564" lon="-0.02977">
        <ele>716.8</ele>
        <time>2022-10-07T07:28:13Z</time>
      </trkpt>
      <trkpt lat="43.08557" lon="-0.02955">
        <ele>717.2</ele>
        <time>2022-10-07T07:28:20Z</time>
      </trkpt>
      <trkpt lat="43.08555" lon="-0.0295">
        <ele>717.4</ele>
        <time>2022-10-07T07:28:22Z</time>
      </trkpt>
      <trkpt lat="43.08552" lon="-0.02947">
        <ele>717.6</ele>
        <time>2022-10-07T07:28:24Z</time>
      </trkpt>
      <trkpt lat="43.08549" lon="-0.02946">
        <ele>718</ele>
        <time>2022-10-07T07:28:26Z</time>
      </trkpt>
      <trkpt lat="43.08549" lon="-0.02946">
        <ele>718</ele>
        <time>2022-10-07T07:28:27Z</time>
      </trkpt>
      <trkpt lat="43.08549" lon="-0.02951">
        <ele>718.4</ele>
        <time>2022-10-07T07:28:30Z</time>
      </trkpt>
      <trkpt lat="43.08551" lon="-0.02954">
        <ele>718.4</ele>
        <time>2022-10-07T07:28:32Z</time>
      </trkpt>
      <trkpt lat="43.08553" lon="-0.02955">
        <ele>718.6</ele>
        <time>2022-10-07T07:28:33Z</time>
      </trkpt>
      <trkpt lat="43.08553" lon="-0.02956">
        <ele>718.6</ele>
        <time>2022-10-07T07:28:34Z</time>
      </trkpt>
      <trkpt lat="43.08558" lon="-0.02963">
        <ele>719.4</ele>
        <time>2022-10-07T07:28:38Z</time>
      </trkpt>
      <trkpt lat="43.0856" lon="-0.02966">
        <ele>719.6</ele>
        <time>2022-10-07T07:28:40Z</time>
      </trkpt>
      <trkpt lat="43.08564" lon="-0.02974">
        <ele>720.4</ele>
        <time>2022-10-07T07:28:45Z</time>
      </trkpt>
      <trkpt lat="43.08566" lon="-0.0298">
        <ele>721</ele>
        <time>2022-10-07T07:28:48Z</time>
      </trkpt>
      <trkpt lat="43.08569" lon="-0.02985">
        <ele>721.2</ele>
        <time>2022-10-07T07:28:50Z</time>
      </trkpt>
      <trkpt lat="43.08571" lon="-0.0299">
        <ele>721.6</ele>
        <time>2022-10-07T07:28:52Z</time>
      </trkpt>
      <trkpt lat="43.08573" lon="-0.02993">
        <ele>721.6</ele>
        <time>2022-10-07T07:28:53Z</time>
      </trkpt>
      <trkpt lat="43.08582" lon="-0.0301">
        <ele>722.8</ele>
        <time>2022-10-07T07:29:01Z</time>
      </trkpt>
      <trkpt lat="43.08583" lon="-0.03012">
        <ele>722.8</ele>
        <time>2022-10-07T07:29:02Z</time>
      </trkpt>
      <trkpt lat="43.08586" lon="-0.03018">
        <ele>723.6</ele>
        <time>2022-10-07T07:29:06Z</time>
      </trkpt>
      <trkpt lat="43.08586" lon="-0.03019">
        <ele>723.8</ele>
        <time>2022-10-07T07:29:07Z</time>
      </trkpt>
      <trkpt lat="43.08586" lon="-0.03021">
        <ele>723.8</ele>
        <time>2022-10-07T07:29:08Z</time>
      </trkpt>
      <trkpt lat="43.08584" lon="-0.03026">
        <ele>724.4</ele>
        <time>2022-10-07T07:29:11Z</time>
      </trkpt>
      <trkpt lat="43.08584" lon="-0.03028">
        <ele>724.6</ele>
        <time>2022-10-07T07:29:12Z</time>
      </trkpt>
      <trkpt lat="43.08584" lon="-0.03033">
        <ele>725</ele>
        <time>2022-10-07T07:29:14Z</time>
      </trkpt>
      <trkpt lat="43.08583" lon="-0.03037">
        <ele>725.2</ele>
        <time>2022-10-07T07:29:16Z</time>
      </trkpt>
      <trkpt lat="43.08583" lon="-0.0304">
        <ele>725.6</ele>
        <time>2022-10-07T07:29:18Z</time>
      </trkpt>
      <trkpt lat="43.08583" lon="-0.03043">
        <ele>726</ele>
        <time>2022-10-07T07:29:20Z</time>
      </trkpt>
      <trkpt lat="43.08587" lon="-0.03049">
        <ele>726.8</ele>
        <time>2022-10-07T07:29:23Z</time>
      </trkpt>
      <trkpt lat="43.08588" lon="-0.03051">
        <ele>727.2</ele>
        <time>2022-10-07T07:29:25Z</time>
      </trkpt>
      <trkpt lat="43.08588" lon="-0.03056">
        <ele>728</ele>
        <time>2022-10-07T07:29:29Z</time>
      </trkpt>
      <trkpt lat="43.0859" lon="-0.0306">
        <ele>728.4</ele>
        <time>2022-10-07T07:29:31Z</time>
      </trkpt>
      <trkpt lat="43.08593" lon="-0.03068">
        <ele>729.2</ele>
        <time>2022-10-07T07:29:35Z</time>
      </trkpt>
      <trkpt lat="43.08594" lon="-0.03073">
        <ele>729.6</ele>
        <time>2022-10-07T07:29:37Z</time>
      </trkpt>
      <trkpt lat="43.08595" lon="-0.03078">
        <ele>730</ele>
        <time>2022-10-07T07:29:39Z</time>
      </trkpt>
      <trkpt lat="43.08595" lon="-0.03082">
        <ele>730.6</ele>
        <time>2022-10-07T07:29:41Z</time>
      </trkpt>
      <trkpt lat="43.08595" lon="-0.03083">
        <ele>730.6</ele>
        <time>2022-10-07T07:29:42Z</time>
      </trkpt>
      <trkpt lat="43.08596" lon="-0.03092">
        <ele>731.6</ele>
        <time>2022-10-07T07:29:46Z</time>
      </trkpt>
      <trkpt lat="43.08595" lon="-0.03096">
        <ele>731.8</ele>
        <time>2022-10-07T07:29:47Z</time>
      </trkpt>
      <trkpt lat="43.08593" lon="-0.03102">
        <ele>732.8</ele>
        <time>2022-10-07T07:29:52Z</time>
      </trkpt>
      <trkpt lat="43.08593" lon="-0.03109">
        <ele>733.4</ele>
        <time>2022-10-07T07:29:55Z</time>
      </trkpt>
      <trkpt lat="43.0859" lon="-0.0312">
        <ele>733.8</ele>
        <time>2022-10-07T07:29:59Z</time>
      </trkpt>
      <trkpt lat="43.08591" lon="-0.03128">
        <ele>734.6</ele>
        <time>2022-10-07T07:30:03Z</time>
      </trkpt>
      <trkpt lat="43.08592" lon="-0.0313">
        <ele>735</ele>
        <time>2022-10-07T07:30:04Z</time>
      </trkpt>
      <trkpt lat="43.0859" lon="-0.03135">
        <ele>735.4</ele>
        <time>2022-10-07T07:30:07Z</time>
      </trkpt>
      <trkpt lat="43.08588" lon="-0.03138">
        <ele>736.4</ele>
        <time>2022-10-07T07:30:11Z</time>
      </trkpt>
      <trkpt lat="43.08588" lon="-0.0314">
        <ele>736.8</ele>
        <time>2022-10-07T07:30:13Z</time>
      </trkpt>
      <trkpt lat="43.08587" lon="-0.03147">
        <ele>737.8</ele>
        <time>2022-10-07T07:30:17Z</time>
      </trkpt>
      <trkpt lat="43.08585" lon="-0.03152">
        <ele>738.2</ele>
        <time>2022-10-07T07:30:20Z</time>
      </trkpt>
      <trkpt lat="43.0858" lon="-0.03161">
        <ele>739</ele>
        <time>2022-10-07T07:30:24Z</time>
      </trkpt>
      <trkpt lat="43.08577" lon="-0.03165">
        <ele>739.8</ele>
        <time>2022-10-07T07:30:28Z</time>
      </trkpt>
      <trkpt lat="43.08576" lon="-0.03167">
        <ele>740</ele>
        <time>2022-10-07T07:30:29Z</time>
      </trkpt>
      <trkpt lat="43.0857" lon="-0.03181">
        <ele>741</ele>
        <time>2022-10-07T07:30:35Z</time>
      </trkpt>
      <trkpt lat="43.08569" lon="-0.03184">
        <ele>741.2</ele>
        <time>2022-10-07T07:30:36Z</time>
      </trkpt>
      <trkpt lat="43.08564" lon="-0.03193">
        <ele>742.2</ele>
        <time>2022-10-07T07:30:41Z</time>
      </trkpt>
      <trkpt lat="43.08561" lon="-0.03195">
        <ele>742.4</ele>
        <time>2022-10-07T07:30:42Z</time>
      </trkpt>
      <trkpt lat="43.08559" lon="-0.03197">
        <ele>742.8</ele>
        <time>2022-10-07T07:30:43Z</time>
      </trkpt>
      <trkpt lat="43.08555" lon="-0.03202">
        <ele>743.4</ele>
        <time>2022-10-07T07:30:45Z</time>
      </trkpt>
      <trkpt lat="43.0855" lon="-0.03208">
        <ele>743.8</ele>
        <time>2022-10-07T07:30:48Z</time>
      </trkpt>
      <trkpt lat="43.08545" lon="-0.03213">
        <ele>744.4</ele>
        <time>2022-10-07T07:30:53Z</time>
      </trkpt>
      <trkpt lat="43.08545" lon="-0.03212">
        <ele>744.6</ele>
        <time>2022-10-07T07:30:55Z</time>
      </trkpt>
      <trkpt lat="43.08542" lon="-0.03215">
        <ele>745.4</ele>
        <time>2022-10-07T07:30:58Z</time>
      </trkpt>
      <trkpt lat="43.0854" lon="-0.03217">
        <ele>746</ele>
        <time>2022-10-07T07:31:01Z</time>
      </trkpt>
      <trkpt lat="43.08537" lon="-0.03222">
        <ele>746.4</ele>
        <time>2022-10-07T07:31:04Z</time>
      </trkpt>
      <trkpt lat="43.08533" lon="-0.03226">
        <ele>747</ele>
        <time>2022-10-07T07:31:07Z</time>
      </trkpt>
      <trkpt lat="43.08532" lon="-0.03228">
        <ele>747.2</ele>
        <time>2022-10-07T07:31:08Z</time>
      </trkpt>
      <trkpt lat="43.0853" lon="-0.03229">
        <ele>747.6</ele>
        <time>2022-10-07T07:31:10Z</time>
      </trkpt>
      <trkpt lat="43.08529" lon="-0.0323">
        <ele>748</ele>
        <time>2022-10-07T07:31:13Z</time>
      </trkpt>
      <trkpt lat="43.08521" lon="-0.03236">
        <ele>748.6</ele>
        <time>2022-10-07T07:31:17Z</time>
      </trkpt>
      <trkpt lat="43.08518" lon="-0.0324">
        <ele>749.6</ele>
        <time>2022-10-07T07:31:21Z</time>
      </trkpt>
      <trkpt lat="43.08515" lon="-0.03243">
        <ele>749.8</ele>
        <time>2022-10-07T07:31:22Z</time>
      </trkpt>
      <trkpt lat="43.08508" lon="-0.03249">
        <ele>750.2</ele>
        <time>2022-10-07T07:31:26Z</time>
      </trkpt>
      <trkpt lat="43.08506" lon="-0.03251">
        <ele>750.6</ele>
        <time>2022-10-07T07:31:27Z</time>
      </trkpt>
      <trkpt lat="43.08505" lon="-0.03254">
        <ele>750.8</ele>
        <time>2022-10-07T07:31:28Z</time>
      </trkpt>
      <trkpt lat="43.085" lon="-0.0326">
        <ele>752</ele>
        <time>2022-10-07T07:31:33Z</time>
      </trkpt>
      <trkpt lat="43.08498" lon="-0.03261">
        <ele>752.2</ele>
        <time>2022-10-07T07:31:34Z</time>
      </trkpt>
      <trkpt lat="43.08494" lon="-0.03266">
        <ele>753.2</ele>
        <time>2022-10-07T07:31:38Z</time>
      </trkpt>
      <trkpt lat="43.08489" lon="-0.03269">
        <ele>753.6</ele>
        <time>2022-10-07T07:31:40Z</time>
      </trkpt>
      <trkpt lat="43.08483" lon="-0.03273">
        <ele>754.4</ele>
        <time>2022-10-07T07:31:45Z</time>
      </trkpt>
      <trkpt lat="43.08476" lon="-0.03275">
        <ele>754.8</ele>
        <time>2022-10-07T07:31:49Z</time>
      </trkpt>
      <trkpt lat="43.08473" lon="-0.03278">
        <ele>755.4</ele>
        <time>2022-10-07T07:31:52Z</time>
      </trkpt>
      <trkpt lat="43.08469" lon="-0.03282">
        <ele>756.2</ele>
        <time>2022-10-07T07:31:56Z</time>
      </trkpt>
      <trkpt lat="43.08467" lon="-0.03283">
        <ele>756.6</ele>
        <time>2022-10-07T07:31:57Z</time>
      </trkpt>
      <trkpt lat="43.08467" lon="-0.03284">
        <ele>756.8</ele>
        <time>2022-10-07T07:31:58Z</time>
      </trkpt>
      <trkpt lat="43.08465" lon="-0.03286">
        <ele>757.2</ele>
        <time>2022-10-07T07:32:00Z</time>
      </trkpt>
      <trkpt lat="43.08464" lon="-0.03288">
        <ele>757.4</ele>
        <time>2022-10-07T07:32:01Z</time>
      </trkpt>
      <trkpt lat="43.08462" lon="-0.0329">
        <ele>757.4</ele>
        <time>2022-10-07T07:32:02Z</time>
      </trkpt>
      <trkpt lat="43.08459" lon="-0.03293">
        <ele>757.6</ele>
        <time>2022-10-07T07:32:04Z</time>
      </trkpt>
      <trkpt lat="43.08457" lon="-0.03294">
        <ele>757.8</ele>
        <time>2022-10-07T07:32:05Z</time>
      </trkpt>
      <trkpt lat="43.08456" lon="-0.03295">
        <ele>757.8</ele>
        <time>2022-10-07T07:32:06Z</time>
      </trkpt>
      <trkpt lat="43.08455" lon="-0.03298">
        <ele>758.2</ele>
        <time>2022-10-07T07:32:07Z</time>
      </trkpt>
      <trkpt lat="43.0845" lon="-0.03302">
        <ele>758.8</ele>
        <time>2022-10-07T07:32:10Z</time>
      </trkpt>
      <trkpt lat="43.08447" lon="-0.03304">
        <ele>759</ele>
        <time>2022-10-07T07:32:12Z</time>
      </trkpt>
      <trkpt lat="43.0844" lon="-0.03309">
        <ele>759.8</ele>
        <time>2022-10-07T07:32:16Z</time>
      </trkpt>
      <trkpt lat="43.08434" lon="-0.03316">
        <ele>760.6</ele>
        <time>2022-10-07T07:32:20Z</time>
      </trkpt>
      <trkpt lat="43.08431" lon="-0.03317">
        <ele>760.8</ele>
        <time>2022-10-07T07:32:21Z</time>
      </trkpt>
      <trkpt lat="43.08429" lon="-0.03318">
        <ele>761</ele>
        <time>2022-10-07T07:32:22Z</time>
      </trkpt>
      <trkpt lat="43.08423" lon="-0.03325">
        <ele>761.6</ele>
        <time>2022-10-07T07:32:26Z</time>
      </trkpt>
      <trkpt lat="43.08421" lon="-0.03328">
        <ele>761.8</ele>
        <time>2022-10-07T07:32:28Z</time>
      </trkpt>
      <trkpt lat="43.08418" lon="-0.03328">
        <ele>762.4</ele>
        <time>2022-10-07T07:32:30Z</time>
      </trkpt>
      <trkpt lat="43.08416" lon="-0.03331">
        <ele>762.8</ele>
        <time>2022-10-07T07:32:32Z</time>
      </trkpt>
      <trkpt lat="43.0841" lon="-0.03335">
        <ele>763.4</ele>
        <time>2022-10-07T07:32:36Z</time>
      </trkpt>
      <trkpt lat="43.08406" lon="-0.03338">
        <ele>764.4</ele>
        <time>2022-10-07T07:32:39Z</time>
      </trkpt>
      <trkpt lat="43.08405" lon="-0.03339">
        <ele>764.6</ele>
        <time>2022-10-07T07:32:40Z</time>
      </trkpt>
      <trkpt lat="43.08398" lon="-0.03343">
        <ele>765.6</ele>
        <time>2022-10-07T07:32:45Z</time>
      </trkpt>
      <trkpt lat="43.08394" lon="-0.03346">
        <ele>766</ele>
        <time>2022-10-07T07:32:48Z</time>
      </trkpt>
      <trkpt lat="43.08388" lon="-0.0335">
        <ele>766.8</ele>
        <time>2022-10-07T07:32:52Z</time>
      </trkpt>
      <trkpt lat="43.08383" lon="-0.03353">
        <ele>767.6</ele>
        <time>2022-10-07T07:32:56Z</time>
      </trkpt>
      <trkpt lat="43.08381" lon="-0.03355">
        <ele>767.8</ele>
        <time>2022-10-07T07:32:58Z</time>
      </trkpt>
      <trkpt lat="43.0838" lon="-0.03355">
        <ele>768</ele>
        <time>2022-10-07T07:32:59Z</time>
      </trkpt>
      <trkpt lat="43.08377" lon="-0.03356">
        <ele>768.8</ele>
        <time>2022-10-07T07:33:02Z</time>
      </trkpt>
      <trkpt lat="43.08375" lon="-0.03359">
        <ele>768.8</ele>
        <time>2022-10-07T07:33:03Z</time>
      </trkpt>
      <trkpt lat="43.08374" lon="-0.0336">
        <ele>769</ele>
        <time>2022-10-07T07:33:04Z</time>
      </trkpt>
      <trkpt lat="43.08366" lon="-0.03378">
        <ele>770</ele>
        <time>2022-10-07T07:33:11Z</time>
      </trkpt>
      <trkpt lat="43.08364" lon="-0.0338">
        <ele>770.2</ele>
        <time>2022-10-07T07:33:12Z</time>
      </trkpt>
      <trkpt lat="43.08356" lon="-0.03381">
        <ele>771.2</ele>
        <time>2022-10-07T07:33:17Z</time>
      </trkpt>
      <trkpt lat="43.08355" lon="-0.0338">
        <ele>771.2</ele>
        <time>2022-10-07T07:33:18Z</time>
      </trkpt>
      <trkpt lat="43.08354" lon="-0.03379">
        <ele>771.4</ele>
        <time>2022-10-07T07:33:19Z</time>
      </trkpt>
      <trkpt lat="43.08352" lon="-0.03376">
        <ele>771.6</ele>
        <time>2022-10-07T07:33:21Z</time>
      </trkpt>
      <trkpt lat="43.08354" lon="-0.0337">
        <ele>771.8</ele>
        <time>2022-10-07T07:33:24Z</time>
      </trkpt>
      <trkpt lat="43.08357" lon="-0.03366">
        <ele>772.2</ele>
        <time>2022-10-07T07:33:28Z</time>
      </trkpt>
      <trkpt lat="43.08358" lon="-0.03363">
        <ele>772.6</ele>
        <time>2022-10-07T07:33:30Z</time>
      </trkpt>
      <trkpt lat="43.08365" lon="-0.03357">
        <ele>773.2</ele>
        <time>2022-10-07T07:33:35Z</time>
      </trkpt>
      <trkpt lat="43.08367" lon="-0.03353">
        <ele>773.6</ele>
        <time>2022-10-07T07:33:37Z</time>
      </trkpt>
      <trkpt lat="43.0837" lon="-0.03343">
        <ele>774.2</ele>
        <time>2022-10-07T07:33:42Z</time>
      </trkpt>
      <trkpt lat="43.08372" lon="-0.03338">
        <ele>774.6</ele>
        <time>2022-10-07T07:33:45Z</time>
      </trkpt>
      <trkpt lat="43.08375" lon="-0.03331">
        <ele>775.6</ele>
        <time>2022-10-07T07:33:48Z</time>
      </trkpt>
      <trkpt lat="43.08377" lon="-0.03325">
        <ele>776.2</ele>
        <time>2022-10-07T07:33:51Z</time>
      </trkpt>
      <trkpt lat="43.08377" lon="-0.03323">
        <ele>776.4</ele>
        <time>2022-10-07T07:33:52Z</time>
      </trkpt>
      <trkpt lat="43.0838" lon="-0.03319">
        <ele>776.6</ele>
        <time>2022-10-07T07:33:54Z</time>
      </trkpt>
      <trkpt lat="43.08385" lon="-0.03309">
        <ele>777.6</ele>
        <time>2022-10-07T07:33:59Z</time>
      </trkpt>
      <trkpt lat="43.08387" lon="-0.03306">
        <ele>777.6</ele>
        <time>2022-10-07T07:34:00Z</time>
      </trkpt>
      <trkpt lat="43.08392" lon="-0.03297">
        <ele>778.8</ele>
        <time>2022-10-07T07:34:05Z</time>
      </trkpt>
      <trkpt lat="43.08394" lon="-0.03292">
        <ele>779</ele>
        <time>2022-10-07T07:34:08Z</time>
      </trkpt>
      <trkpt lat="43.08396" lon="-0.0329">
        <ele>779.2</ele>
        <time>2022-10-07T07:34:10Z</time>
      </trkpt>
      <trkpt lat="43.08398" lon="-0.03285">
        <ele>779.8</ele>
        <time>2022-10-07T07:34:13Z</time>
      </trkpt>
      <trkpt lat="43.08399" lon="-0.03283">
        <ele>780</ele>
        <time>2022-10-07T07:34:14Z</time>
      </trkpt>
      <trkpt lat="43.08402" lon="-0.03276">
        <ele>780.8</ele>
        <time>2022-10-07T07:34:18Z</time>
      </trkpt>
      <trkpt lat="43.08407" lon="-0.03266">
        <ele>781.6</ele>
        <time>2022-10-07T07:34:24Z</time>
      </trkpt>
      <trkpt lat="43.08408" lon="-0.03265">
        <ele>781.8</ele>
        <time>2022-10-07T07:34:25Z</time>
      </trkpt>
      <trkpt lat="43.08411" lon="-0.03256">
        <ele>782.6</ele>
        <time>2022-10-07T07:34:30Z</time>
      </trkpt>
      <trkpt lat="43.08413" lon="-0.03253">
        <ele>783</ele>
        <time>2022-10-07T07:34:32Z</time>
      </trkpt>
      <trkpt lat="43.08417" lon="-0.03245">
        <ele>783.4</ele>
        <time>2022-10-07T07:34:36Z</time>
      </trkpt>
      <trkpt lat="43.0842" lon="-0.03237">
        <ele>784.2</ele>
        <time>2022-10-07T07:34:41Z</time>
      </trkpt>
      <trkpt lat="43.08423" lon="-0.03227">
        <ele>785.4</ele>
        <time>2022-10-07T07:34:48Z</time>
      </trkpt>
      <trkpt lat="43.08425" lon="-0.03221">
        <ele>786</ele>
        <time>2022-10-07T07:34:51Z</time>
      </trkpt>
      <trkpt lat="43.08427" lon="-0.03216">
        <ele>786.4</ele>
        <time>2022-10-07T07:34:54Z</time>
      </trkpt>
      <trkpt lat="43.08428" lon="-0.03205">
        <ele>787.2</ele>
        <time>2022-10-07T07:35:00Z</time>
      </trkpt>
      <trkpt lat="43.08429" lon="-0.03202">
        <ele>787.6</ele>
        <time>2022-10-07T07:35:02Z</time>
      </trkpt>
      <trkpt lat="43.08431" lon="-0.03195">
        <ele>788.6</ele>
        <time>2022-10-07T07:35:06Z</time>
      </trkpt>
      <trkpt lat="43.08432" lon="-0.03194">
        <ele>788.8</ele>
        <time>2022-10-07T07:35:07Z</time>
      </trkpt>
      <trkpt lat="43.08432" lon="-0.03192">
        <ele>788.8</ele>
        <time>2022-10-07T07:35:08Z</time>
      </trkpt>
      <trkpt lat="43.08433" lon="-0.0319">
        <ele>789.2</ele>
        <time>2022-10-07T07:35:09Z</time>
      </trkpt>
      <trkpt lat="43.08435" lon="-0.03186">
        <ele>789.8</ele>
        <time>2022-10-07T07:35:11Z</time>
      </trkpt>
      <trkpt lat="43.08436" lon="-0.03181">
        <ele>790.2</ele>
        <time>2022-10-07T07:35:14Z</time>
      </trkpt>
      <trkpt lat="43.08436" lon="-0.03176">
        <ele>790.8</ele>
        <time>2022-10-07T07:35:17Z</time>
      </trkpt>
      <trkpt lat="43.08439" lon="-0.03165">
        <ele>791.4</ele>
        <time>2022-10-07T07:35:22Z</time>
      </trkpt>
      <trkpt lat="43.08441" lon="-0.0316">
        <ele>792</ele>
        <time>2022-10-07T07:35:24Z</time>
      </trkpt>
      <trkpt lat="43.08445" lon="-0.03144">
        <ele>792.6</ele>
        <time>2022-10-07T07:35:30Z</time>
      </trkpt>
      <trkpt lat="43.08446" lon="-0.03141">
        <ele>793.2</ele>
        <time>2022-10-07T07:35:32Z</time>
      </trkpt>
      <trkpt lat="43.08448" lon="-0.03127">
        <ele>794.2</ele>
        <time>2022-10-07T07:35:38Z</time>
      </trkpt>
      <trkpt lat="43.08451" lon="-0.03108">
        <ele>795.2</ele>
        <time>2022-10-07T07:35:47Z</time>
      </trkpt>
      <trkpt lat="43.08454" lon="-0.03099">
        <ele>795.6</ele>
        <time>2022-10-07T07:35:51Z</time>
      </trkpt>
      <trkpt lat="43.08453" lon="-0.03094">
        <ele>795.8</ele>
        <time>2022-10-07T07:35:53Z</time>
      </trkpt>
      <trkpt lat="43.08448" lon="-0.0309">
        <ele>796.2</ele>
        <time>2022-10-07T07:35:56Z</time>
      </trkpt>
      <trkpt lat="43.08446" lon="-0.0309">
        <ele>796.4</ele>
        <time>2022-10-07T07:35:57Z</time>
      </trkpt>
      <trkpt lat="43.08445" lon="-0.03091">
        <ele>796.6</ele>
        <time>2022-10-07T07:35:58Z</time>
      </trkpt>
      <trkpt lat="43.08442" lon="-0.031">
        <ele>797.4</ele>
        <time>2022-10-07T07:36:03Z</time>
      </trkpt>
      <trkpt lat="43.08441" lon="-0.03114">
        <ele>797.6</ele>
        <time>2022-10-07T07:36:09Z</time>
      </trkpt>
      <trkpt lat="43.08437" lon="-0.03127">
        <ele>798.6</ele>
        <time>2022-10-07T07:36:15Z</time>
      </trkpt>
      <trkpt lat="43.08437" lon="-0.03129">
        <ele>798.8</ele>
        <time>2022-10-07T07:36:16Z</time>
      </trkpt>
      <trkpt lat="43.08435" lon="-0.03135">
        <ele>799.6</ele>
        <time>2022-10-07T07:36:19Z</time>
      </trkpt>
      <trkpt lat="43.08432" lon="-0.0314">
        <ele>800</ele>
        <time>2022-10-07T07:36:22Z</time>
      </trkpt>
      <trkpt lat="43.08428" lon="-0.03147">
        <ele>800.6</ele>
        <time>2022-10-07T07:36:26Z</time>
      </trkpt>
      <trkpt lat="43.08427" lon="-0.03149">
        <ele>800.8</ele>
        <time>2022-10-07T07:36:28Z</time>
      </trkpt>
      <trkpt lat="43.08423" lon="-0.03152">
        <ele>801.6</ele>
        <time>2022-10-07T07:36:31Z</time>
      </trkpt>
      <trkpt lat="43.08421" lon="-0.03158">
        <ele>802.4</ele>
        <time>2022-10-07T07:36:35Z</time>
      </trkpt>
      <trkpt lat="43.08418" lon="-0.03162">
        <ele>802.8</ele>
        <time>2022-10-07T07:36:37Z</time>
      </trkpt>
      <trkpt lat="43.08409" lon="-0.03172">
        <ele>804</ele>
        <time>2022-10-07T07:36:45Z</time>
      </trkpt>
      <trkpt lat="43.08407" lon="-0.03173">
        <ele>804.6</ele>
        <time>2022-10-07T07:36:47Z</time>
      </trkpt>
      <trkpt lat="43.08403" lon="-0.03178">
        <ele>805</ele>
        <time>2022-10-07T07:36:51Z</time>
      </trkpt>
      <trkpt lat="43.08397" lon="-0.03187">
        <ele>806</ele>
        <time>2022-10-07T07:36:57Z</time>
      </trkpt>
      <trkpt lat="43.08396" lon="-0.03189">
        <ele>806</ele>
        <time>2022-10-07T07:36:58Z</time>
      </trkpt>
      <trkpt lat="43.08389" lon="-0.03199">
        <ele>807.2</ele>
        <time>2022-10-07T07:37:05Z</time>
      </trkpt>
      <trkpt lat="43.08385" lon="-0.03205">
        <ele>807.8</ele>
        <time>2022-10-07T07:37:10Z</time>
      </trkpt>
      <trkpt lat="43.08384" lon="-0.03206">
        <ele>808.4</ele>
        <time>2022-10-07T07:37:11Z</time>
      </trkpt>
      <trkpt lat="43.08376" lon="-0.03213">
        <ele>809.6</ele>
        <time>2022-10-07T07:37:18Z</time>
      </trkpt>
      <trkpt lat="43.08369" lon="-0.03221">
        <ele>810.8</ele>
        <time>2022-10-07T07:37:24Z</time>
      </trkpt>
      <trkpt lat="43.08366" lon="-0.03224">
        <ele>811.4</ele>
        <time>2022-10-07T07:37:27Z</time>
      </trkpt>
      <trkpt lat="43.08364" lon="-0.03228">
        <ele>811.8</ele>
        <time>2022-10-07T07:37:30Z</time>
      </trkpt>
      <trkpt lat="43.08361" lon="-0.03233">
        <ele>812.6</ele>
        <time>2022-10-07T07:37:33Z</time>
      </trkpt>
      <trkpt lat="43.08359" lon="-0.03234">
        <ele>813.2</ele>
        <time>2022-10-07T07:37:35Z</time>
      </trkpt>
      <trkpt lat="43.08351" lon="-0.03239">
        <ele>814.4</ele>
        <time>2022-10-07T07:37:41Z</time>
      </trkpt>
      <trkpt lat="43.08344" lon="-0.03246">
        <ele>815.6</ele>
        <time>2022-10-07T07:37:47Z</time>
      </trkpt>
      <trkpt lat="43.08341" lon="-0.03249">
        <ele>816</ele>
        <time>2022-10-07T07:37:50Z</time>
      </trkpt>
      <trkpt lat="43.08337" lon="-0.03251">
        <ele>816.8</ele>
        <time>2022-10-07T07:37:53Z</time>
      </trkpt>
      <trkpt lat="43.08332" lon="-0.03255">
        <ele>817.6</ele>
        <time>2022-10-07T07:37:57Z</time>
      </trkpt>
      <trkpt lat="43.08329" lon="-0.03257">
        <ele>818</ele>
        <time>2022-10-07T07:37:59Z</time>
      </trkpt>
      <trkpt lat="43.08326" lon="-0.0326">
        <ele>818.8</ele>
        <time>2022-10-07T07:38:02Z</time>
      </trkpt>
      <trkpt lat="43.08317" lon="-0.03265">
        <ele>819.8</ele>
        <time>2022-10-07T07:38:08Z</time>
      </trkpt>
      <trkpt lat="43.08306" lon="-0.03272">
        <ele>820.8</ele>
        <time>2022-10-07T07:38:16Z</time>
      </trkpt>
      <trkpt lat="43.08296" lon="-0.03276">
        <ele>822</ele>
        <time>2022-10-07T07:38:24Z</time>
      </trkpt>
      <trkpt lat="43.08289" lon="-0.03281">
        <ele>823</ele>
        <time>2022-10-07T07:38:30Z</time>
      </trkpt>
      <trkpt lat="43.08287" lon="-0.03281">
        <ele>823.2</ele>
        <time>2022-10-07T07:38:31Z</time>
      </trkpt>
      <trkpt lat="43.08279" lon="-0.03283">
        <ele>824.2</ele>
        <time>2022-10-07T07:38:36Z</time>
      </trkpt>
      <trkpt lat="43.08274" lon="-0.03285">
        <ele>824.8</ele>
        <time>2022-10-07T07:38:39Z</time>
      </trkpt>
      <trkpt lat="43.08272" lon="-0.03286">
        <ele>825</ele>
        <time>2022-10-07T07:38:40Z</time>
      </trkpt>
      <trkpt lat="43.08269" lon="-0.03287">
        <ele>825.6</ele>
        <time>2022-10-07T07:38:42Z</time>
      </trkpt>
      <trkpt lat="43.08258" lon="-0.03287">
        <ele>826.4</ele>
        <time>2022-10-07T07:38:48Z</time>
      </trkpt>
      <trkpt lat="43.08256" lon="-0.03287">
        <ele>826.6</ele>
        <time>2022-10-07T07:38:50Z</time>
      </trkpt>
      <trkpt lat="43.0825" lon="-0.03288">
        <ele>827.8</ele>
        <time>2022-10-07T07:38:55Z</time>
      </trkpt>
      <trkpt lat="43.08249" lon="-0.03288">
        <ele>827.8</ele>
        <time>2022-10-07T07:38:56Z</time>
      </trkpt>
      <trkpt lat="43.08244" lon="-0.03288">
        <ele>828.6</ele>
        <time>2022-10-07T07:39:00Z</time>
      </trkpt>
      <trkpt lat="43.08242" lon="-0.03288">
        <ele>828.8</ele>
        <time>2022-10-07T07:39:01Z</time>
      </trkpt>
      <trkpt lat="43.08238" lon="-0.03289">
        <ele>829.2</ele>
        <time>2022-10-07T07:39:04Z</time>
      </trkpt>
      <trkpt lat="43.08234" lon="-0.03289">
        <ele>830</ele>
        <time>2022-10-07T07:39:07Z</time>
      </trkpt>
      <trkpt lat="43.08232" lon="-0.03288">
        <ele>830.2</ele>
        <time>2022-10-07T07:39:08Z</time>
      </trkpt>
      <trkpt lat="43.08229" lon="-0.03288">
        <ele>830.4</ele>
        <time>2022-10-07T07:39:10Z</time>
      </trkpt>
      <trkpt lat="43.08227" lon="-0.03288">
        <ele>831.2</ele>
        <time>2022-10-07T07:39:12Z</time>
      </trkpt>
      <trkpt lat="43.08221" lon="-0.03288">
        <ele>832.2</ele>
        <time>2022-10-07T07:39:16Z</time>
      </trkpt>
      <trkpt lat="43.0822" lon="-0.03288">
        <ele>832.4</ele>
        <time>2022-10-07T07:39:17Z</time>
      </trkpt>
      <trkpt lat="43.08213" lon="-0.0329">
        <ele>833.4</ele>
        <time>2022-10-07T07:39:22Z</time>
      </trkpt>
      <trkpt lat="43.08209" lon="-0.0329">
        <ele>833.8</ele>
        <time>2022-10-07T07:39:25Z</time>
      </trkpt>
      <trkpt lat="43.082" lon="-0.03294">
        <ele>834.2</ele>
        <time>2022-10-07T07:39:31Z</time>
      </trkpt>
      <trkpt lat="43.08199" lon="-0.03295">
        <ele>834.4</ele>
        <time>2022-10-07T07:39:32Z</time>
      </trkpt>
      <trkpt lat="43.08191" lon="-0.033">
        <ele>835.4</ele>
        <time>2022-10-07T07:39:37Z</time>
      </trkpt>
      <trkpt lat="43.08188" lon="-0.03301">
        <ele>835.8</ele>
        <time>2022-10-07T07:39:40Z</time>
      </trkpt>
      <trkpt lat="43.08185" lon="-0.03299">
        <ele>836.2</ele>
        <time>2022-10-07T07:39:42Z</time>
      </trkpt>
      <trkpt lat="43.08183" lon="-0.03295">
        <ele>836.4</ele>
        <time>2022-10-07T07:39:44Z</time>
      </trkpt>
      <trkpt lat="43.08183" lon="-0.03293">
        <ele>836.4</ele>
        <time>2022-10-07T07:39:45Z</time>
      </trkpt>
      <trkpt lat="43.0819" lon="-0.03287">
        <ele>837</ele>
        <time>2022-10-07T07:39:50Z</time>
      </trkpt>
      <trkpt lat="43.08195" lon="-0.03283">
        <ele>837.4</ele>
        <time>2022-10-07T07:39:54Z</time>
      </trkpt>
      <trkpt lat="43.08199" lon="-0.03281">
        <ele>837.4</ele>
        <time>2022-10-07T07:39:56Z</time>
      </trkpt>
      <trkpt lat="43.08205" lon="-0.03273">
        <ele>838.6</ele>
        <time>2022-10-07T07:40:02Z</time>
      </trkpt>
      <trkpt lat="43.08205" lon="-0.03271">
        <ele>838.8</ele>
        <time>2022-10-07T07:40:03Z</time>
      </trkpt>
      <trkpt lat="43.0821" lon="-0.03264">
        <ele>839.2</ele>
        <time>2022-10-07T07:40:07Z</time>
      </trkpt>
      <trkpt lat="43.08211" lon="-0.0326">
        <ele>839.6</ele>
        <time>2022-10-07T07:40:09Z</time>
      </trkpt>
      <trkpt lat="43.08217" lon="-0.03252">
        <ele>840.8</ele>
        <time>2022-10-07T07:40:16Z</time>
      </trkpt>
      <trkpt lat="43.08221" lon="-0.03245">
        <ele>842.2</ele>
        <time>2022-10-07T07:40:21Z</time>
      </trkpt>
      <trkpt lat="43.08223" lon="-0.03242">
        <ele>842.4</ele>
        <time>2022-10-07T07:40:23Z</time>
      </trkpt>
      <trkpt lat="43.08224" lon="-0.03241">
        <ele>842.6</ele>
        <time>2022-10-07T07:40:24Z</time>
      </trkpt>
      <trkpt lat="43.08225" lon="-0.03238">
        <ele>843.2</ele>
        <time>2022-10-07T07:40:26Z</time>
      </trkpt>
      <trkpt lat="43.08232" lon="-0.03227">
        <ele>844.2</ele>
        <time>2022-10-07T07:40:32Z</time>
      </trkpt>
      <trkpt lat="43.08233" lon="-0.03225">
        <ele>844.4</ele>
        <time>2022-10-07T07:40:33Z</time>
      </trkpt>
      <trkpt lat="43.08236" lon="-0.03219">
        <ele>845.4</ele>
        <time>2022-10-07T07:40:38Z</time>
      </trkpt>
      <trkpt lat="43.08237" lon="-0.03217">
        <ele>845.6</ele>
        <time>2022-10-07T07:40:39Z</time>
      </trkpt>
      <trkpt lat="43.08241" lon="-0.03209">
        <ele>846.4</ele>
        <time>2022-10-07T07:40:44Z</time>
      </trkpt>
      <trkpt lat="43.08242" lon="-0.03206">
        <ele>846.6</ele>
        <time>2022-10-07T07:40:46Z</time>
      </trkpt>
      <trkpt lat="43.08246" lon="-0.03199">
        <ele>847.4</ele>
        <time>2022-10-07T07:40:51Z</time>
      </trkpt>
      <trkpt lat="43.08248" lon="-0.03195">
        <ele>848.4</ele>
        <time>2022-10-07T07:40:54Z</time>
      </trkpt>
      <trkpt lat="43.08249" lon="-0.03194">
        <ele>848.8</ele>
        <time>2022-10-07T07:40:55Z</time>
      </trkpt>
      <trkpt lat="43.08251" lon="-0.03192">
        <ele>849.4</ele>
        <time>2022-10-07T07:40:57Z</time>
      </trkpt>
      <trkpt lat="43.08252" lon="-0.03189">
        <ele>850</ele>
        <time>2022-10-07T07:40:59Z</time>
      </trkpt>
      <trkpt lat="43.08253" lon="-0.03188">
        <ele>850.2</ele>
        <time>2022-10-07T07:41:00Z</time>
      </trkpt>
      <trkpt lat="43.0826" lon="-0.03178">
        <ele>851.2</ele>
        <time>2022-10-07T07:41:07Z</time>
      </trkpt>
      <trkpt lat="43.08265" lon="-0.03172">
        <ele>852.4</ele>
        <time>2022-10-07T07:41:12Z</time>
      </trkpt>
      <trkpt lat="43.08269" lon="-0.03168">
        <ele>852.8</ele>
        <time>2022-10-07T07:41:15Z</time>
      </trkpt>
      <trkpt lat="43.08274" lon="-0.03163">
        <ele>853.4</ele>
        <time>2022-10-07T07:41:20Z</time>
      </trkpt>
      <trkpt lat="43.08277" lon="-0.0316">
        <ele>854</ele>
        <time>2022-10-07T07:41:22Z</time>
      </trkpt>
      <trkpt lat="43.0828" lon="-0.03157">
        <ele>854.4</ele>
        <time>2022-10-07T07:41:25Z</time>
      </trkpt>
      <trkpt lat="43.08288" lon="-0.03154">
        <ele>855.4</ele>
        <time>2022-10-07T07:41:31Z</time>
      </trkpt>
      <trkpt lat="43.0829" lon="-0.03155">
        <ele>855.6</ele>
        <time>2022-10-07T07:41:33Z</time>
      </trkpt>
      <trkpt lat="43.08296" lon="-0.0315">
        <ele>856.2</ele>
        <time>2022-10-07T07:41:37Z</time>
      </trkpt>
      <trkpt lat="43.08297" lon="-0.03146">
        <ele>856.6</ele>
        <time>2022-10-07T07:41:39Z</time>
      </trkpt>
      <trkpt lat="43.08296" lon="-0.03144">
        <ele>856.6</ele>
        <time>2022-10-07T07:41:40Z</time>
      </trkpt>
      <trkpt lat="43.08295" lon="-0.03142">
        <ele>856.6</ele>
        <time>2022-10-07T07:41:41Z</time>
      </trkpt>
      <trkpt lat="43.08294" lon="-0.0314">
        <ele>856.8</ele>
        <time>2022-10-07T07:41:42Z</time>
      </trkpt>
      <trkpt lat="43.08291" lon="-0.03139">
        <ele>857</ele>
        <time>2022-10-07T07:41:44Z</time>
      </trkpt>
      <trkpt lat="43.08286" lon="-0.03141">
        <ele>857.4</ele>
        <time>2022-10-07T07:41:47Z</time>
      </trkpt>
      <trkpt lat="43.08285" lon="-0.03142">
        <ele>857.8</ele>
        <time>2022-10-07T07:41:48Z</time>
      </trkpt>
      <trkpt lat="43.08275" lon="-0.03147">
        <ele>858.4</ele>
        <time>2022-10-07T07:41:55Z</time>
      </trkpt>
      <trkpt lat="43.08273" lon="-0.03147">
        <ele>858.6</ele>
        <time>2022-10-07T07:41:56Z</time>
      </trkpt>
      <trkpt lat="43.08271" lon="-0.03146">
        <ele>858.8</ele>
        <time>2022-10-07T07:41:58Z</time>
      </trkpt>
      <trkpt lat="43.08268" lon="-0.03145">
        <ele>859</ele>
        <time>2022-10-07T07:42:00Z</time>
      </trkpt>
      <trkpt lat="43.08267" lon="-0.03143">
        <ele>859.2</ele>
        <time>2022-10-07T07:42:01Z</time>
      </trkpt>
      <trkpt lat="43.0826" lon="-0.03136">
        <ele>859.8</ele>
        <time>2022-10-07T07:42:07Z</time>
      </trkpt>
      <trkpt lat="43.08259" lon="-0.03137">
        <ele>860</ele>
        <time>2022-10-07T07:42:08Z</time>
      </trkpt>
      <trkpt lat="43.08248" lon="-0.03138">
        <ele>861</ele>
        <time>2022-10-07T07:42:15Z</time>
      </trkpt>
      <trkpt lat="43.08243" lon="-0.03139">
        <ele>862</ele>
        <time>2022-10-07T07:42:19Z</time>
      </trkpt>
      <trkpt lat="43.08238" lon="-0.03141">
        <ele>863</ele>
        <time>2022-10-07T07:42:23Z</time>
      </trkpt>
      <trkpt lat="43.08237" lon="-0.03142">
        <ele>863.6</ele>
        <time>2022-10-07T07:42:24Z</time>
      </trkpt>
      <trkpt lat="43.08233" lon="-0.03143">
        <ele>864.2</ele>
        <time>2022-10-07T07:42:27Z</time>
      </trkpt>
      <trkpt lat="43.08227" lon="-0.03147">
        <ele>865.4</ele>
        <time>2022-10-07T07:42:31Z</time>
      </trkpt>
      <trkpt lat="43.08217" lon="-0.03155">
        <ele>866.6</ele>
        <time>2022-10-07T07:42:39Z</time>
      </trkpt>
      <trkpt lat="43.08211" lon="-0.03159">
        <ele>868</ele>
        <time>2022-10-07T07:42:45Z</time>
      </trkpt>
      <trkpt lat="43.08209" lon="-0.0316">
        <ele>868.2</ele>
        <time>2022-10-07T07:42:47Z</time>
      </trkpt>
      <trkpt lat="43.08202" lon="-0.03161">
        <ele>869</ele>
        <time>2022-10-07T07:42:52Z</time>
      </trkpt>
      <trkpt lat="43.08199" lon="-0.03161">
        <ele>869.2</ele>
        <time>2022-10-07T07:42:54Z</time>
      </trkpt>
      <trkpt lat="43.08193" lon="-0.03163">
        <ele>870.2</ele>
        <time>2022-10-07T07:42:58Z</time>
      </trkpt>
      <trkpt lat="43.08186" lon="-0.03165">
        <ele>871.2</ele>
        <time>2022-10-07T07:43:03Z</time>
      </trkpt>
      <trkpt lat="43.08181" lon="-0.03168">
        <ele>872.2</ele>
        <time>2022-10-07T07:43:07Z</time>
      </trkpt>
      <trkpt lat="43.08176" lon="-0.0317">
        <ele>873</ele>
        <time>2022-10-07T07:43:10Z</time>
      </trkpt>
      <trkpt lat="43.08173" lon="-0.03172">
        <ele>873.6</ele>
        <time>2022-10-07T07:43:12Z</time>
      </trkpt>
      <trkpt lat="43.08166" lon="-0.03175">
        <ele>874.6</ele>
        <time>2022-10-07T07:43:17Z</time>
      </trkpt>
      <trkpt lat="43.08164" lon="-0.03175">
        <ele>874.6</ele>
        <time>2022-10-07T07:43:18Z</time>
      </trkpt>
      <trkpt lat="43.08155" lon="-0.03179">
        <ele>875.6</ele>
        <time>2022-10-07T07:43:24Z</time>
      </trkpt>
      <trkpt lat="43.08154" lon="-0.03181">
        <ele>875.8</ele>
        <time>2022-10-07T07:43:25Z</time>
      </trkpt>
      <trkpt lat="43.08146" lon="-0.03184">
        <ele>877</ele>
        <time>2022-10-07T07:43:31Z</time>
      </trkpt>
      <trkpt lat="43.08145" lon="-0.03184">
        <ele>877</ele>
        <time>2022-10-07T07:43:32Z</time>
      </trkpt>
      <trkpt lat="43.08138" lon="-0.03187">
        <ele>877.8</ele>
        <time>2022-10-07T07:43:37Z</time>
      </trkpt>
      <trkpt lat="43.08132" lon="-0.0319">
        <ele>878.8</ele>
        <time>2022-10-07T07:43:42Z</time>
      </trkpt>
      <trkpt lat="43.08131" lon="-0.03191">
        <ele>878.8</ele>
        <time>2022-10-07T07:43:43Z</time>
      </trkpt>
      <trkpt lat="43.08127" lon="-0.03193">
        <ele>880</ele>
        <time>2022-10-07T07:43:47Z</time>
      </trkpt>
      <trkpt lat="43.08121" lon="-0.03195">
        <ele>880.6</ele>
        <time>2022-10-07T07:43:51Z</time>
      </trkpt>
      <trkpt lat="43.08116" lon="-0.03197">
        <ele>881</ele>
        <time>2022-10-07T07:43:54Z</time>
      </trkpt>
      <trkpt lat="43.08115" lon="-0.03198">
        <ele>881.2</ele>
        <time>2022-10-07T07:43:55Z</time>
      </trkpt>
      <trkpt lat="43.08111" lon="-0.03201">
        <ele>882</ele>
        <time>2022-10-07T07:43:58Z</time>
      </trkpt>
      <trkpt lat="43.08102" lon="-0.0321">
        <ele>882.8</ele>
        <time>2022-10-07T07:44:05Z</time>
      </trkpt>
      <trkpt lat="43.08099" lon="-0.03213">
        <ele>883</ele>
        <time>2022-10-07T07:44:07Z</time>
      </trkpt>
      <trkpt lat="43.08092" lon="-0.03222">
        <ele>883.2</ele>
        <time>2022-10-07T07:44:14Z</time>
      </trkpt>
      <trkpt lat="43.08091" lon="-0.03226">
        <ele>882.8</ele>
        <time>2022-10-07T07:44:19Z</time>
      </trkpt>
      <trkpt lat="43.08087" lon="-0.03232">
        <ele>882.2</ele>
        <time>2022-10-07T07:44:40Z</time>
      </trkpt>
      <trkpt lat="43.08076" lon="-0.03241">
        <ele>882</ele>
        <time>2022-10-07T07:44:46Z</time>
      </trkpt>
      <trkpt lat="43.08074" lon="-0.03241">
        <ele>882</ele>
        <time>2022-10-07T07:44:48Z</time>
      </trkpt>
      <trkpt lat="43.08068" lon="-0.03244">
        <ele>882</ele>
        <time>2022-10-07T07:44:51Z</time>
      </trkpt>
      <trkpt lat="43.08052" lon="-0.0325">
        <ele>882.2</ele>
        <time>2022-10-07T07:45:00Z</time>
      </trkpt>
      <trkpt lat="43.08038" lon="-0.03258">
        <ele>882.2</ele>
        <time>2022-10-07T07:45:09Z</time>
      </trkpt>
      <trkpt lat="43.08027" lon="-0.03268">
        <ele>882</ele>
        <time>2022-10-07T07:45:17Z</time>
      </trkpt>
      <trkpt lat="43.08018" lon="-0.03273">
        <ele>881.8</ele>
        <time>2022-10-07T07:45:25Z</time>
      </trkpt>
      <trkpt lat="43.08014" lon="-0.03278">
        <ele>881.8</ele>
        <time>2022-10-07T07:45:31Z</time>
      </trkpt>
      <trkpt lat="43.08014" lon="-0.0328">
        <ele>881.4</ele>
        <time>2022-10-07T07:45:40Z</time>
      </trkpt>
      <trkpt lat="43.08014" lon="-0.0328">
        <ele>881.2</ele>
        <time>2022-10-07T07:45:50Z</time>
      </trkpt>
      <trkpt lat="43.08013" lon="-0.03281">
        <ele>881.2</ele>
        <time>2022-10-07T07:49:33Z</time>
      </trkpt>
      <trkpt lat="43.08013" lon="-0.03281">
        <ele>881.2</ele>
        <time>2022-10-07T07:50:32Z</time>
      </trkpt>
      <trkpt lat="43.08013" lon="-0.03281">
        <ele>881</ele>
        <time>2022-10-07T07:51:11Z</time>
      </trkpt>
      <trkpt lat="43.0801" lon="-0.0328">
        <ele>881.2</ele>
        <time>2022-10-07T07:51:13Z</time>
      </trkpt>
      <trkpt lat="43.08009" lon="-0.03279">
        <ele>881.2</ele>
        <time>2022-10-07T07:51:14Z</time>
      </trkpt>
      <trkpt lat="43.0801" lon="-0.03276">
        <ele>881.4</ele>
        <time>2022-10-07T07:51:17Z</time>
      </trkpt>
      <trkpt lat="43.08012" lon="-0.03277">
        <ele>881.4</ele>
        <time>2022-10-07T07:51:19Z</time>
      </trkpt>
      <trkpt lat="43.08013" lon="-0.03279">
        <ele>881.6</ele>
        <time>2022-10-07T07:51:21Z</time>
      </trkpt>
      <trkpt lat="43.08014" lon="-0.03283">
        <ele>881.6</ele>
        <time>2022-10-07T07:51:25Z</time>
      </trkpt>
      <trkpt lat="43.08014" lon="-0.03283">
        <ele>881</ele>
        <time>2022-10-07T07:51:33Z</time>
      </trkpt>
      <trkpt lat="43.08014" lon="-0.03283">
        <ele>879.8</ele>
        <time>2022-10-07T07:51:48Z</time>
      </trkpt>
      <trkpt lat="43.08015" lon="-0.03283">
        <ele>878.6</ele>
        <time>2022-10-07T07:51:56Z</time>
      </trkpt>
      <trkpt lat="43.08016" lon="-0.03283">
        <ele>877.4</ele>
        <time>2022-10-07T07:52:03Z</time>
      </trkpt>
      <trkpt lat="43.08016" lon="-0.03283">
        <ele>876.8</ele>
        <time>2022-10-07T07:52:05Z</time>
      </trkpt>
      <trkpt lat="43.08018" lon="-0.03284">
        <ele>876.4</ele>
        <time>2022-10-07T07:52:09Z</time>
      </trkpt>
      <trkpt lat="43.08019" lon="-0.03284">
        <ele>875.2</ele>
        <time>2022-10-07T07:52:15Z</time>
      </trkpt>
      <trkpt lat="43.08019" lon="-0.03284">
        <ele>875.2</ele>
        <time>2022-10-07T07:52:16Z</time>
      </trkpt>
      <trkpt lat="43.0802" lon="-0.03284">
        <ele>874.2</ele>
        <time>2022-10-07T07:52:21Z</time>
      </trkpt>
      <trkpt lat="43.0802" lon="-0.03284">
        <ele>873.2</ele>
        <time>2022-10-07T07:52:26Z</time>
      </trkpt>
      <trkpt lat="43.08022" lon="-0.03285">
        <ele>872.4</ele>
        <time>2022-10-07T07:52:29Z</time>
      </trkpt>
      <trkpt lat="43.08023" lon="-0.03285">
        <ele>872</ele>
        <time>2022-10-07T07:52:30Z</time>
      </trkpt>
      <trkpt lat="43.08028" lon="-0.03289">
        <ele>870.6</ele>
        <time>2022-10-07T07:52:35Z</time>
      </trkpt>
      <trkpt lat="43.0803" lon="-0.0329">
        <ele>869.6</ele>
        <time>2022-10-07T07:52:39Z</time>
      </trkpt>
      <trkpt lat="43.0803" lon="-0.0329">
        <ele>869.4</ele>
        <time>2022-10-07T07:52:40Z</time>
      </trkpt>
      <trkpt lat="43.08031" lon="-0.03292">
        <ele>869</ele>
        <time>2022-10-07T07:52:46Z</time>
      </trkpt>
      <trkpt lat="43.0803" lon="-0.03293">
        <ele>868.6</ele>
        <time>2022-10-07T07:52:59Z</time>
      </trkpt>
      <trkpt lat="43.0803" lon="-0.03293">
        <ele>868.6</ele>
        <time>2022-10-07T07:53:00Z</time>
      </trkpt>
      <trkpt lat="43.08028" lon="-0.03296">
        <ele>868.6</ele>
        <time>2022-10-07T07:53:02Z</time>
      </trkpt>
      <trkpt lat="43.0803" lon="-0.03302">
        <ele>868.2</ele>
        <time>2022-10-07T07:53:05Z</time>
      </trkpt>
      <trkpt lat="43.0803" lon="-0.03302">
        <ele>868.2</ele>
        <time>2022-10-07T07:53:06Z</time>
      </trkpt>
      <trkpt lat="43.08032" lon="-0.03305">
        <ele>868</ele>
        <time>2022-10-07T07:53:07Z</time>
      </trkpt>
      <trkpt lat="43.08037" lon="-0.03306">
        <ele>867.8</ele>
        <time>2022-10-07T07:53:09Z</time>
      </trkpt>
      <trkpt lat="43.08037" lon="-0.03306">
        <ele>867.6</ele>
        <time>2022-10-07T07:53:10Z</time>
      </trkpt>
      <trkpt lat="43.08045" lon="-0.03304">
        <ele>866.8</ele>
        <time>2022-10-07T07:53:12Z</time>
      </trkpt>
      <trkpt lat="43.08046" lon="-0.03303">
        <ele>865.6</ele>
        <time>2022-10-07T07:53:15Z</time>
      </trkpt>
      <trkpt lat="43.08046" lon="-0.03303">
        <ele>864</ele>
        <time>2022-10-07T07:53:18Z</time>
      </trkpt>
      <trkpt lat="43.08047" lon="-0.03305">
        <ele>863.6</ele>
        <time>2022-10-07T07:53:22Z</time>
      </trkpt>
      <trkpt lat="43.08053" lon="-0.03307">
        <ele>863.4</ele>
        <time>2022-10-07T07:53:24Z</time>
      </trkpt>
      <trkpt lat="43.0806" lon="-0.0331">
        <ele>863.2</ele>
        <time>2022-10-07T07:53:27Z</time>
      </trkpt>
      <trkpt lat="43.08062" lon="-0.03312">
        <ele>863</ele>
        <time>2022-10-07T07:53:29Z</time>
      </trkpt>
      <trkpt lat="43.08067" lon="-0.03315">
        <ele>862.6</ele>
        <time>2022-10-07T07:53:31Z</time>
      </trkpt>
      <trkpt lat="43.08072" lon="-0.03314">
        <ele>861.8</ele>
        <time>2022-10-07T07:53:33Z</time>
      </trkpt>
      <trkpt lat="43.08076" lon="-0.03314">
        <ele>860.8</ele>
        <time>2022-10-07T07:53:35Z</time>
      </trkpt>
      <trkpt lat="43.08078" lon="-0.03314">
        <ele>859.4</ele>
        <time>2022-10-07T07:53:38Z</time>
      </trkpt>
      <trkpt lat="43.08078" lon="-0.03314">
        <ele>858.6</ele>
        <time>2022-10-07T07:53:39Z</time>
      </trkpt>
      <trkpt lat="43.08079" lon="-0.03314">
        <ele>857.8</ele>
        <time>2022-10-07T07:53:41Z</time>
      </trkpt>
      <trkpt lat="43.08084" lon="-0.03317">
        <ele>857.4</ele>
        <time>2022-10-07T07:53:45Z</time>
      </trkpt>
      <trkpt lat="43.08093" lon="-0.03318">
        <ele>856.8</ele>
        <time>2022-10-07T07:53:48Z</time>
      </trkpt>
      <trkpt lat="43.08097" lon="-0.03319">
        <ele>855.6</ele>
        <time>2022-10-07T07:53:51Z</time>
      </trkpt>
      <trkpt lat="43.08098" lon="-0.03322">
        <ele>854</ele>
        <time>2022-10-07T07:53:54Z</time>
      </trkpt>
      <trkpt lat="43.08097" lon="-0.03324">
        <ele>853.6</ele>
        <time>2022-10-07T07:53:55Z</time>
      </trkpt>
      <trkpt lat="43.08095" lon="-0.03325">
        <ele>852.8</ele>
        <time>2022-10-07T07:53:56Z</time>
      </trkpt>
      <trkpt lat="43.08091" lon="-0.03326">
        <ele>851.4</ele>
        <time>2022-10-07T07:53:59Z</time>
      </trkpt>
      <trkpt lat="43.08091" lon="-0.03327">
        <ele>850.8</ele>
        <time>2022-10-07T07:54:00Z</time>
      </trkpt>
      <trkpt lat="43.0809" lon="-0.03327">
        <ele>850.4</ele>
        <time>2022-10-07T07:54:01Z</time>
      </trkpt>
      <trkpt lat="43.0809" lon="-0.03328">
        <ele>850.4</ele>
        <time>2022-10-07T07:54:02Z</time>
      </trkpt>
      <trkpt lat="43.08089" lon="-0.0333">
        <ele>849.6</ele>
        <time>2022-10-07T07:54:05Z</time>
      </trkpt>
      <trkpt lat="43.08089" lon="-0.0333">
        <ele>849.2</ele>
        <time>2022-10-07T07:54:07Z</time>
      </trkpt>
      <trkpt lat="43.08089" lon="-0.03331">
        <ele>848.2</ele>
        <time>2022-10-07T07:54:13Z</time>
      </trkpt>
      <trkpt lat="43.08089" lon="-0.03331">
        <ele>848</ele>
        <time>2022-10-07T07:54:14Z</time>
      </trkpt>
      <trkpt lat="43.08089" lon="-0.03331">
        <ele>846.8</ele>
        <time>2022-10-07T07:54:22Z</time>
      </trkpt>
      <trkpt lat="43.0809" lon="-0.03331">
        <ele>846.6</ele>
        <time>2022-10-07T07:54:29Z</time>
      </trkpt>
      <trkpt lat="43.0809" lon="-0.03331">
        <ele>845.8</ele>
        <time>2022-10-07T07:54:34Z</time>
      </trkpt>
      <trkpt lat="43.08092" lon="-0.03332">
        <ele>845.6</ele>
        <time>2022-10-07T07:54:40Z</time>
      </trkpt>
      <trkpt lat="43.08092" lon="-0.03339">
        <ele>845.2</ele>
        <time>2022-10-07T07:56:31Z</time>
      </trkpt>
      <trkpt lat="43.08091" lon="-0.03343">
        <ele>845.2</ele>
        <time>2022-10-07T07:56:32Z</time>
      </trkpt>
      <trkpt lat="43.08088" lon="-0.03347">
        <ele>845</ele>
        <time>2022-10-07T07:56:35Z</time>
      </trkpt>
      <trkpt lat="43.08087" lon="-0.03347">
        <ele>844</ele>
        <time>2022-10-07T07:56:38Z</time>
      </trkpt>
      <trkpt lat="43.08087" lon="-0.03347">
        <ele>843.4</ele>
        <time>2022-10-07T07:56:39Z</time>
      </trkpt>
      <trkpt lat="43.08085" lon="-0.03349">
        <ele>842.4</ele>
        <time>2022-10-07T07:56:47Z</time>
      </trkpt>
      <trkpt lat="43.08085" lon="-0.03349">
        <ele>842.4</ele>
        <time>2022-10-07T07:56:49Z</time>
      </trkpt>
      <trkpt lat="43.08086" lon="-0.0335">
        <ele>841.4</ele>
        <time>2022-10-07T07:56:57Z</time>
      </trkpt>
      <trkpt lat="43.08086" lon="-0.0335">
        <ele>841</ele>
        <time>2022-10-07T07:57:00Z</time>
      </trkpt>
      <trkpt lat="43.08086" lon="-0.03351">
        <ele>840.8</ele>
        <time>2022-10-07T07:57:02Z</time>
      </trkpt>
      <trkpt lat="43.08088" lon="-0.03353">
        <ele>840.4</ele>
        <time>2022-10-07T07:57:04Z</time>
      </trkpt>
      <trkpt lat="43.08091" lon="-0.03353">
        <ele>840</ele>
        <time>2022-10-07T07:57:06Z</time>
      </trkpt>
      <trkpt lat="43.08094" lon="-0.03354">
        <ele>840</ele>
        <time>2022-10-07T07:57:07Z</time>
      </trkpt>
      <trkpt lat="43.08101" lon="-0.03357">
        <ele>839.4</ele>
        <time>2022-10-07T07:57:11Z</time>
      </trkpt>
      <trkpt lat="43.08104" lon="-0.03358">
        <ele>838.6</ele>
        <time>2022-10-07T07:57:12Z</time>
      </trkpt>
      <trkpt lat="43.08106" lon="-0.03358">
        <ele>838.2</ele>
        <time>2022-10-07T07:57:13Z</time>
      </trkpt>
      <trkpt lat="43.08108" lon="-0.03357">
        <ele>837.4</ele>
        <time>2022-10-07T07:57:14Z</time>
      </trkpt>
      <trkpt lat="43.08114" lon="-0.03355">
        <ele>836</ele>
        <time>2022-10-07T07:57:16Z</time>
      </trkpt>
      <trkpt lat="43.08116" lon="-0.03356">
        <ele>835.4</ele>
        <time>2022-10-07T07:57:17Z</time>
      </trkpt>
      <trkpt lat="43.08118" lon="-0.03357">
        <ele>835</ele>
        <time>2022-10-07T07:57:18Z</time>
      </trkpt>
      <trkpt lat="43.08122" lon="-0.03359">
        <ele>834.2</ele>
        <time>2022-10-07T07:57:20Z</time>
      </trkpt>
      <trkpt lat="43.08124" lon="-0.0336">
        <ele>833.6</ele>
        <time>2022-10-07T07:57:21Z</time>
      </trkpt>
      <trkpt lat="43.08129" lon="-0.03361">
        <ele>833</ele>
        <time>2022-10-07T07:57:23Z</time>
      </trkpt>
      <trkpt lat="43.08133" lon="-0.03358">
        <ele>832.2</ele>
        <time>2022-10-07T07:57:25Z</time>
      </trkpt>
      <trkpt lat="43.08138" lon="-0.03354">
        <ele>831.6</ele>
        <time>2022-10-07T07:57:27Z</time>
      </trkpt>
      <trkpt lat="43.08141" lon="-0.03352">
        <ele>830.8</ele>
        <time>2022-10-07T07:57:29Z</time>
      </trkpt>
      <trkpt lat="43.08154" lon="-0.03345">
        <ele>829.6</ele>
        <time>2022-10-07T07:57:33Z</time>
      </trkpt>
      <trkpt lat="43.08157" lon="-0.03345">
        <ele>829.2</ele>
        <time>2022-10-07T07:57:35Z</time>
      </trkpt>
      <trkpt lat="43.08159" lon="-0.03344">
        <ele>829</ele>
        <time>2022-10-07T07:57:36Z</time>
      </trkpt>
      <trkpt lat="43.08159" lon="-0.03344">
        <ele>828.4</ele>
        <time>2022-10-07T07:57:38Z</time>
      </trkpt>
      <trkpt lat="43.08159" lon="-0.03344">
        <ele>828.4</ele>
        <time>2022-10-07T07:57:39Z</time>
      </trkpt>
      <trkpt lat="43.08161" lon="-0.03347">
        <ele>827.4</ele>
        <time>2022-10-07T07:57:42Z</time>
      </trkpt>
      <trkpt lat="43.08168" lon="-0.03345">
        <ele>827.2</ele>
        <time>2022-10-07T07:57:46Z</time>
      </trkpt>
      <trkpt lat="43.08188" lon="-0.03338">
        <ele>827</ele>
        <time>2022-10-07T07:57:51Z</time>
      </trkpt>
      <trkpt lat="43.08192" lon="-0.03336">
        <ele>826.8</ele>
        <time>2022-10-07T07:57:52Z</time>
      </trkpt>
      <trkpt lat="43.08195" lon="-0.03334">
        <ele>826.2</ele>
        <time>2022-10-07T07:57:53Z</time>
      </trkpt>
      <trkpt lat="43.08206" lon="-0.0333">
        <ele>825.6</ele>
        <time>2022-10-07T07:57:56Z</time>
      </trkpt>
      <trkpt lat="43.08213" lon="-0.03328">
        <ele>825.2</ele>
        <time>2022-10-07T07:57:58Z</time>
      </trkpt>
      <trkpt lat="43.08227" lon="-0.03324">
        <ele>824.8</ele>
        <time>2022-10-07T07:58:02Z</time>
      </trkpt>
      <trkpt lat="43.08231" lon="-0.03321">
        <ele>824.4</ele>
        <time>2022-10-07T07:58:03Z</time>
      </trkpt>
      <trkpt lat="43.08237" lon="-0.03316">
        <ele>824</ele>
        <time>2022-10-07T07:58:05Z</time>
      </trkpt>
      <trkpt lat="43.0824" lon="-0.03315">
        <ele>823.8</ele>
        <time>2022-10-07T07:58:06Z</time>
      </trkpt>
      <trkpt lat="43.08251" lon="-0.03316">
        <ele>823</ele>
        <time>2022-10-07T07:58:09Z</time>
      </trkpt>
      <trkpt lat="43.08271" lon="-0.03313">
        <ele>822.4</ele>
        <time>2022-10-07T07:58:14Z</time>
      </trkpt>
      <trkpt lat="43.08271" lon="-0.03313">
        <ele>821.8</ele>
        <time>2022-10-07T07:58:17Z</time>
      </trkpt>
      <trkpt lat="43.08275" lon="-0.03315">
        <ele>821.2</ele>
        <time>2022-10-07T07:58:25Z</time>
      </trkpt>
      <trkpt lat="43.08284" lon="-0.03317">
        <ele>821</ele>
        <time>2022-10-07T07:58:29Z</time>
      </trkpt>
      <trkpt lat="43.08286" lon="-0.03315">
        <ele>820.8</ele>
        <time>2022-10-07T07:58:30Z</time>
      </trkpt>
      <trkpt lat="43.08286" lon="-0.03314">
        <ele>820.8</ele>
        <time>2022-10-07T07:58:31Z</time>
      </trkpt>
      <trkpt lat="43.08287" lon="-0.03312">
        <ele>820.6</ele>
        <time>2022-10-07T07:58:32Z</time>
      </trkpt>
      <trkpt lat="43.08288" lon="-0.03311">
        <ele>819.4</ele>
        <time>2022-10-07T07:58:33Z</time>
      </trkpt>
      <trkpt lat="43.0829" lon="-0.03311">
        <ele>819.2</ele>
        <time>2022-10-07T07:58:34Z</time>
      </trkpt>
      <trkpt lat="43.08292" lon="-0.03312">
        <ele>818.6</ele>
        <time>2022-10-07T07:58:35Z</time>
      </trkpt>
      <trkpt lat="43.08292" lon="-0.03314">
        <ele>818.4</ele>
        <time>2022-10-07T07:58:36Z</time>
      </trkpt>
      <trkpt lat="43.08294" lon="-0.03316">
        <ele>817.6</ele>
        <time>2022-10-07T07:58:38Z</time>
      </trkpt>
      <trkpt lat="43.08295" lon="-0.03318">
        <ele>817.2</ele>
        <time>2022-10-07T07:58:39Z</time>
      </trkpt>
      <trkpt lat="43.08295" lon="-0.03318">
        <ele>816</ele>
        <time>2022-10-07T07:58:42Z</time>
      </trkpt>
      <trkpt lat="43.08297" lon="-0.03316">
        <ele>815</ele>
        <time>2022-10-07T07:58:44Z</time>
      </trkpt>
      <trkpt lat="43.08297" lon="-0.03314">
        <ele>814.6</ele>
        <time>2022-10-07T07:58:45Z</time>
      </trkpt>
      <trkpt lat="43.083" lon="-0.03311">
        <ele>814.2</ele>
        <time>2022-10-07T07:58:48Z</time>
      </trkpt>
      <trkpt lat="43.08304" lon="-0.0331">
        <ele>813.6</ele>
        <time>2022-10-07T07:58:50Z</time>
      </trkpt>
      <trkpt lat="43.08305" lon="-0.0331">
        <ele>813.2</ele>
        <time>2022-10-07T07:58:51Z</time>
      </trkpt>
      <trkpt lat="43.08306" lon="-0.03313">
        <ele>812.2</ele>
        <time>2022-10-07T07:58:54Z</time>
      </trkpt>
      <trkpt lat="43.08306" lon="-0.03315">
        <ele>812</ele>
        <time>2022-10-07T07:58:55Z</time>
      </trkpt>
      <trkpt lat="43.08305" lon="-0.03319">
        <ele>811.4</ele>
        <time>2022-10-07T07:58:56Z</time>
      </trkpt>
      <trkpt lat="43.08306" lon="-0.03324">
        <ele>810.8</ele>
        <time>2022-10-07T07:58:58Z</time>
      </trkpt>
      <trkpt lat="43.08308" lon="-0.03326">
        <ele>810.4</ele>
        <time>2022-10-07T07:59:00Z</time>
      </trkpt>
      <trkpt lat="43.08311" lon="-0.03324">
        <ele>809</ele>
        <time>2022-10-07T07:59:02Z</time>
      </trkpt>
      <trkpt lat="43.08318" lon="-0.03316">
        <ele>808.4</ele>
        <time>2022-10-07T07:59:05Z</time>
      </trkpt>
      <trkpt lat="43.08324" lon="-0.0331">
        <ele>807.8</ele>
        <time>2022-10-07T07:59:07Z</time>
      </trkpt>
      <trkpt lat="43.0833" lon="-0.03307">
        <ele>806.6</ele>
        <time>2022-10-07T07:59:09Z</time>
      </trkpt>
      <trkpt lat="43.08337" lon="-0.03302">
        <ele>805.2</ele>
        <time>2022-10-07T07:59:11Z</time>
      </trkpt>
      <trkpt lat="43.08346" lon="-0.03294">
        <ele>804</ele>
        <time>2022-10-07T07:59:14Z</time>
      </trkpt>
      <trkpt lat="43.0835" lon="-0.03291">
        <ele>802.6</ele>
        <time>2022-10-07T07:59:16Z</time>
      </trkpt>
      <trkpt lat="43.08357" lon="-0.03286">
        <ele>801.4</ele>
        <time>2022-10-07T07:59:18Z</time>
      </trkpt>
      <trkpt lat="43.08361" lon="-0.03284">
        <ele>800.2</ele>
        <time>2022-10-07T07:59:19Z</time>
      </trkpt>
      <trkpt lat="43.08366" lon="-0.0328">
        <ele>799.2</ele>
        <time>2022-10-07T07:59:20Z</time>
      </trkpt>
      <trkpt lat="43.08366" lon="-0.0328">
        <ele>798</ele>
        <time>2022-10-07T07:59:21Z</time>
      </trkpt>
      <trkpt lat="43.08378" lon="-0.03273">
        <ele>796.2</ele>
        <time>2022-10-07T07:59:23Z</time>
      </trkpt>
      <trkpt lat="43.08384" lon="-0.03273">
        <ele>794.2</ele>
        <time>2022-10-07T07:59:25Z</time>
      </trkpt>
      <trkpt lat="43.08386" lon="-0.03272">
        <ele>793.6</ele>
        <time>2022-10-07T07:59:26Z</time>
      </trkpt>
      <trkpt lat="43.08389" lon="-0.0327">
        <ele>792.4</ele>
        <time>2022-10-07T07:59:27Z</time>
      </trkpt>
      <trkpt lat="43.08396" lon="-0.03261">
        <ele>790.8</ele>
        <time>2022-10-07T07:59:29Z</time>
      </trkpt>
      <trkpt lat="43.08402" lon="-0.03258">
        <ele>790</ele>
        <time>2022-10-07T07:59:30Z</time>
      </trkpt>
      <trkpt lat="43.08402" lon="-0.03258">
        <ele>789.6</ele>
        <time>2022-10-07T07:59:31Z</time>
      </trkpt>
      <trkpt lat="43.08408" lon="-0.03254">
        <ele>788.4</ele>
        <time>2022-10-07T07:59:32Z</time>
      </trkpt>
      <trkpt lat="43.08414" lon="-0.03247">
        <ele>787</ele>
        <time>2022-10-07T07:59:34Z</time>
      </trkpt>
      <trkpt lat="43.08419" lon="-0.03243">
        <ele>786.4</ele>
        <time>2022-10-07T07:59:36Z</time>
      </trkpt>
      <trkpt lat="43.08423" lon="-0.03242">
        <ele>786</ele>
        <time>2022-10-07T07:59:37Z</time>
      </trkpt>
      <trkpt lat="43.08426" lon="-0.03243">
        <ele>785.4</ele>
        <time>2022-10-07T07:59:38Z</time>
      </trkpt>
      <trkpt lat="43.08429" lon="-0.03245">
        <ele>784.6</ele>
        <time>2022-10-07T07:59:40Z</time>
      </trkpt>
      <trkpt lat="43.08426" lon="-0.0325">
        <ele>783.8</ele>
        <time>2022-10-07T07:59:44Z</time>
      </trkpt>
      <trkpt lat="43.08426" lon="-0.0325">
        <ele>783.6</ele>
        <time>2022-10-07T07:59:46Z</time>
      </trkpt>
      <trkpt lat="43.08428" lon="-0.03249">
        <ele>782.8</ele>
        <time>2022-10-07T07:59:50Z</time>
      </trkpt>
      <trkpt lat="43.08435" lon="-0.0324">
        <ele>782.6</ele>
        <time>2022-10-07T07:59:53Z</time>
      </trkpt>
      <trkpt lat="43.08438" lon="-0.03235">
        <ele>782.4</ele>
        <time>2022-10-07T07:59:54Z</time>
      </trkpt>
      <trkpt lat="43.08441" lon="-0.03232">
        <ele>782.4</ele>
        <time>2022-10-07T07:59:55Z</time>
      </trkpt>
      <trkpt lat="43.08444" lon="-0.03228">
        <ele>782</ele>
        <time>2022-10-07T07:59:57Z</time>
      </trkpt>
      <trkpt lat="43.08454" lon="-0.03218">
        <ele>781.2</ele>
        <time>2022-10-07T07:59:59Z</time>
      </trkpt>
      <trkpt lat="43.08459" lon="-0.03212">
        <ele>780.4</ele>
        <time>2022-10-07T08:00:01Z</time>
      </trkpt>
      <trkpt lat="43.08461" lon="-0.03209">
        <ele>780</ele>
        <time>2022-10-07T08:00:02Z</time>
      </trkpt>
      <trkpt lat="43.08468" lon="-0.032">
        <ele>779.2</ele>
        <time>2022-10-07T08:00:05Z</time>
      </trkpt>
      <trkpt lat="43.08474" lon="-0.03194">
        <ele>778.6</ele>
        <time>2022-10-07T08:00:07Z</time>
      </trkpt>
      <trkpt lat="43.08482" lon="-0.03185">
        <ele>777.2</ele>
        <time>2022-10-07T08:00:09Z</time>
      </trkpt>
      <trkpt lat="43.08488" lon="-0.03175">
        <ele>775.8</ele>
        <time>2022-10-07T08:00:11Z</time>
      </trkpt>
      <trkpt lat="43.08492" lon="-0.0317">
        <ele>774.4</ele>
        <time>2022-10-07T08:00:12Z</time>
      </trkpt>
      <trkpt lat="43.08496" lon="-0.03162">
        <ele>773.2</ele>
        <time>2022-10-07T08:00:14Z</time>
      </trkpt>
      <trkpt lat="43.08507" lon="-0.0315">
        <ele>772.2</ele>
        <time>2022-10-07T08:00:16Z</time>
      </trkpt>
      <trkpt lat="43.08509" lon="-0.03144">
        <ele>772</ele>
        <time>2022-10-07T08:00:17Z</time>
      </trkpt>
      <trkpt lat="43.08511" lon="-0.03141">
        <ele>771.4</ele>
        <time>2022-10-07T08:00:18Z</time>
      </trkpt>
      <trkpt lat="43.08513" lon="-0.03137">
        <ele>771</ele>
        <time>2022-10-07T08:00:19Z</time>
      </trkpt>
      <trkpt lat="43.08516" lon="-0.03131">
        <ele>769.8</ele>
        <time>2022-10-07T08:00:21Z</time>
      </trkpt>
      <trkpt lat="43.08523" lon="-0.03121">
        <ele>769</ele>
        <time>2022-10-07T08:00:23Z</time>
      </trkpt>
      <trkpt lat="43.08525" lon="-0.03116">
        <ele>768</ele>
        <time>2022-10-07T08:00:24Z</time>
      </trkpt>
      <trkpt lat="43.08525" lon="-0.03111">
        <ele>767.6</ele>
        <time>2022-10-07T08:00:25Z</time>
      </trkpt>
      <trkpt lat="43.08523" lon="-0.03108">
        <ele>767.2</ele>
        <time>2022-10-07T08:00:26Z</time>
      </trkpt>
      <trkpt lat="43.08523" lon="-0.03106">
        <ele>767</ele>
        <time>2022-10-07T08:00:27Z</time>
      </trkpt>
      <trkpt lat="43.08524" lon="-0.03105">
        <ele>766.2</ele>
        <time>2022-10-07T08:00:28Z</time>
      </trkpt>
      <trkpt lat="43.08526" lon="-0.03105">
        <ele>765</ele>
        <time>2022-10-07T08:00:29Z</time>
      </trkpt>
      <trkpt lat="43.08527" lon="-0.03109">
        <ele>764</ele>
        <time>2022-10-07T08:00:31Z</time>
      </trkpt>
      <trkpt lat="43.08527" lon="-0.03117">
        <ele>763</ele>
        <time>2022-10-07T08:00:34Z</time>
      </trkpt>
      <trkpt lat="43.08526" lon="-0.0312">
        <ele>762.4</ele>
        <time>2022-10-07T08:00:35Z</time>
      </trkpt>
      <trkpt lat="43.08526" lon="-0.03124">
        <ele>761.2</ele>
        <time>2022-10-07T08:00:37Z</time>
      </trkpt>
      <trkpt lat="43.08528" lon="-0.03129">
        <ele>760.2</ele>
        <time>2022-10-07T08:00:39Z</time>
      </trkpt>
      <trkpt lat="43.08529" lon="-0.03132">
        <ele>760</ele>
        <time>2022-10-07T08:00:40Z</time>
      </trkpt>
      <trkpt lat="43.0853" lon="-0.03143">
        <ele>759.6</ele>
        <time>2022-10-07T08:00:43Z</time>
      </trkpt>
      <trkpt lat="43.08529" lon="-0.03145">
        <ele>759.4</ele>
        <time>2022-10-07T08:00:44Z</time>
      </trkpt>
      <trkpt lat="43.08528" lon="-0.03149">
        <ele>759</ele>
        <time>2022-10-07T08:00:46Z</time>
      </trkpt>
      <trkpt lat="43.08528" lon="-0.03154">
        <ele>758</ele>
        <time>2022-10-07T08:00:49Z</time>
      </trkpt>
      <trkpt lat="43.08528" lon="-0.03157">
        <ele>757.8</ele>
        <time>2022-10-07T08:00:50Z</time>
      </trkpt>
      <trkpt lat="43.08528" lon="-0.03159">
        <ele>757.8</ele>
        <time>2022-10-07T08:00:51Z</time>
      </trkpt>
      <trkpt lat="43.0853" lon="-0.03158">
        <ele>757.6</ele>
        <time>2022-10-07T08:00:54Z</time>
      </trkpt>
      <trkpt lat="43.08534" lon="-0.03147">
        <ele>756.8</ele>
        <time>2022-10-07T08:00:58Z</time>
      </trkpt>
      <trkpt lat="43.08534" lon="-0.03144">
        <ele>756.8</ele>
        <time>2022-10-07T08:00:59Z</time>
      </trkpt>
      <trkpt lat="43.08535" lon="-0.03137">
        <ele>755.6</ele>
        <time>2022-10-07T08:01:02Z</time>
      </trkpt>
      <trkpt lat="43.08535" lon="-0.03136">
        <ele>755.4</ele>
        <time>2022-10-07T08:01:03Z</time>
      </trkpt>
      <trkpt lat="43.08538" lon="-0.03129">
        <ele>754.6</ele>
        <time>2022-10-07T08:01:05Z</time>
      </trkpt>
      <trkpt lat="43.0854" lon="-0.0312">
        <ele>753.8</ele>
        <time>2022-10-07T08:01:07Z</time>
      </trkpt>
      <trkpt lat="43.08541" lon="-0.03115">
        <ele>753.4</ele>
        <time>2022-10-07T08:01:09Z</time>
      </trkpt>
      <trkpt lat="43.08544" lon="-0.03116">
        <ele>752.4</ele>
        <time>2022-10-07T08:01:12Z</time>
      </trkpt>
      <trkpt lat="43.08549" lon="-0.03125">
        <ele>751</ele>
        <time>2022-10-07T08:01:15Z</time>
      </trkpt>
      <trkpt lat="43.0855" lon="-0.03135">
        <ele>750.2</ele>
        <time>2022-10-07T08:01:17Z</time>
      </trkpt>
      <trkpt lat="43.08551" lon="-0.0314">
        <ele>749.8</ele>
        <time>2022-10-07T08:01:18Z</time>
      </trkpt>
      <trkpt lat="43.08554" lon="-0.03149">
        <ele>748.8</ele>
        <time>2022-10-07T08:01:20Z</time>
      </trkpt>
      <trkpt lat="43.08556" lon="-0.0316">
        <ele>748.2</ele>
        <time>2022-10-07T08:01:22Z</time>
      </trkpt>
      <trkpt lat="43.08556" lon="-0.0316">
        <ele>747.6</ele>
        <time>2022-10-07T08:01:23Z</time>
      </trkpt>
      <trkpt lat="43.08557" lon="-0.03169">
        <ele>747.4</ele>
        <time>2022-10-07T08:01:24Z</time>
      </trkpt>
      <trkpt lat="43.08554" lon="-0.03186">
        <ele>746.6</ele>
        <time>2022-10-07T08:01:27Z</time>
      </trkpt>
      <trkpt lat="43.08554" lon="-0.0319">
        <ele>746.4</ele>
        <time>2022-10-07T08:01:28Z</time>
      </trkpt>
      <trkpt lat="43.08554" lon="-0.03193">
        <ele>746.2</ele>
        <time>2022-10-07T08:01:29Z</time>
      </trkpt>
      <trkpt lat="43.08551" lon="-0.03198">
        <ele>745</ele>
        <time>2022-10-07T08:01:31Z</time>
      </trkpt>
      <trkpt lat="43.08553" lon="-0.03201">
        <ele>744.4</ele>
        <time>2022-10-07T08:01:33Z</time>
      </trkpt>
      <trkpt lat="43.08556" lon="-0.032">
        <ele>743.6</ele>
        <time>2022-10-07T08:01:36Z</time>
      </trkpt>
      <trkpt lat="43.08563" lon="-0.03196">
        <ele>743</ele>
        <time>2022-10-07T08:01:38Z</time>
      </trkpt>
      <trkpt lat="43.08565" lon="-0.03196">
        <ele>743</ele>
        <time>2022-10-07T08:01:39Z</time>
      </trkpt>
      <trkpt lat="43.08567" lon="-0.03196">
        <ele>742.6</ele>
        <time>2022-10-07T08:01:40Z</time>
      </trkpt>
      <trkpt lat="43.08568" lon="-0.03194">
        <ele>742.4</ele>
        <time>2022-10-07T08:01:41Z</time>
      </trkpt>
      <trkpt lat="43.08571" lon="-0.03188">
        <ele>741.6</ele>
        <time>2022-10-07T08:01:43Z</time>
      </trkpt>
      <trkpt lat="43.08574" lon="-0.03181">
        <ele>740.2</ele>
        <time>2022-10-07T08:01:45Z</time>
      </trkpt>
      <trkpt lat="43.08576" lon="-0.03177">
        <ele>739</ele>
        <time>2022-10-07T08:01:46Z</time>
      </trkpt>
      <trkpt lat="43.08579" lon="-0.03171">
        <ele>738.4</ele>
        <time>2022-10-07T08:01:47Z</time>
      </trkpt>
      <trkpt lat="43.08581" lon="-0.03167">
        <ele>738</ele>
        <time>2022-10-07T08:01:48Z</time>
      </trkpt>
      <trkpt lat="43.08584" lon="-0.03161">
        <ele>736.8</ele>
        <time>2022-10-07T08:01:50Z</time>
      </trkpt>
      <trkpt lat="43.08586" lon="-0.03158">
        <ele>736</ele>
        <time>2022-10-07T08:01:51Z</time>
      </trkpt>
      <trkpt lat="43.08588" lon="-0.03154">
        <ele>735.4</ele>
        <time>2022-10-07T08:01:52Z</time>
      </trkpt>
      <trkpt lat="43.08591" lon="-0.03146">
        <ele>734</ele>
        <time>2022-10-07T08:01:54Z</time>
      </trkpt>
      <trkpt lat="43.08592" lon="-0.03139">
        <ele>733</ele>
        <time>2022-10-07T08:01:56Z</time>
      </trkpt>
      <trkpt lat="43.08589" lon="-0.03132">
        <ele>732</ele>
        <time>2022-10-07T08:01:58Z</time>
      </trkpt>
      <trkpt lat="43.08589" lon="-0.03127">
        <ele>730.4</ele>
        <time>2022-10-07T08:02:00Z</time>
      </trkpt>
      <trkpt lat="43.0859" lon="-0.03124">
        <ele>729.6</ele>
        <time>2022-10-07T08:02:01Z</time>
      </trkpt>
      <trkpt lat="43.0859" lon="-0.03121">
        <ele>729.4</ele>
        <time>2022-10-07T08:02:02Z</time>
      </trkpt>
      <trkpt lat="43.08593" lon="-0.03118">
        <ele>729.2</ele>
        <time>2022-10-07T08:02:03Z</time>
      </trkpt>
      <trkpt lat="43.08596" lon="-0.03117">
        <ele>728.8</ele>
        <time>2022-10-07T08:02:05Z</time>
      </trkpt>
      <trkpt lat="43.086" lon="-0.03123">
        <ele>728.2</ele>
        <time>2022-10-07T08:02:09Z</time>
      </trkpt>
      <trkpt lat="43.08602" lon="-0.03126">
        <ele>727.8</ele>
        <time>2022-10-07T08:02:10Z</time>
      </trkpt>
      <trkpt lat="43.08605" lon="-0.03131">
        <ele>727</ele>
        <time>2022-10-07T08:02:12Z</time>
      </trkpt>
      <trkpt lat="43.08607" lon="-0.03141">
        <ele>726.4</ele>
        <time>2022-10-07T08:02:15Z</time>
      </trkpt>
      <trkpt lat="43.08607" lon="-0.03145">
        <ele>726</ele>
        <time>2022-10-07T08:02:17Z</time>
      </trkpt>
      <trkpt lat="43.08609" lon="-0.03145">
        <ele>725.4</ele>
        <time>2022-10-07T08:02:20Z</time>
      </trkpt>
      <trkpt lat="43.08611" lon="-0.03142">
        <ele>725.2</ele>
        <time>2022-10-07T08:02:22Z</time>
      </trkpt>
      <trkpt lat="43.08612" lon="-0.03133">
        <ele>725</ele>
        <time>2022-10-07T08:02:24Z</time>
      </trkpt>
      <trkpt lat="43.0861" lon="-0.03116">
        <ele>723.4</ele>
        <time>2022-10-07T08:02:28Z</time>
      </trkpt>
      <trkpt lat="43.0861" lon="-0.03114">
        <ele>722.4</ele>
        <time>2022-10-07T08:02:29Z</time>
      </trkpt>
      <trkpt lat="43.08609" lon="-0.0311">
        <ele>722</ele>
        <time>2022-10-07T08:02:30Z</time>
      </trkpt>
      <trkpt lat="43.08608" lon="-0.03097">
        <ele>721</ele>
        <time>2022-10-07T08:02:33Z</time>
      </trkpt>
      <trkpt lat="43.08609" lon="-0.0309">
        <ele>720.8</ele>
        <time>2022-10-07T08:02:34Z</time>
      </trkpt>
      <trkpt lat="43.0861" lon="-0.03087">
        <ele>719.6</ele>
        <time>2022-10-07T08:02:35Z</time>
      </trkpt>
      <trkpt lat="43.08611" lon="-0.03084">
        <ele>719.2</ele>
        <time>2022-10-07T08:02:36Z</time>
      </trkpt>
      <trkpt lat="43.08611" lon="-0.0308">
        <ele>718.6</ele>
        <time>2022-10-07T08:02:38Z</time>
      </trkpt>
      <trkpt lat="43.08613" lon="-0.03068">
        <ele>717.8</ele>
        <time>2022-10-07T08:02:41Z</time>
      </trkpt>
      <trkpt lat="43.08615" lon="-0.03063">
        <ele>716.8</ele>
        <time>2022-10-07T08:02:43Z</time>
      </trkpt>
      <trkpt lat="43.08616" lon="-0.03061">
        <ele>716.2</ele>
        <time>2022-10-07T08:02:44Z</time>
      </trkpt>
      <trkpt lat="43.08619" lon="-0.03062">
        <ele>716.2</ele>
        <time>2022-10-07T08:02:46Z</time>
      </trkpt>
      <trkpt lat="43.08623" lon="-0.03064">
        <ele>715.4</ele>
        <time>2022-10-07T08:02:49Z</time>
      </trkpt>
      <trkpt lat="43.08629" lon="-0.03074">
        <ele>714</ele>
        <time>2022-10-07T08:02:52Z</time>
      </trkpt>
      <trkpt lat="43.08635" lon="-0.03083">
        <ele>712.8</ele>
        <time>2022-10-07T08:02:55Z</time>
      </trkpt>
      <trkpt lat="43.08639" lon="-0.03084">
        <ele>711.8</ele>
        <time>2022-10-07T08:02:56Z</time>
      </trkpt>
      <trkpt lat="43.08641" lon="-0.03085">
        <ele>711.4</ele>
        <time>2022-10-07T08:02:57Z</time>
      </trkpt>
      <trkpt lat="43.08649" lon="-0.03091">
        <ele>710.8</ele>
        <time>2022-10-07T08:02:59Z</time>
      </trkpt>
      <trkpt lat="43.08653" lon="-0.03095">
        <ele>710.2</ele>
        <time>2022-10-07T08:03:00Z</time>
      </trkpt>
      <trkpt lat="43.08654" lon="-0.031">
        <ele>710</ele>
        <time>2022-10-07T08:03:01Z</time>
      </trkpt>
      <trkpt lat="43.08658" lon="-0.03108">
        <ele>708.6</ele>
        <time>2022-10-07T08:03:03Z</time>
      </trkpt>
      <trkpt lat="43.08666" lon="-0.03117">
        <ele>707.4</ele>
        <time>2022-10-07T08:03:06Z</time>
      </trkpt>
      <trkpt lat="43.08668" lon="-0.03127">
        <ele>706.8</ele>
        <time>2022-10-07T08:03:08Z</time>
      </trkpt>
      <trkpt lat="43.0867" lon="-0.03132">
        <ele>706.4</ele>
        <time>2022-10-07T08:03:09Z</time>
      </trkpt>
      <trkpt lat="43.08676" lon="-0.0315">
        <ele>703.8</ele>
        <time>2022-10-07T08:03:13Z</time>
      </trkpt>
      <trkpt lat="43.08677" lon="-0.03154">
        <ele>703.4</ele>
        <time>2022-10-07T08:03:14Z</time>
      </trkpt>
      <trkpt lat="43.08677" lon="-0.03158">
        <ele>702.8</ele>
        <time>2022-10-07T08:03:15Z</time>
      </trkpt>
      <trkpt lat="43.08678" lon="-0.03168">
        <ele>701.8</ele>
        <time>2022-10-07T08:03:17Z</time>
      </trkpt>
      <trkpt lat="43.08677" lon="-0.03174">
        <ele>701.4</ele>
        <time>2022-10-07T08:03:18Z</time>
      </trkpt>
      <trkpt lat="43.08675" lon="-0.0318">
        <ele>700.4</ele>
        <time>2022-10-07T08:03:19Z</time>
      </trkpt>
      <trkpt lat="43.08672" lon="-0.03193">
        <ele>699</ele>
        <time>2022-10-07T08:03:22Z</time>
      </trkpt>
      <trkpt lat="43.08672" lon="-0.03198">
        <ele>698.8</ele>
        <time>2022-10-07T08:03:23Z</time>
      </trkpt>
      <trkpt lat="43.08671" lon="-0.03217">
        <ele>698</ele>
        <time>2022-10-07T08:03:27Z</time>
      </trkpt>
      <trkpt lat="43.08673" lon="-0.03218">
        <ele>697.8</ele>
        <time>2022-10-07T08:03:28Z</time>
      </trkpt>
      <trkpt lat="43.08677" lon="-0.03212">
        <ele>697</ele>
        <time>2022-10-07T08:03:31Z</time>
      </trkpt>
      <trkpt lat="43.08681" lon="-0.0321">
        <ele>696.8</ele>
        <time>2022-10-07T08:03:32Z</time>
      </trkpt>
      <trkpt lat="43.08687" lon="-0.03214">
        <ele>695.8</ele>
        <time>2022-10-07T08:03:34Z</time>
      </trkpt>
      <trkpt lat="43.08689" lon="-0.03217">
        <ele>695.2</ele>
        <time>2022-10-07T08:03:35Z</time>
      </trkpt>
      <trkpt lat="43.0869" lon="-0.03224">
        <ele>694.4</ele>
        <time>2022-10-07T08:03:37Z</time>
      </trkpt>
      <trkpt lat="43.08689" lon="-0.03228">
        <ele>693.6</ele>
        <time>2022-10-07T08:03:38Z</time>
      </trkpt>
      <trkpt lat="43.08687" lon="-0.03237">
        <ele>692</ele>
        <time>2022-10-07T08:03:40Z</time>
      </trkpt>
      <trkpt lat="43.08682" lon="-0.03243">
        <ele>690.6</ele>
        <time>2022-10-07T08:03:42Z</time>
      </trkpt>
      <trkpt lat="43.08678" lon="-0.03248">
        <ele>689.2</ele>
        <time>2022-10-07T08:03:44Z</time>
      </trkpt>
      <trkpt lat="43.08674" lon="-0.03253">
        <ele>688.2</ele>
        <time>2022-10-07T08:03:46Z</time>
      </trkpt>
      <trkpt lat="43.08669" lon="-0.03266">
        <ele>687.4</ele>
        <time>2022-10-07T08:03:49Z</time>
      </trkpt>
      <trkpt lat="43.08665" lon="-0.03281">
        <ele>687</ele>
        <time>2022-10-07T08:03:52Z</time>
      </trkpt>
      <trkpt lat="43.08664" lon="-0.03289">
        <ele>685.8</ele>
        <time>2022-10-07T08:03:54Z</time>
      </trkpt>
      <trkpt lat="43.08664" lon="-0.03293">
        <ele>684.6</ele>
        <time>2022-10-07T08:03:55Z</time>
      </trkpt>
      <trkpt lat="43.0867" lon="-0.033">
        <ele>683.6</ele>
        <time>2022-10-07T08:03:57Z</time>
      </trkpt>
      <trkpt lat="43.08677" lon="-0.03301">
        <ele>682.6</ele>
        <time>2022-10-07T08:03:59Z</time>
      </trkpt>
      <trkpt lat="43.08685" lon="-0.033">
        <ele>681.4</ele>
        <time>2022-10-07T08:04:01Z</time>
      </trkpt>
      <trkpt lat="43.08689" lon="-0.033">
        <ele>679.2</ele>
        <time>2022-10-07T08:04:02Z</time>
      </trkpt>
      <trkpt lat="43.08696" lon="-0.03299">
        <ele>677</ele>
        <time>2022-10-07T08:04:04Z</time>
      </trkpt>
      <trkpt lat="43.08702" lon="-0.03296">
        <ele>676</ele>
        <time>2022-10-07T08:04:06Z</time>
      </trkpt>
      <trkpt lat="43.08705" lon="-0.03296">
        <ele>675.8</ele>
        <time>2022-10-07T08:04:07Z</time>
      </trkpt>
      <trkpt lat="43.08709" lon="-0.03297">
        <ele>675.4</ele>
        <time>2022-10-07T08:04:08Z</time>
      </trkpt>
      <trkpt lat="43.08716" lon="-0.03301">
        <ele>674.2</ele>
        <time>2022-10-07T08:04:10Z</time>
      </trkpt>
      <trkpt lat="43.08724" lon="-0.03299">
        <ele>673.2</ele>
        <time>2022-10-07T08:04:12Z</time>
      </trkpt>
      <trkpt lat="43.0873" lon="-0.03297">
        <ele>673</ele>
        <time>2022-10-07T08:04:13Z</time>
      </trkpt>
      <trkpt lat="43.08741" lon="-0.03299">
        <ele>672</ele>
        <time>2022-10-07T08:04:15Z</time>
      </trkpt>
      <trkpt lat="43.08747" lon="-0.03303">
        <ele>671.6</ele>
        <time>2022-10-07T08:04:16Z</time>
      </trkpt>
      <trkpt lat="43.08761" lon="-0.03309">
        <ele>670</ele>
        <time>2022-10-07T08:04:19Z</time>
      </trkpt>
      <trkpt lat="43.08773" lon="-0.03312">
        <ele>668.6</ele>
        <time>2022-10-07T08:04:21Z</time>
      </trkpt>
      <trkpt lat="43.08778" lon="-0.03312">
        <ele>667.8</ele>
        <time>2022-10-07T08:04:22Z</time>
      </trkpt>
      <trkpt lat="43.08783" lon="-0.03313">
        <ele>666.2</ele>
        <time>2022-10-07T08:04:23Z</time>
      </trkpt>
      <trkpt lat="43.08789" lon="-0.03317">
        <ele>664.4</ele>
        <time>2022-10-07T08:04:25Z</time>
      </trkpt>
      <trkpt lat="43.08796" lon="-0.0332">
        <ele>662.8</ele>
        <time>2022-10-07T08:04:27Z</time>
      </trkpt>
      <trkpt lat="43.08799" lon="-0.0332">
        <ele>661.6</ele>
        <time>2022-10-07T08:04:29Z</time>
      </trkpt>
      <trkpt lat="43.08801" lon="-0.03325">
        <ele>660</ele>
        <time>2022-10-07T08:04:33Z</time>
      </trkpt>
      <trkpt lat="43.08801" lon="-0.03325">
        <ele>659.8</ele>
        <time>2022-10-07T08:04:34Z</time>
      </trkpt>
      <trkpt lat="43.08798" lon="-0.03326">
        <ele>659.4</ele>
        <time>2022-10-07T08:04:35Z</time>
      </trkpt>
      <trkpt lat="43.08794" lon="-0.03328">
        <ele>658.8</ele>
        <time>2022-10-07T08:04:37Z</time>
      </trkpt>
      <trkpt lat="43.08788" lon="-0.03332">
        <ele>658.2</ele>
        <time>2022-10-07T08:04:40Z</time>
      </trkpt>
      <trkpt lat="43.08784" lon="-0.03335">
        <ele>657.6</ele>
        <time>2022-10-07T08:04:43Z</time>
      </trkpt>
      <trkpt lat="43.08784" lon="-0.03335">
        <ele>657</ele>
        <time>2022-10-07T08:04:46Z</time>
      </trkpt>
      <trkpt lat="43.08779" lon="-0.03343">
        <ele>656.6</ele>
        <time>2022-10-07T08:04:55Z</time>
      </trkpt>
      <trkpt lat="43.08773" lon="-0.03347">
        <ele>656.6</ele>
        <time>2022-10-07T08:04:57Z</time>
      </trkpt>
      <trkpt lat="43.0876" lon="-0.03357">
        <ele>656.4</ele>
        <time>2022-10-07T08:05:02Z</time>
      </trkpt>
      <trkpt lat="43.08754" lon="-0.03364">
        <ele>655.6</ele>
        <time>2022-10-07T08:05:04Z</time>
      </trkpt>
      <trkpt lat="43.08751" lon="-0.03368">
        <ele>655.2</ele>
        <time>2022-10-07T08:05:05Z</time>
      </trkpt>
      <trkpt lat="43.08743" lon="-0.03379">
        <ele>654.8</ele>
        <time>2022-10-07T08:05:07Z</time>
      </trkpt>
      <trkpt lat="43.08717" lon="-0.03398">
        <ele>653.8</ele>
        <time>2022-10-07T08:05:11Z</time>
      </trkpt>
      <trkpt lat="43.08716" lon="-0.03402">
        <ele>653.4</ele>
        <time>2022-10-07T08:05:12Z</time>
      </trkpt>
      <trkpt lat="43.0871" lon="-0.03414">
        <ele>652.6</ele>
        <time>2022-10-07T08:05:14Z</time>
      </trkpt>
      <trkpt lat="43.08702" lon="-0.03424">
        <ele>650.8</ele>
        <time>2022-10-07T08:05:16Z</time>
      </trkpt>
      <trkpt lat="43.08691" lon="-0.03434">
        <ele>649.8</ele>
        <time>2022-10-07T08:05:18Z</time>
      </trkpt>
      <trkpt lat="43.08687" lon="-0.03436">
        <ele>649.4</ele>
        <time>2022-10-07T08:05:19Z</time>
      </trkpt>
      <trkpt lat="43.08685" lon="-0.03437">
        <ele>648.6</ele>
        <time>2022-10-07T08:05:21Z</time>
      </trkpt>
      <trkpt lat="43.08685" lon="-0.03437">
        <ele>647.6</ele>
        <time>2022-10-07T08:05:22Z</time>
      </trkpt>
      <trkpt lat="43.08683" lon="-0.03439">
        <ele>647</ele>
        <time>2022-10-07T08:05:32Z</time>
      </trkpt>
      <trkpt lat="43.08662" lon="-0.03452">
        <ele>646.8</ele>
        <time>2022-10-07T08:05:37Z</time>
      </trkpt>
      <trkpt lat="43.08649" lon="-0.03455">
        <ele>646.4</ele>
        <time>2022-10-07T08:05:39Z</time>
      </trkpt>
      <trkpt lat="43.08642" lon="-0.0346">
        <ele>645</ele>
        <time>2022-10-07T08:05:41Z</time>
      </trkpt>
      <trkpt lat="43.08644" lon="-0.03468">
        <ele>644</ele>
        <time>2022-10-07T08:05:43Z</time>
      </trkpt>
      <trkpt lat="43.08647" lon="-0.03471">
        <ele>643.8</ele>
        <time>2022-10-07T08:05:44Z</time>
      </trkpt>
      <trkpt lat="43.08657" lon="-0.03475">
        <ele>642</ele>
        <time>2022-10-07T08:05:47Z</time>
      </trkpt>
      <trkpt lat="43.08664" lon="-0.03481">
        <ele>640.8</ele>
        <time>2022-10-07T08:05:50Z</time>
      </trkpt>
      <trkpt lat="43.08663" lon="-0.03483">
        <ele>640.4</ele>
        <time>2022-10-07T08:05:51Z</time>
      </trkpt>
      <trkpt lat="43.08654" lon="-0.03487">
        <ele>639.8</ele>
        <time>2022-10-07T08:05:53Z</time>
      </trkpt>
      <trkpt lat="43.08646" lon="-0.03491">
        <ele>638.4</ele>
        <time>2022-10-07T08:05:55Z</time>
      </trkpt>
      <trkpt lat="43.08634" lon="-0.03501">
        <ele>637.4</ele>
        <time>2022-10-07T08:05:57Z</time>
      </trkpt>
      <trkpt lat="43.08628" lon="-0.03506">
        <ele>637</ele>
        <time>2022-10-07T08:05:58Z</time>
      </trkpt>
      <trkpt lat="43.08625" lon="-0.03508">
        <ele>636.8</ele>
        <time>2022-10-07T08:05:59Z</time>
      </trkpt>
      <trkpt lat="43.08623" lon="-0.03509">
        <ele>635.6</ele>
        <time>2022-10-07T08:06:00Z</time>
      </trkpt>
      <trkpt lat="43.08622" lon="-0.03509">
        <ele>635</ele>
        <time>2022-10-07T08:06:01Z</time>
      </trkpt>
      <trkpt lat="43.08622" lon="-0.03509">
        <ele>634</ele>
        <time>2022-10-07T08:06:02Z</time>
      </trkpt>
      <trkpt lat="43.08622" lon="-0.03509">
        <ele>633</ele>
        <time>2022-10-07T08:06:08Z</time>
      </trkpt>
      <trkpt lat="43.08622" lon="-0.03509">
        <ele>632.6</ele>
        <time>2022-10-07T08:06:24Z</time>
      </trkpt>
      <trkpt lat="43.08609" lon="-0.03514">
        <ele>632.4</ele>
        <time>2022-10-07T08:06:27Z</time>
      </trkpt>
      <trkpt lat="43.08605" lon="-0.03517">
        <ele>632.4</ele>
        <time>2022-10-07T08:06:28Z</time>
      </trkpt>
      <trkpt lat="43.08595" lon="-0.03524">
        <ele>630.2</ele>
        <time>2022-10-07T08:06:31Z</time>
      </trkpt>
      <trkpt lat="43.08595" lon="-0.03524">
        <ele>629.2</ele>
        <time>2022-10-07T08:06:32Z</time>
      </trkpt>
      <trkpt lat="43.08588" lon="-0.03531">
        <ele>628.8</ele>
        <time>2022-10-07T08:06:33Z</time>
      </trkpt>
      <trkpt lat="43.08577" lon="-0.03547">
        <ele>627</ele>
        <time>2022-10-07T08:06:36Z</time>
      </trkpt>
      <trkpt lat="43.08571" lon="-0.03552">
        <ele>626.2</ele>
        <time>2022-10-07T08:06:37Z</time>
      </trkpt>
      <trkpt lat="43.08566" lon="-0.03556">
        <ele>625.2</ele>
        <time>2022-10-07T08:06:38Z</time>
      </trkpt>
      <trkpt lat="43.08559" lon="-0.03562">
        <ele>624.2</ele>
        <time>2022-10-07T08:06:40Z</time>
      </trkpt>
      <trkpt lat="43.08553" lon="-0.03566">
        <ele>622.8</ele>
        <time>2022-10-07T08:06:44Z</time>
      </trkpt>
      <trkpt lat="43.08553" lon="-0.03566">
        <ele>621.8</ele>
        <time>2022-10-07T08:06:46Z</time>
      </trkpt>
      <trkpt lat="43.08548" lon="-0.03569">
        <ele>621</ele>
        <time>2022-10-07T08:06:50Z</time>
      </trkpt>
      <trkpt lat="43.08541" lon="-0.03577">
        <ele>620.8</ele>
        <time>2022-10-07T08:06:52Z</time>
      </trkpt>
      <trkpt lat="43.08526" lon="-0.03593">
        <ele>620.6</ele>
        <time>2022-10-07T08:06:55Z</time>
      </trkpt>
      <trkpt lat="43.0852" lon="-0.03598">
        <ele>620.4</ele>
        <time>2022-10-07T08:06:56Z</time>
      </trkpt>
      <trkpt lat="43.08508" lon="-0.03607">
        <ele>618.6</ele>
        <time>2022-10-07T08:06:59Z</time>
      </trkpt>
      <trkpt lat="43.08504" lon="-0.03609">
        <ele>618.2</ele>
        <time>2022-10-07T08:07:00Z</time>
      </trkpt>
      <trkpt lat="43.08497" lon="-0.03612">
        <ele>617.6</ele>
        <time>2022-10-07T08:07:02Z</time>
      </trkpt>
      <trkpt lat="43.08495" lon="-0.03615">
        <ele>617.2</ele>
        <time>2022-10-07T08:07:04Z</time>
      </trkpt>
      <trkpt lat="43.08495" lon="-0.03617">
        <ele>617.2</ele>
        <time>2022-10-07T08:07:05Z</time>
      </trkpt>
      <trkpt lat="43.08498" lon="-0.03618">
        <ele>617</ele>
        <time>2022-10-07T08:07:08Z</time>
      </trkpt>
      <trkpt lat="43.08498" lon="-0.03618">
        <ele>616.6</ele>
        <time>2022-10-07T08:07:09Z</time>
      </trkpt>
      <trkpt lat="43.08507" lon="-0.03618">
        <ele>616</ele>
        <time>2022-10-07T08:07:12Z</time>
      </trkpt>
      <trkpt lat="43.08509" lon="-0.03617">
        <ele>616</ele>
        <time>2022-10-07T08:07:13Z</time>
      </trkpt>
      <trkpt lat="43.08518" lon="-0.03615">
        <ele>614.8</ele>
        <time>2022-10-07T08:07:16Z</time>
      </trkpt>
      <trkpt lat="43.08524" lon="-0.03613">
        <ele>613.6</ele>
        <time>2022-10-07T08:07:18Z</time>
      </trkpt>
      <trkpt lat="43.08531" lon="-0.03613">
        <ele>612.6</ele>
        <time>2022-10-07T08:07:20Z</time>
      </trkpt>
      <trkpt lat="43.08541" lon="-0.03609">
        <ele>610.6</ele>
        <time>2022-10-07T08:07:24Z</time>
      </trkpt>
      <trkpt lat="43.08545" lon="-0.03608">
        <ele>609.4</ele>
        <time>2022-10-07T08:07:26Z</time>
      </trkpt>
      <trkpt lat="43.08547" lon="-0.03609">
        <ele>609</ele>
        <time>2022-10-07T08:07:27Z</time>
      </trkpt>
      <trkpt lat="43.08549" lon="-0.03612">
        <ele>607.8</ele>
        <time>2022-10-07T08:07:29Z</time>
      </trkpt>
      <trkpt lat="43.08541" lon="-0.03621">
        <ele>607.2</ele>
        <time>2022-10-07T08:07:32Z</time>
      </trkpt>
      <trkpt lat="43.08539" lon="-0.03623">
        <ele>606.6</ele>
        <time>2022-10-07T08:07:33Z</time>
      </trkpt>
      <trkpt lat="43.08535" lon="-0.03626">
        <ele>605.2</ele>
        <time>2022-10-07T08:07:35Z</time>
      </trkpt>
      <trkpt lat="43.08533" lon="-0.03628">
        <ele>604.8</ele>
        <time>2022-10-07T08:07:36Z</time>
      </trkpt>
      <trkpt lat="43.08531" lon="-0.0363">
        <ele>604.2</ele>
        <time>2022-10-07T08:07:37Z</time>
      </trkpt>
      <trkpt lat="43.08524" lon="-0.03637">
        <ele>603</ele>
        <time>2022-10-07T08:07:40Z</time>
      </trkpt>
      <trkpt lat="43.08521" lon="-0.03642">
        <ele>602.4</ele>
        <time>2022-10-07T08:07:42Z</time>
      </trkpt>
      <trkpt lat="43.08519" lon="-0.03646">
        <ele>601.6</ele>
        <time>2022-10-07T08:07:43Z</time>
      </trkpt>
      <trkpt lat="43.08521" lon="-0.03652">
        <ele>600</ele>
        <time>2022-10-07T08:07:45Z</time>
      </trkpt>
      <trkpt lat="43.08525" lon="-0.03652">
        <ele>599</ele>
        <time>2022-10-07T08:07:47Z</time>
      </trkpt>
      <trkpt lat="43.08528" lon="-0.03653">
        <ele>597.8</ele>
        <time>2022-10-07T08:07:49Z</time>
      </trkpt>
      <trkpt lat="43.08538" lon="-0.03655">
        <ele>595.8</ele>
        <time>2022-10-07T08:07:52Z</time>
      </trkpt>
      <trkpt lat="43.08544" lon="-0.03655">
        <ele>594.4</ele>
        <time>2022-10-07T08:07:54Z</time>
      </trkpt>
      <trkpt lat="43.08549" lon="-0.03653">
        <ele>593.2</ele>
        <time>2022-10-07T08:07:56Z</time>
      </trkpt>
      <trkpt lat="43.08551" lon="-0.03654">
        <ele>593</ele>
        <time>2022-10-07T08:07:57Z</time>
      </trkpt>
      <trkpt lat="43.08554" lon="-0.03655">
        <ele>591.8</ele>
        <time>2022-10-07T08:07:59Z</time>
      </trkpt>
      <trkpt lat="43.08555" lon="-0.03656">
        <ele>590.6</ele>
        <time>2022-10-07T08:08:00Z</time>
      </trkpt>
      <trkpt lat="43.08561" lon="-0.03657">
        <ele>589.6</ele>
        <time>2022-10-07T08:08:02Z</time>
      </trkpt>
      <trkpt lat="43.08573" lon="-0.03661">
        <ele>588.8</ele>
        <time>2022-10-07T08:08:05Z</time>
      </trkpt>
      <trkpt lat="43.08583" lon="-0.03663">
        <ele>588.2</ele>
        <time>2022-10-07T08:08:07Z</time>
      </trkpt>
      <trkpt lat="43.08591" lon="-0.0367">
        <ele>587.8</ele>
        <time>2022-10-07T08:08:09Z</time>
      </trkpt>
      <trkpt lat="43.08595" lon="-0.03674">
        <ele>587.8</ele>
        <time>2022-10-07T08:08:10Z</time>
      </trkpt>
      <trkpt lat="43.0861" lon="-0.03691">
        <ele>587</ele>
        <time>2022-10-07T08:08:13Z</time>
      </trkpt>
      <trkpt lat="43.08628" lon="-0.03718">
        <ele>585.8</ele>
        <time>2022-10-07T08:08:17Z</time>
      </trkpt>
      <trkpt lat="43.08634" lon="-0.03722">
        <ele>585.8</ele>
        <time>2022-10-07T08:08:18Z</time>
      </trkpt>
      <trkpt lat="43.08646" lon="-0.03732">
        <ele>585.4</ele>
        <time>2022-10-07T08:08:20Z</time>
      </trkpt>
      <trkpt lat="43.08656" lon="-0.03748">
        <ele>584.6</ele>
        <time>2022-10-07T08:08:22Z</time>
      </trkpt>
      <trkpt lat="43.08661" lon="-0.03756">
        <ele>584.2</ele>
        <time>2022-10-07T08:08:23Z</time>
      </trkpt>
      <trkpt lat="43.08677" lon="-0.03778">
        <ele>583</ele>
        <time>2022-10-07T08:08:26Z</time>
      </trkpt>
      <trkpt lat="43.08681" lon="-0.03786">
        <ele>582.4</ele>
        <time>2022-10-07T08:08:27Z</time>
      </trkpt>
      <trkpt lat="43.08686" lon="-0.03794">
        <ele>581.6</ele>
        <time>2022-10-07T08:08:28Z</time>
      </trkpt>
      <trkpt lat="43.08689" lon="-0.03803">
        <ele>581.4</ele>
        <time>2022-10-07T08:08:29Z</time>
      </trkpt>
      <trkpt lat="43.08699" lon="-0.0383">
        <ele>580.4</ele>
        <time>2022-10-07T08:08:32Z</time>
      </trkpt>
      <trkpt lat="43.08701" lon="-0.03838">
        <ele>580</ele>
        <time>2022-10-07T08:08:33Z</time>
      </trkpt>
      <trkpt lat="43.08709" lon="-0.03851">
        <ele>579.6</ele>
        <time>2022-10-07T08:08:35Z</time>
      </trkpt>
      <trkpt lat="43.08713" lon="-0.03856">
        <ele>579.4</ele>
        <time>2022-10-07T08:08:36Z</time>
      </trkpt>
      <trkpt lat="43.0872" lon="-0.03864">
        <ele>578.6</ele>
        <time>2022-10-07T08:08:38Z</time>
      </trkpt>
      <trkpt lat="43.08724" lon="-0.03867">
        <ele>578</ele>
        <time>2022-10-07T08:08:39Z</time>
      </trkpt>
      <trkpt lat="43.0873" lon="-0.0387">
        <ele>576.6</ele>
        <time>2022-10-07T08:08:42Z</time>
      </trkpt>
      <trkpt lat="43.08732" lon="-0.03871">
        <ele>576.4</ele>
        <time>2022-10-07T08:08:43Z</time>
      </trkpt>
      <trkpt lat="43.08732" lon="-0.03871">
        <ele>575.6</ele>
        <time>2022-10-07T08:08:44Z</time>
      </trkpt>
      <trkpt lat="43.08735" lon="-0.03874">
        <ele>575</ele>
        <time>2022-10-07T08:08:45Z</time>
      </trkpt>
      <trkpt lat="43.08737" lon="-0.03877">
        <ele>574.4</ele>
        <time>2022-10-07T08:08:46Z</time>
      </trkpt>
      <trkpt lat="43.0874" lon="-0.03883">
        <ele>573.8</ele>
        <time>2022-10-07T08:08:48Z</time>
      </trkpt>
      <trkpt lat="43.08742" lon="-0.03885">
        <ele>573.4</ele>
        <time>2022-10-07T08:08:49Z</time>
      </trkpt>
      <trkpt lat="43.08744" lon="-0.03886">
        <ele>572.8</ele>
        <time>2022-10-07T08:08:50Z</time>
      </trkpt>
      <trkpt lat="43.08748" lon="-0.03888">
        <ele>571.6</ele>
        <time>2022-10-07T08:08:52Z</time>
      </trkpt>
      <trkpt lat="43.08748" lon="-0.03888">
        <ele>570.2</ele>
        <time>2022-10-07T08:08:54Z</time>
      </trkpt>
      <trkpt lat="43.08747" lon="-0.03889">
        <ele>569.4</ele>
        <time>2022-10-07T08:08:55Z</time>
      </trkpt>
      <trkpt lat="43.08745" lon="-0.03892">
        <ele>569.2</ele>
        <time>2022-10-07T08:08:56Z</time>
      </trkpt>
      <trkpt lat="43.08747" lon="-0.03897">
        <ele>568.4</ele>
        <time>2022-10-07T08:08:58Z</time>
      </trkpt>
      <trkpt lat="43.08749" lon="-0.03899">
        <ele>567.6</ele>
        <time>2022-10-07T08:08:59Z</time>
      </trkpt>
      <trkpt lat="43.08755" lon="-0.03901">
        <ele>566.4</ele>
        <time>2022-10-07T08:09:01Z</time>
      </trkpt>
      <trkpt lat="43.08762" lon="-0.03905">
        <ele>565.4</ele>
        <time>2022-10-07T08:09:03Z</time>
      </trkpt>
      <trkpt lat="43.08768" lon="-0.03907">
        <ele>564.4</ele>
        <time>2022-10-07T08:09:04Z</time>
      </trkpt>
      <trkpt lat="43.08773" lon="-0.03907">
        <ele>564</ele>
        <time>2022-10-07T08:09:05Z</time>
      </trkpt>
      <trkpt lat="43.08778" lon="-0.03907">
        <ele>563</ele>
        <time>2022-10-07T08:09:06Z</time>
      </trkpt>
      <trkpt lat="43.08783" lon="-0.03908">
        <ele>562.8</ele>
        <time>2022-10-07T08:09:07Z</time>
      </trkpt>
      <trkpt lat="43.08787" lon="-0.03912">
        <ele>561.8</ele>
        <time>2022-10-07T08:09:08Z</time>
      </trkpt>
      <trkpt lat="43.08791" lon="-0.03915">
        <ele>561.2</ele>
        <time>2022-10-07T08:09:09Z</time>
      </trkpt>
      <trkpt lat="43.08795" lon="-0.03919">
        <ele>559.6</ele>
        <time>2022-10-07T08:09:10Z</time>
      </trkpt>
      <trkpt lat="43.08804" lon="-0.03922">
        <ele>558</ele>
        <time>2022-10-07T08:09:12Z</time>
      </trkpt>
      <trkpt lat="43.0881" lon="-0.03922">
        <ele>557.6</ele>
        <time>2022-10-07T08:09:13Z</time>
      </trkpt>
      <trkpt lat="43.08815" lon="-0.03921">
        <ele>556.6</ele>
        <time>2022-10-07T08:09:14Z</time>
      </trkpt>
      <trkpt lat="43.0882" lon="-0.0392">
        <ele>556.2</ele>
        <time>2022-10-07T08:09:15Z</time>
      </trkpt>
      <trkpt lat="43.08825" lon="-0.03921">
        <ele>555</ele>
        <time>2022-10-07T08:09:16Z</time>
      </trkpt>
      <trkpt lat="43.08835" lon="-0.03921">
        <ele>551.6</ele>
        <time>2022-10-07T08:09:18Z</time>
      </trkpt>
      <trkpt lat="43.08839" lon="-0.03919">
        <ele>550.4</ele>
        <time>2022-10-07T08:09:19Z</time>
      </trkpt>
      <trkpt lat="43.08842" lon="-0.03917">
        <ele>548.8</ele>
        <time>2022-10-07T08:09:20Z</time>
      </trkpt>
      <trkpt lat="43.08845" lon="-0.03914">
        <ele>547.8</ele>
        <time>2022-10-07T08:09:21Z</time>
      </trkpt>
      <trkpt lat="43.08848" lon="-0.03914">
        <ele>547</ele>
        <time>2022-10-07T08:09:22Z</time>
      </trkpt>
      <trkpt lat="43.08852" lon="-0.03915">
        <ele>546</ele>
        <time>2022-10-07T08:09:23Z</time>
      </trkpt>
      <trkpt lat="43.08854" lon="-0.03916">
        <ele>545.4</ele>
        <time>2022-10-07T08:09:25Z</time>
      </trkpt>
      <trkpt lat="43.08854" lon="-0.03918">
        <ele>545.2</ele>
        <time>2022-10-07T08:09:26Z</time>
      </trkpt>
      <trkpt lat="43.08853" lon="-0.03921">
        <ele>544.6</ele>
        <time>2022-10-07T08:09:27Z</time>
      </trkpt>
      <trkpt lat="43.08851" lon="-0.03925">
        <ele>544.4</ele>
        <time>2022-10-07T08:09:28Z</time>
      </trkpt>
      <trkpt lat="43.08847" lon="-0.03928">
        <ele>543</ele>
        <time>2022-10-07T08:09:29Z</time>
      </trkpt>
      <trkpt lat="43.0884" lon="-0.03931">
        <ele>541.6</ele>
        <time>2022-10-07T08:09:31Z</time>
      </trkpt>
      <trkpt lat="43.08837" lon="-0.03933">
        <ele>541.2</ele>
        <time>2022-10-07T08:09:32Z</time>
      </trkpt>
      <trkpt lat="43.08834" lon="-0.03934">
        <ele>540.4</ele>
        <time>2022-10-07T08:09:33Z</time>
      </trkpt>
      <trkpt lat="43.0883" lon="-0.03935">
        <ele>539</ele>
        <time>2022-10-07T08:09:35Z</time>
      </trkpt>
      <trkpt lat="43.08828" lon="-0.03937">
        <ele>538.6</ele>
        <time>2022-10-07T08:09:36Z</time>
      </trkpt>
      <trkpt lat="43.08827" lon="-0.03939">
        <ele>538.4</ele>
        <time>2022-10-07T08:09:37Z</time>
      </trkpt>
      <trkpt lat="43.08816" lon="-0.03945">
        <ele>537.6</ele>
        <time>2022-10-07T08:09:40Z</time>
      </trkpt>
      <trkpt lat="43.08805" lon="-0.03953">
        <ele>536.4</ele>
        <time>2022-10-07T08:09:43Z</time>
      </trkpt>
      <trkpt lat="43.08788" lon="-0.03964">
        <ele>535.2</ele>
        <time>2022-10-07T08:09:46Z</time>
      </trkpt>
      <trkpt lat="43.08778" lon="-0.03971">
        <ele>534.6</ele>
        <time>2022-10-07T08:09:48Z</time>
      </trkpt>
      <trkpt lat="43.08767" lon="-0.03976">
        <ele>533.4</ele>
        <time>2022-10-07T08:09:50Z</time>
      </trkpt>
      <trkpt lat="43.08755" lon="-0.0398">
        <ele>532</ele>
        <time>2022-10-07T08:09:52Z</time>
      </trkpt>
      <trkpt lat="43.0875" lon="-0.03981">
        <ele>531.6</ele>
        <time>2022-10-07T08:09:53Z</time>
      </trkpt>
      <trkpt lat="43.08746" lon="-0.03981">
        <ele>530.6</ele>
        <time>2022-10-07T08:09:54Z</time>
      </trkpt>
      <trkpt lat="43.08741" lon="-0.0398">
        <ele>529</ele>
        <time>2022-10-07T08:09:56Z</time>
      </trkpt>
      <trkpt lat="43.08739" lon="-0.03984">
        <ele>528</ele>
        <time>2022-10-07T08:09:58Z</time>
      </trkpt>
      <trkpt lat="43.08736" lon="-0.03986">
        <ele>527.6</ele>
        <time>2022-10-07T08:09:59Z</time>
      </trkpt>
      <trkpt lat="43.08729" lon="-0.03987">
        <ele>527</ele>
        <time>2022-10-07T08:10:01Z</time>
      </trkpt>
      <trkpt lat="43.08723" lon="-0.03989">
        <ele>526.8</ele>
        <time>2022-10-07T08:10:03Z</time>
      </trkpt>
      <trkpt lat="43.08711" lon="-0.0399">
        <ele>526.4</ele>
        <time>2022-10-07T08:10:06Z</time>
      </trkpt>
      <trkpt lat="43.08708" lon="-0.03988">
        <ele>525.6</ele>
        <time>2022-10-07T08:10:07Z</time>
      </trkpt>
      <trkpt lat="43.08701" lon="-0.03986">
        <ele>524.4</ele>
        <time>2022-10-07T08:10:09Z</time>
      </trkpt>
      <trkpt lat="43.08695" lon="-0.03982">
        <ele>523.2</ele>
        <time>2022-10-07T08:10:11Z</time>
      </trkpt>
      <trkpt lat="43.08693" lon="-0.0398">
        <ele>523</ele>
        <time>2022-10-07T08:10:12Z</time>
      </trkpt>
      <trkpt lat="43.0869" lon="-0.03981">
        <ele>521.8</ele>
        <time>2022-10-07T08:10:13Z</time>
      </trkpt>
      <trkpt lat="43.08687" lon="-0.0398">
        <ele>521.4</ele>
        <time>2022-10-07T08:10:14Z</time>
      </trkpt>
      <trkpt lat="43.08684" lon="-0.03979">
        <ele>520</ele>
        <time>2022-10-07T08:10:15Z</time>
      </trkpt>
      <trkpt lat="43.08681" lon="-0.03978">
        <ele>519.6</ele>
        <time>2022-10-07T08:10:16Z</time>
      </trkpt>
      <trkpt lat="43.08677" lon="-0.03976">
        <ele>519</ele>
        <time>2022-10-07T08:10:17Z</time>
      </trkpt>
      <trkpt lat="43.0867" lon="-0.03973">
        <ele>517.6</ele>
        <time>2022-10-07T08:10:19Z</time>
      </trkpt>
      <trkpt lat="43.08663" lon="-0.03973">
        <ele>516.4</ele>
        <time>2022-10-07T08:10:21Z</time>
      </trkpt>
      <trkpt lat="43.08659" lon="-0.03972">
        <ele>515.4</ele>
        <time>2022-10-07T08:10:22Z</time>
      </trkpt>
      <trkpt lat="43.08651" lon="-0.03969">
        <ele>512.8</ele>
        <time>2022-10-07T08:10:24Z</time>
      </trkpt>
      <trkpt lat="43.08647" lon="-0.03968">
        <ele>512.2</ele>
        <time>2022-10-07T08:10:25Z</time>
      </trkpt>
      <trkpt lat="43.08643" lon="-0.03966">
        <ele>511.2</ele>
        <time>2022-10-07T08:10:26Z</time>
      </trkpt>
      <trkpt lat="43.0864" lon="-0.03964">
        <ele>511</ele>
        <time>2022-10-07T08:10:27Z</time>
      </trkpt>
      <trkpt lat="43.08638" lon="-0.03961">
        <ele>508.6</ele>
        <time>2022-10-07T08:10:28Z</time>
      </trkpt>
      <trkpt lat="43.08635" lon="-0.03959">
        <ele>507.6</ele>
        <time>2022-10-07T08:10:29Z</time>
      </trkpt>
      <trkpt lat="43.08632" lon="-0.03957">
        <ele>506.4</ele>
        <time>2022-10-07T08:10:30Z</time>
      </trkpt>
      <trkpt lat="43.08627" lon="-0.03952">
        <ele>505</ele>
        <time>2022-10-07T08:10:32Z</time>
      </trkpt>
      <trkpt lat="43.08622" lon="-0.03947">
        <ele>504.2</ele>
        <time>2022-10-07T08:10:34Z</time>
      </trkpt>
      <trkpt lat="43.08619" lon="-0.03946">
        <ele>503.4</ele>
        <time>2022-10-07T08:10:36Z</time>
      </trkpt>
      <trkpt lat="43.0862" lon="-0.03947">
        <ele>502.6</ele>
        <time>2022-10-07T08:10:37Z</time>
      </trkpt>
      <trkpt lat="43.0862" lon="-0.03949">
        <ele>502.2</ele>
        <time>2022-10-07T08:10:38Z</time>
      </trkpt>
      <trkpt lat="43.08624" lon="-0.03956">
        <ele>500.8</ele>
        <time>2022-10-07T08:10:40Z</time>
      </trkpt>
      <trkpt lat="43.08626" lon="-0.03959">
        <ele>500</ele>
        <time>2022-10-07T08:10:41Z</time>
      </trkpt>
      <trkpt lat="43.08629" lon="-0.03963">
        <ele>499.6</ele>
        <time>2022-10-07T08:10:42Z</time>
      </trkpt>
      <trkpt lat="43.08632" lon="-0.03968">
        <ele>498.4</ele>
        <time>2022-10-07T08:10:43Z</time>
      </trkpt>
      <trkpt lat="43.08634" lon="-0.03972">
        <ele>497.2</ele>
        <time>2022-10-07T08:10:45Z</time>
      </trkpt>
      <trkpt lat="43.0864" lon="-0.0398">
        <ele>496.8</ele>
        <time>2022-10-07T08:10:46Z</time>
      </trkpt>
      <trkpt lat="43.08649" lon="-0.03992">
        <ele>495.8</ele>
        <time>2022-10-07T08:10:49Z</time>
      </trkpt>
      <trkpt lat="43.08651" lon="-0.03995">
        <ele>495.6</ele>
        <time>2022-10-07T08:10:50Z</time>
      </trkpt>
      <trkpt lat="43.0865" lon="-0.03998">
        <ele>495</ele>
        <time>2022-10-07T08:10:51Z</time>
      </trkpt>
      <trkpt lat="43.08648" lon="-0.03999">
        <ele>494.8</ele>
        <time>2022-10-07T08:10:52Z</time>
      </trkpt>
      <trkpt lat="43.08644" lon="-0.03998">
        <ele>493.2</ele>
        <time>2022-10-07T08:10:54Z</time>
      </trkpt>
      <trkpt lat="43.08643" lon="-0.03999">
        <ele>492.6</ele>
        <time>2022-10-07T08:10:55Z</time>
      </trkpt>
      <trkpt lat="43.08641" lon="-0.03999">
        <ele>492</ele>
        <time>2022-10-07T08:10:56Z</time>
      </trkpt>
      <trkpt lat="43.08634" lon="-0.03996">
        <ele>490.8</ele>
        <time>2022-10-07T08:10:58Z</time>
      </trkpt>
      <trkpt lat="43.08631" lon="-0.03993">
        <ele>490.4</ele>
        <time>2022-10-07T08:10:59Z</time>
      </trkpt>
      <trkpt lat="43.08627" lon="-0.03993">
        <ele>489.8</ele>
        <time>2022-10-07T08:11:01Z</time>
      </trkpt>
      <trkpt lat="43.08626" lon="-0.03996">
        <ele>488.4</ele>
        <time>2022-10-07T08:11:02Z</time>
      </trkpt>
      <trkpt lat="43.08627" lon="-0.03999">
        <ele>487.6</ele>
        <time>2022-10-07T08:11:03Z</time>
      </trkpt>
      <trkpt lat="43.08628" lon="-0.04003">
        <ele>486.6</ele>
        <time>2022-10-07T08:11:04Z</time>
      </trkpt>
      <trkpt lat="43.08635" lon="-0.04015">
        <ele>485.4</ele>
        <time>2022-10-07T08:11:07Z</time>
      </trkpt>
      <trkpt lat="43.08637" lon="-0.04025">
        <ele>484.4</ele>
        <time>2022-10-07T08:11:09Z</time>
      </trkpt>
      <trkpt lat="43.0864" lon="-0.04028">
        <ele>483.6</ele>
        <time>2022-10-07T08:11:10Z</time>
      </trkpt>
      <trkpt lat="43.08643" lon="-0.0403">
        <ele>483.4</ele>
        <time>2022-10-07T08:11:11Z</time>
      </trkpt>
      <trkpt lat="43.08646" lon="-0.04032">
        <ele>481.8</ele>
        <time>2022-10-07T08:11:12Z</time>
      </trkpt>
      <trkpt lat="43.08648" lon="-0.04034">
        <ele>480.2</ele>
        <time>2022-10-07T08:11:13Z</time>
      </trkpt>
      <trkpt lat="43.08649" lon="-0.04037">
        <ele>479.6</ele>
        <time>2022-10-07T08:11:14Z</time>
      </trkpt>
      <trkpt lat="43.08648" lon="-0.0404">
        <ele>478.8</ele>
        <time>2022-10-07T08:11:15Z</time>
      </trkpt>
      <trkpt lat="43.08643" lon="-0.04042">
        <ele>478.2</ele>
        <time>2022-10-07T08:11:17Z</time>
      </trkpt>
      <trkpt lat="43.08637" lon="-0.04039">
        <ele>477.2</ele>
        <time>2022-10-07T08:11:19Z</time>
      </trkpt>
      <trkpt lat="43.0863" lon="-0.04033">
        <ele>475.8</ele>
        <time>2022-10-07T08:11:21Z</time>
      </trkpt>
      <trkpt lat="43.08626" lon="-0.04029">
        <ele>475.4</ele>
        <time>2022-10-07T08:11:22Z</time>
      </trkpt>
      <trkpt lat="43.08623" lon="-0.04025">
        <ele>474.6</ele>
        <time>2022-10-07T08:11:23Z</time>
      </trkpt>
      <trkpt lat="43.08616" lon="-0.04015">
        <ele>474</ele>
        <time>2022-10-07T08:11:25Z</time>
      </trkpt>
      <trkpt lat="43.08609" lon="-0.04007">
        <ele>473.4</ele>
        <time>2022-10-07T08:11:27Z</time>
      </trkpt>
      <trkpt lat="43.08606" lon="-0.04005">
        <ele>473</ele>
        <time>2022-10-07T08:11:28Z</time>
      </trkpt>
      <trkpt lat="43.08596" lon="-0.04005">
        <ele>472.6</ele>
        <time>2022-10-07T08:11:30Z</time>
      </trkpt>
      <trkpt lat="43.08591" lon="-0.04005">
        <ele>472.4</ele>
        <time>2022-10-07T08:11:31Z</time>
      </trkpt>
      <trkpt lat="43.08577" lon="-0.04012">
        <ele>471.4</ele>
        <time>2022-10-07T08:11:34Z</time>
      </trkpt>
      <trkpt lat="43.08565" lon="-0.04023">
        <ele>470.2</ele>
        <time>2022-10-07T08:11:36Z</time>
      </trkpt>
      <trkpt lat="43.08555" lon="-0.04029">
        <ele>469.2</ele>
        <time>2022-10-07T08:11:38Z</time>
      </trkpt>
      <trkpt lat="43.08551" lon="-0.04033">
        <ele>468.8</ele>
        <time>2022-10-07T08:11:39Z</time>
      </trkpt>
      <trkpt lat="43.08539" lon="-0.0404">
        <ele>467.6</ele>
        <time>2022-10-07T08:11:42Z</time>
      </trkpt>
      <trkpt lat="43.08535" lon="-0.04043">
        <ele>467.2</ele>
        <time>2022-10-07T08:11:43Z</time>
      </trkpt>
      <trkpt lat="43.0853" lon="-0.04045">
        <ele>466.4</ele>
        <time>2022-10-07T08:11:44Z</time>
      </trkpt>
      <trkpt lat="43.08522" lon="-0.04047">
        <ele>465</ele>
        <time>2022-10-07T08:11:46Z</time>
      </trkpt>
      <trkpt lat="43.08518" lon="-0.04048">
        <ele>464</ele>
        <time>2022-10-07T08:11:47Z</time>
      </trkpt>
      <trkpt lat="43.08514" lon="-0.04049">
        <ele>462.4</ele>
        <time>2022-10-07T08:11:48Z</time>
      </trkpt>
      <trkpt lat="43.08511" lon="-0.0405">
        <ele>462</ele>
        <time>2022-10-07T08:11:49Z</time>
      </trkpt>
      <trkpt lat="43.08506" lon="-0.04053">
        <ele>461.4</ele>
        <time>2022-10-07T08:11:50Z</time>
      </trkpt>
      <trkpt lat="43.08498" lon="-0.04062">
        <ele>460.2</ele>
        <time>2022-10-07T08:11:52Z</time>
      </trkpt>
      <trkpt lat="43.08483" lon="-0.04072">
        <ele>458.6</ele>
        <time>2022-10-07T08:11:55Z</time>
      </trkpt>
      <trkpt lat="43.08478" lon="-0.04075">
        <ele>458.4</ele>
        <time>2022-10-07T08:11:56Z</time>
      </trkpt>
      <trkpt lat="43.08469" lon="-0.04082">
        <ele>457.4</ele>
        <time>2022-10-07T08:11:58Z</time>
      </trkpt>
      <trkpt lat="43.08464" lon="-0.04081">
        <ele>456.4</ele>
        <time>2022-10-07T08:12:00Z</time>
      </trkpt>
      <trkpt lat="43.08464" lon="-0.04081">
        <ele>456</ele>
        <time>2022-10-07T08:12:01Z</time>
      </trkpt>
      <trkpt lat="43.08463" lon="-0.04082">
        <ele>455.4</ele>
        <time>2022-10-07T08:12:04Z</time>
      </trkpt>
      <trkpt lat="43.08463" lon="-0.04082">
        <ele>455.6</ele>
        <time>2022-10-07T08:12:12Z</time>
      </trkpt>
      <trkpt lat="43.08463" lon="-0.04082">
        <ele>456</ele>
        <time>2022-10-07T08:12:20Z</time>
      </trkpt>
      <trkpt lat="43.0846" lon="-0.04082">
        <ele>456</ele>
        <time>2022-10-07T08:12:21Z</time>
      </trkpt>
      <trkpt lat="43.08448" lon="-0.04085">
        <ele>456</ele>
        <time>2022-10-07T08:12:25Z</time>
      </trkpt>
      <trkpt lat="43.08431" lon="-0.04096">
        <ele>455.4</ele>
        <time>2022-10-07T08:12:29Z</time>
      </trkpt>
      <trkpt lat="43.08425" lon="-0.04102">
        <ele>454.2</ele>
        <time>2022-10-07T08:12:31Z</time>
      </trkpt>
      <trkpt lat="43.08419" lon="-0.04106">
        <ele>453</ele>
        <time>2022-10-07T08:12:33Z</time>
      </trkpt>
      <trkpt lat="43.08409" lon="-0.04111">
        <ele>451.8</ele>
        <time>2022-10-07T08:12:36Z</time>
      </trkpt>
      <trkpt lat="43.08402" lon="-0.04114">
        <ele>450.2</ele>
        <time>2022-10-07T08:12:38Z</time>
      </trkpt>
      <trkpt lat="43.08398" lon="-0.04122">
        <ele>449</ele>
        <time>2022-10-07T08:12:40Z</time>
      </trkpt>
      <trkpt lat="43.08398" lon="-0.04126">
        <ele>448.4</ele>
        <time>2022-10-07T08:12:41Z</time>
      </trkpt>
      <trkpt lat="43.08398" lon="-0.04134">
        <ele>447.2</ele>
        <time>2022-10-07T08:12:43Z</time>
      </trkpt>
      <trkpt lat="43.08398" lon="-0.04137">
        <ele>446.8</ele>
        <time>2022-10-07T08:12:44Z</time>
      </trkpt>
      <trkpt lat="43.08402" lon="-0.0414">
        <ele>445.8</ele>
        <time>2022-10-07T08:12:46Z</time>
      </trkpt>
      <trkpt lat="43.08411" lon="-0.04139">
        <ele>444.6</ele>
        <time>2022-10-07T08:12:50Z</time>
      </trkpt>
      <trkpt lat="43.08419" lon="-0.04137">
        <ele>443.6</ele>
        <time>2022-10-07T08:12:53Z</time>
      </trkpt>
      <trkpt lat="43.08427" lon="-0.04137">
        <ele>443.2</ele>
        <time>2022-10-07T08:12:55Z</time>
      </trkpt>
      <trkpt lat="43.08439" lon="-0.04139">
        <ele>442.2</ele>
        <time>2022-10-07T08:12:58Z</time>
      </trkpt>
      <trkpt lat="43.08446" lon="-0.0414">
        <ele>441</ele>
        <time>2022-10-07T08:13:00Z</time>
      </trkpt>
      <trkpt lat="43.08451" lon="-0.04142">
        <ele>440.4</ele>
        <time>2022-10-07T08:13:02Z</time>
      </trkpt>
      <trkpt lat="43.08455" lon="-0.04143">
        <ele>439.6</ele>
        <time>2022-10-07T08:13:03Z</time>
      </trkpt>
      <trkpt lat="43.0846" lon="-0.04146">
        <ele>439</ele>
        <time>2022-10-07T08:13:06Z</time>
      </trkpt>
      <trkpt lat="43.08461" lon="-0.04147">
        <ele>438.6</ele>
        <time>2022-10-07T08:13:07Z</time>
      </trkpt>
      <trkpt lat="43.08462" lon="-0.04148">
        <ele>438.2</ele>
        <time>2022-10-07T08:13:08Z</time>
      </trkpt>
      <trkpt lat="43.0846" lon="-0.04151">
        <ele>437.4</ele>
        <time>2022-10-07T08:13:10Z</time>
      </trkpt>
      <trkpt lat="43.08447" lon="-0.04152">
        <ele>436.2</ele>
        <time>2022-10-07T08:13:13Z</time>
      </trkpt>
      <trkpt lat="43.0844" lon="-0.04152">
        <ele>435.6</ele>
        <time>2022-10-07T08:13:15Z</time>
      </trkpt>
      <trkpt lat="43.08435" lon="-0.04155">
        <ele>434.4</ele>
        <time>2022-10-07T08:13:17Z</time>
      </trkpt>
      <trkpt lat="43.08426" lon="-0.04164">
        <ele>433.2</ele>
        <time>2022-10-07T08:13:20Z</time>
      </trkpt>
      <trkpt lat="43.08422" lon="-0.04166">
        <ele>432.8</ele>
        <time>2022-10-07T08:13:21Z</time>
      </trkpt>
      <trkpt lat="43.08419" lon="-0.04169">
        <ele>431.4</ele>
        <time>2022-10-07T08:13:22Z</time>
      </trkpt>
      <trkpt lat="43.08417" lon="-0.04172">
        <ele>430.4</ele>
        <time>2022-10-07T08:13:23Z</time>
      </trkpt>
      <trkpt lat="43.08416" lon="-0.04176">
        <ele>429.6</ele>
        <time>2022-10-07T08:13:24Z</time>
      </trkpt>
      <trkpt lat="43.08415" lon="-0.04188">
        <ele>428.2</ele>
        <time>2022-10-07T08:13:26Z</time>
      </trkpt>
      <trkpt lat="43.08414" lon="-0.04195">
        <ele>427.6</ele>
        <time>2022-10-07T08:13:27Z</time>
      </trkpt>
      <trkpt lat="43.08412" lon="-0.042">
        <ele>426.8</ele>
        <time>2022-10-07T08:13:28Z</time>
      </trkpt>
      <trkpt lat="43.08408" lon="-0.04207">
        <ele>425.8</ele>
        <time>2022-10-07T08:13:30Z</time>
      </trkpt>
      <trkpt lat="43.08407" lon="-0.0421">
        <ele>425</ele>
        <time>2022-10-07T08:13:31Z</time>
      </trkpt>
      <trkpt lat="43.08405" lon="-0.04214">
        <ele>423.8</ele>
        <time>2022-10-07T08:13:32Z</time>
      </trkpt>
      <trkpt lat="43.08403" lon="-0.04223">
        <ele>422.6</ele>
        <time>2022-10-07T08:13:35Z</time>
      </trkpt>
      <trkpt lat="43.08402" lon="-0.04229">
        <ele>422.2</ele>
        <time>2022-10-07T08:13:37Z</time>
      </trkpt>
      <trkpt lat="43.08397" lon="-0.04248">
        <ele>421.6</ele>
        <time>2022-10-07T08:13:41Z</time>
      </trkpt>
      <trkpt lat="43.08397" lon="-0.04252">
        <ele>421.4</ele>
        <time>2022-10-07T08:13:42Z</time>
      </trkpt>
      <trkpt lat="43.08397" lon="-0.04257">
        <ele>421</ele>
        <time>2022-10-07T08:13:44Z</time>
      </trkpt>
      <trkpt lat="43.08398" lon="-0.04259">
        <ele>420.8</ele>
        <time>2022-10-07T08:13:45Z</time>
      </trkpt>
      <trkpt lat="43.08399" lon="-0.0426">
        <ele>420.8</ele>
        <time>2022-10-07T08:13:46Z</time>
      </trkpt>
      <trkpt lat="43.084" lon="-0.04259">
        <ele>420.4</ele>
        <time>2022-10-07T08:13:47Z</time>
      </trkpt>
      <trkpt lat="43.08402" lon="-0.04251">
        <ele>419.8</ele>
        <time>2022-10-07T08:13:50Z</time>
      </trkpt>
      <trkpt lat="43.08407" lon="-0.04243">
        <ele>419.2</ele>
        <time>2022-10-07T08:13:53Z</time>
      </trkpt>
      <trkpt lat="43.0841" lon="-0.04243">
        <ele>419</ele>
        <time>2022-10-07T08:13:54Z</time>
      </trkpt>
      <trkpt lat="43.08412" lon="-0.04245">
        <ele>418.8</ele>
        <time>2022-10-07T08:13:55Z</time>
      </trkpt>
      <trkpt lat="43.08411" lon="-0.04255">
        <ele>418.8</ele>
        <time>2022-10-07T08:13:57Z</time>
      </trkpt>
      <trkpt lat="43.08412" lon="-0.0427">
        <ele>418</ele>
        <time>2022-10-07T08:14:00Z</time>
      </trkpt>
      <trkpt lat="43.08414" lon="-0.04277">
        <ele>417.8</ele>
        <time>2022-10-07T08:14:01Z</time>
      </trkpt>
      <trkpt lat="43.08419" lon="-0.04288">
        <ele>417.4</ele>
        <time>2022-10-07T08:14:03Z</time>
      </trkpt>
      <trkpt lat="43.08423" lon="-0.04293">
        <ele>416.8</ele>
        <time>2022-10-07T08:14:04Z</time>
      </trkpt>
      <trkpt lat="43.08427" lon="-0.043">
        <ele>416.4</ele>
        <time>2022-10-07T08:14:05Z</time>
      </trkpt>
      <trkpt lat="43.08442" lon="-0.04322">
        <ele>415.8</ele>
        <time>2022-10-07T08:14:09Z</time>
      </trkpt>
      <trkpt lat="43.08449" lon="-0.04327">
        <ele>415</ele>
        <time>2022-10-07T08:14:10Z</time>
      </trkpt>
      <trkpt lat="43.08453" lon="-0.0433">
        <ele>415</ele>
        <time>2022-10-07T08:14:11Z</time>
      </trkpt>
      <trkpt lat="43.08459" lon="-0.04333">
        <ele>414.6</ele>
        <time>2022-10-07T08:14:12Z</time>
      </trkpt>
      <trkpt lat="43.08465" lon="-0.04334">
        <ele>414.6</ele>
        <time>2022-10-07T08:14:13Z</time>
      </trkpt>
      <trkpt lat="43.08471" lon="-0.04335">
        <ele>414.4</ele>
        <time>2022-10-07T08:14:14Z</time>
      </trkpt>
      <trkpt lat="43.08489" lon="-0.04335">
        <ele>413.4</ele>
        <time>2022-10-07T08:14:17Z</time>
      </trkpt>
      <trkpt lat="43.08511" lon="-0.04334">
        <ele>412.4</ele>
        <time>2022-10-07T08:14:21Z</time>
      </trkpt>
      <trkpt lat="43.08551" lon="-0.04334">
        <ele>411.8</ele>
        <time>2022-10-07T08:14:29Z</time>
      </trkpt>
      <trkpt lat="43.08556" lon="-0.04335">
        <ele>411.8</ele>
        <time>2022-10-07T08:14:30Z</time>
      </trkpt>
      <trkpt lat="43.08565" lon="-0.04339">
        <ele>411.8</ele>
        <time>2022-10-07T08:14:32Z</time>
      </trkpt>
      <trkpt lat="43.08569" lon="-0.04342">
        <ele>411.6</ele>
        <time>2022-10-07T08:14:33Z</time>
      </trkpt>
      <trkpt lat="43.08576" lon="-0.04344">
        <ele>410.8</ele>
        <time>2022-10-07T08:14:36Z</time>
      </trkpt>
      <trkpt lat="43.08577" lon="-0.04344">
        <ele>410.4</ele>
        <time>2022-10-07T08:14:37Z</time>
      </trkpt>
      <trkpt lat="43.08579" lon="-0.04344">
        <ele>409.8</ele>
        <time>2022-10-07T08:14:38Z</time>
      </trkpt>
      <trkpt lat="43.08585" lon="-0.04344">
        <ele>408.8</ele>
        <time>2022-10-07T08:14:42Z</time>
      </trkpt>
      <trkpt lat="43.08589" lon="-0.04343">
        <ele>408.4</ele>
        <time>2022-10-07T08:14:44Z</time>
      </trkpt>
      <trkpt lat="43.08608" lon="-0.04338">
        <ele>407.8</ele>
        <time>2022-10-07T08:14:49Z</time>
      </trkpt>
      <trkpt lat="43.08637" lon="-0.04332">
        <ele>407.4</ele>
        <time>2022-10-07T08:14:54Z</time>
      </trkpt>
      <trkpt lat="43.08658" lon="-0.0433">
        <ele>407</ele>
        <time>2022-10-07T08:14:57Z</time>
      </trkpt>
      <trkpt lat="43.08688" lon="-0.04325">
        <ele>406.6</ele>
        <time>2022-10-07T08:15:01Z</time>
      </trkpt>
      <trkpt lat="43.08742" lon="-0.04317">
        <ele>407</ele>
        <time>2022-10-07T08:15:09Z</time>
      </trkpt>
      <trkpt lat="43.08749" lon="-0.04316">
        <ele>407.2</ele>
        <time>2022-10-07T08:15:10Z</time>
      </trkpt>
      <trkpt lat="43.08807" lon="-0.04308">
        <ele>408</ele>
        <time>2022-10-07T08:15:18Z</time>
      </trkpt>
      <trkpt lat="43.08815" lon="-0.04307">
        <ele>408</ele>
        <time>2022-10-07T08:15:19Z</time>
      </trkpt>
      <trkpt lat="43.08869" lon="-0.04297">
        <ele>408.2</ele>
        <time>2022-10-07T08:15:26Z</time>
      </trkpt>
      <trkpt lat="43.08884" lon="-0.04295">
        <ele>408</ele>
        <time>2022-10-07T08:15:28Z</time>
      </trkpt>
      <trkpt lat="43.08939" lon="-0.04284">
        <ele>407.4</ele>
        <time>2022-10-07T08:15:35Z</time>
      </trkpt>
      <trkpt lat="43.08947" lon="-0.04282">
        <ele>407.4</ele>
        <time>2022-10-07T08:15:36Z</time>
      </trkpt>
      <trkpt lat="43.08985" lon="-0.04266">
        <ele>407</ele>
        <time>2022-10-07T08:15:41Z</time>
      </trkpt>
      <trkpt lat="43.09" lon="-0.04257">
        <ele>406.8</ele>
        <time>2022-10-07T08:15:43Z</time>
      </trkpt>
      <trkpt lat="43.09048" lon="-0.04221">
        <ele>406.2</ele>
        <time>2022-10-07T08:15:50Z</time>
      </trkpt>
      <trkpt lat="43.09067" lon="-0.04204">
        <ele>406</ele>
        <time>2022-10-07T08:15:53Z</time>
      </trkpt>
      <trkpt lat="43.09118" lon="-0.0416">
        <ele>405.8</ele>
        <time>2022-10-07T08:16:01Z</time>
      </trkpt>
      <trkpt lat="43.09124" lon="-0.04154">
        <ele>405.6</ele>
        <time>2022-10-07T08:16:02Z</time>
      </trkpt>
      <trkpt lat="43.09172" lon="-0.04112">
        <ele>405.4</ele>
        <time>2022-10-07T08:16:10Z</time>
      </trkpt>
      <trkpt lat="43.09184" lon="-0.04101">
        <ele>405.4</ele>
        <time>2022-10-07T08:16:12Z</time>
      </trkpt>
      <trkpt lat="43.09231" lon="-0.0406">
        <ele>405.4</ele>
        <time>2022-10-07T08:16:20Z</time>
      </trkpt>
      <trkpt lat="43.09254" lon="-0.04039">
        <ele>405.4</ele>
        <time>2022-10-07T08:16:24Z</time>
      </trkpt>
      <trkpt lat="43.093" lon="-0.03995">
        <ele>405.8</ele>
        <time>2022-10-07T08:16:32Z</time>
      </trkpt>
      <trkpt lat="43.09339" lon="-0.03945">
        <ele>406.2</ele>
        <time>2022-10-07T08:16:40Z</time>
      </trkpt>
      <trkpt lat="43.09371" lon="-0.03888">
        <ele>406.6</ele>
        <time>2022-10-07T08:16:48Z</time>
      </trkpt>
      <trkpt lat="43.09394" lon="-0.0383">
        <ele>407.4</ele>
        <time>2022-10-07T08:16:55Z</time>
      </trkpt>
      <trkpt lat="43.09399" lon="-0.03812">
        <ele>407.4</ele>
        <time>2022-10-07T08:16:57Z</time>
      </trkpt>
      <trkpt lat="43.09414" lon="-0.03735">
        <ele>407.4</ele>
        <time>2022-10-07T08:17:05Z</time>
      </trkpt>
      <trkpt lat="43.09422" lon="-0.03684">
        <ele>407.2</ele>
        <time>2022-10-07T08:17:10Z</time>
      </trkpt>
      <trkpt lat="43.09423" lon="-0.03664">
        <ele>407</ele>
        <time>2022-10-07T08:17:12Z</time>
      </trkpt>
      <trkpt lat="43.09423" lon="-0.03654">
        <ele>406.8</ele>
        <time>2022-10-07T08:17:13Z</time>
      </trkpt>
      <trkpt lat="43.09422" lon="-0.03606">
        <ele>406.6</ele>
        <time>2022-10-07T08:17:18Z</time>
      </trkpt>
      <trkpt lat="43.09423" lon="-0.03593">
        <ele>406.4</ele>
        <time>2022-10-07T08:17:20Z</time>
      </trkpt>
      <trkpt lat="43.09426" lon="-0.03587">
        <ele>406.2</ele>
        <time>2022-10-07T08:17:21Z</time>
      </trkpt>
      <trkpt lat="43.0943" lon="-0.03583">
        <ele>406.2</ele>
        <time>2022-10-07T08:17:22Z</time>
      </trkpt>
      <trkpt lat="43.09433" lon="-0.03571">
        <ele>405.8</ele>
        <time>2022-10-07T08:17:24Z</time>
      </trkpt>
      <trkpt lat="43.09433" lon="-0.03533">
        <ele>405.4</ele>
        <time>2022-10-07T08:17:30Z</time>
      </trkpt>
      <trkpt lat="43.09431" lon="-0.03518">
        <ele>405.2</ele>
        <time>2022-10-07T08:17:33Z</time>
      </trkpt>
      <trkpt lat="43.09429" lon="-0.03504">
        <ele>405.2</ele>
        <time>2022-10-07T08:17:36Z</time>
      </trkpt>
      <trkpt lat="43.09429" lon="-0.03501">
        <ele>405</ele>
        <time>2022-10-07T08:17:40Z</time>
      </trkpt>
      <trkpt lat="43.09429" lon="-0.03501">
        <ele>405</ele>
        <time>2022-10-07T08:18:08Z</time>
      </trkpt>
      <trkpt lat="43.09429" lon="-0.03501">
        <ele>404.8</ele>
        <time>2022-10-07T08:18:57Z</time>
      </trkpt>
      <trkpt lat="43.09429" lon="-0.03501">
        <ele>405</ele>
        <time>2022-10-07T08:19:57Z</time>
      </trkpt>
      <trkpt lat="43.09429" lon="-0.03501">
        <ele>404.8</ele>
        <time>2022-10-07T08:20:44Z</time>
      </trkpt>
      <trkpt lat="43.09429" lon="-0.03501">
        <ele>404.8</ele>
        <time>2022-10-07T08:20:58Z</time>
      </trkpt>
      <trkpt lat="43.09431" lon="-0.03498">
        <ele>404.8</ele>
        <time>2022-10-07T08:22:12Z</time>
      </trkpt>
      <trkpt lat="43.09431" lon="-0.03498">
        <ele>405</ele>
        <time>2022-10-07T08:22:13Z</time>
      </trkpt>
      <trkpt lat="43.09431" lon="-0.03504">
        <ele>405</ele>
        <time>2022-10-07T08:22:15Z</time>
      </trkpt>
      <trkpt lat="43.09432" lon="-0.03511">
        <ele>405</ele>
        <time>2022-10-07T08:22:17Z</time>
      </trkpt>
      <trkpt lat="43.09435" lon="-0.03528">
        <ele>405.2</ele>
        <time>2022-10-07T08:22:20Z</time>
      </trkpt>
      <trkpt lat="43.09435" lon="-0.0357">
        <ele>405.4</ele>
        <time>2022-10-07T08:22:26Z</time>
      </trkpt>
      <trkpt lat="43.09434" lon="-0.03575">
        <ele>405.4</ele>
        <time>2022-10-07T08:22:27Z</time>
      </trkpt>
      <trkpt lat="43.09432" lon="-0.03581">
        <ele>405.4</ele>
        <time>2022-10-07T08:22:29Z</time>
      </trkpt>
      <trkpt lat="43.0943" lon="-0.03583">
        <ele>405.4</ele>
        <time>2022-10-07T08:22:33Z</time>
      </trkpt>
      <trkpt lat="43.09429" lon="-0.03583">
        <ele>405.2</ele>
        <time>2022-10-07T08:23:01Z</time>
      </trkpt>
      <trkpt lat="43.09425" lon="-0.03579">
        <ele>405.2</ele>
        <time>2022-10-07T08:23:02Z</time>
      </trkpt>
      <trkpt lat="43.09422" lon="-0.03571">
        <ele>405.2</ele>
        <time>2022-10-07T08:23:03Z</time>
      </trkpt>
      <trkpt lat="43.09419" lon="-0.03545">
        <ele>405.4</ele>
        <time>2022-10-07T08:23:05Z</time>
      </trkpt>
      <trkpt lat="43.09414" lon="-0.03477">
        <ele>405.8</ele>
        <time>2022-10-07T08:23:09Z</time>
      </trkpt>
      <trkpt lat="43.09416" lon="-0.03421">
        <ele>406.4</ele>
        <time>2022-10-07T08:23:12Z</time>
      </trkpt>
      <trkpt lat="43.09418" lon="-0.03403">
        <ele>406.4</ele>
        <time>2022-10-07T08:23:13Z</time>
      </trkpt>
      <trkpt lat="43.09431" lon="-0.03334">
        <ele>407.4</ele>
        <time>2022-10-07T08:23:17Z</time>
      </trkpt>
      <trkpt lat="43.09455" lon="-0.03269">
        <ele>408.4</ele>
        <time>2022-10-07T08:23:21Z</time>
      </trkpt>
      <trkpt lat="43.09475" lon="-0.03225">
        <ele>409.4</ele>
        <time>2022-10-07T08:23:24Z</time>
      </trkpt>
      <trkpt lat="43.09482" lon="-0.03211">
        <ele>409.8</ele>
        <time>2022-10-07T08:23:25Z</time>
      </trkpt>
      <trkpt lat="43.09518" lon="-0.03155">
        <ele>410.8</ele>
        <time>2022-10-07T08:23:30Z</time>
      </trkpt>
      <trkpt lat="43.09522" lon="-0.03147">
        <ele>411.2</ele>
        <time>2022-10-07T08:23:31Z</time>
      </trkpt>
      <trkpt lat="43.09526" lon="-0.03137">
        <ele>411.6</ele>
        <time>2022-10-07T08:23:33Z</time>
      </trkpt>
      <trkpt lat="43.09528" lon="-0.03132">
        <ele>411.8</ele>
        <time>2022-10-07T08:23:36Z</time>
      </trkpt>
      <trkpt lat="43.09528" lon="-0.03133">
        <ele>412</ele>
        <time>2022-10-07T08:23:46Z</time>
      </trkpt>
    </trkseg>
  </trk>
</gpx>